[[{"header":{"parameterUnit":"m.s-1","parameterCategory":1,"la1":31.0,"la2":29.5877,"lo1":-88.7671,"lo2":-86.6584,"dy":0.0162,"dx":0.0185,"nx":115,"ny":88,"refTime":"2026-05-24T00:00:00:Z","depth":0,"parameterNumber":2,"parameterNumberName":"U-component_of_WINDS"},"data":[0.0,0.0,0.0,0.0,0.0,0.0,0.0,0.0,0.0,0.0,0.0,0.0,0.0,0.0,0.0,0.0,0.0,0.0,0.0,0.0,0.0,0.0,0.0,0.0,0.0,0.0,0.0,0.0,0.0,0.0,0.0,0.0,0.0,0.0,0.0,0.0,0.0,0.0,0.0,0.0,0.0,0.0,0.0,0.0,0.0,0.0,0.0,0.0,0.0,0.0,0.0,0.0,0.0,0.0,0.0,0.0,0.0,0.0,0.0,0.0,0.0,0.0,0.0,0.0,0.0,0.0,0.0,0.0,0.0,0.0,0.0,0.0,0.0,0.0,0.0,0.0,0.0,0.0,0.0,0.0,0.0,0.0,0.0,0.0,0.0,0.0,0.0,0.0,0.0,0.0,0.0,0.0,0.0,0.0,0.0,0.0,0.0,0.0,0.0,0.0,0.0,0.0,0.0,0.0,0.0,0.0,0.0,0.0,0.0,0.0,0.0,0.0,0.0,0.0,0.0,0.0,0.0,0.0,0.0,0.0,0.0,0.0,0.0,0.0,0.0,0.0,0.0,0.0,0.0,0.0,0.0,0.0,0.0,0.0,0.0,0.0,0.0,0.0,0.0,0.0,0.0,0.0,0.0,0.0,0.0,0.0,0.0,0.0,0.0,0.0,0.0,0.0,0.0,0.0,0.0,0.0,0.0,0.0,0.0,0.0,0.0,0.0,0.0,0.0,0.0,0.0,0.0,0.0,0.0,0.0,0.0,0.0,0.0,0.0,0.0,0.0,0.0,0.0,0.0,0.0,0.0,0.0,0.0,0.0,0.0,0.0,0.0,0.0,0.0,0.0,0.0,0.0,0.0,0.0,0.0,0.0,0.0,0.0,0.0,0.0,0.0,0.0,0.0,0.0,0.0,0.0,0.0,0.0,0.0,0.0,0.0,0.0,0.0,0.0,0.0,0.0,0.0,0.0,0.0,0.0,0.0,0.0,0.0,0.0,0.0,0.0,0.0,0.0,0.0,0.0,0.0,0.0,0.0,0.0,0.0,0.0,0.0,0.0,0.0,0.0,0.0,0.0,0.0,0.0,0.0,0.0,0.0,0.0,0.0,0.0,0.0,0.0,0.0,0.0,0.0,0.0,0.0,0.0,0.0,0.0,0.0,0.0,0.0,0.0,0.0,0.0,0.0,0.0,0.0,0.0,0.0,0.0,0.0,0.0,0.0,0.0,0.0,0.0,0.0,0.0,0.0,0.0,0.0,0.0,0.0,0.0,0.0,0.0,0.0,0.0,0.0,0.0,0.0,0.0,0.0,0.0,0.0,0.0,0.0,0.0,0.0,0.0,0.0,0.0,0.0,0.0,0.0,0.0,0.0,0.0,0.0,0.0,0.0,0.0,0.0,0.0,0.0,0.0,0.0,0.0,0.0,0.0,0.0,0.0,0.0,0.0,0.0,0.0,0.0,0.0,0.0,0.0,0.0,0.0,0.0,0.0,0.0,0.0,0.0,0.0,0.0,0.0,0.0,0.0,0.0,0.0,0.0,0.0,0.0,0.0,0.0,0.0,0.0,0.0,0.0,0.0,0.0,0.0,0.0,0.0,0.0,0.0,0.0,0.0,0.0,0.0,0.0,0.0,0.0,0.0,0.0,0.0,0.0,0.0,0.0,0.0,0.0,0.0,0.0,0.0,0.0,0.0,0.0,0.0,0.0,0.0,0.0,0.0,0.0,0.0,0.0,0.0,0.0,0.0,0.0,0.0,0.0,0.0,0.0,0.0,0.0,0.0,0.0,0.0,0.0,0.0,0.0,0.0,0.0,0.0,0.0,0.0,0.0,0.0,0.0,0.0,0.0,0.0,0.0,0.0,0.0,0.0,0.0,0.0,0.0,0.0,0.0,0.0,0.0,0.0,0.0,0.0,0.0,0.0,0.0,0.0,0.0,0.0,0.0,0.0,0.0,0.0,0.0,0.0,0.0,0.0,0.0,0.0,0.0,0.0,0.0,0.0,0.0,0.0,0.0,0.0,0.0,0.0,0.0,0.0,0.0,0.0,0.0,0.0,0.0,0.0,0.0,0.0,0.0,0.0,0.0,0.0,0.0,0.0,0.0,0.0,0.0,0.0,0.0,0.0,0.0,0.0,0.0,0.0,0.0,0.0,0.0,0.0,0.0,0.0,0.0,0.0,0.0,0.0,0.0,0.0,0.0,0.0,0.0,0.0,0.0,0.0,0.0,0.0,0.0,0.0,0.0,0.0,0.0,0.0,0.0,0.0,0.0,0.0,0.0,0.0,0.0,0.0,0.0,0.0,0.0,0.0,0.0,0.0,0.0,0.0,0.0,0.0,0.0,0.0,0.0,0.0,0.0,0.0,0.0,0.0,0.0,0.0,0.0,0.0,0.0,0.0,0.0,0.0,0.0,0.0,0.0,0.0,0.0,0.0,0.0,0.0,0.0,0.0,0.0,0.0,0.0,0.0,0.0,0.0,0.0,0.0,0.0,0.0,0.0,0.0,0.0,0.0,0.0,0.0,0.0,0.0,0.0,0.0,0.0,0.0,0.0,0.0,0.0,0.0,0.0,0.0,0.0,0.0,0.0,0.0,0.0,0.0,0.0,0.0,0.0,0.0,0.0,0.0,0.0,0.0,0.0,0.0,0.0,0.0,0.0,0.0,0.0,0.0,0.0,0.0,0.0,0.0,0.0,0.0,0.0,0.0,0.0,0.0,0.0,0.0,0.0,0.0,0.0,0.0,0.0,0.0,0.0,0.0,0.0,0.0,0.0,0.0,0.0,0.0,0.0,0.0,0.0,0.0,0.0,0.0,0.0,0.0,0.0,0.0,0.0,0.0,0.0,0.0,0.0,0.0,0.0,0.0,0.0,0.0,0.0,0.0,0.0,0.0,0.0,0.0,0.0,0.0,0.0,0.0,0.0,0.0,0.0,0.0,0.0,0.0,0.0,0.0,0.0,0.0,0.0,0.0,0.0,0.0,0.0,0.0,0.0,0.0,0.0,0.0,0.0,0.0,0.0,0.0,0.0,0.0,0.0,0.0,0.0,0.0,0.0,0.0,0.0,0.0,0.0,0.0,0.0,0.0,0.0,0.0,0.0,0.0,0.0,0.0,0.0,0.0,0.0,0.0,0.0,0.0,0.0,0.0,0.0,0.0,0.0,0.0,0.0,0.0,0.0,0.0,0.0,0.0,0.0,0.0,0.0,0.0,0.0,0.0,0.0,0.0,0.0,0.0,0.0,0.0,0.0,0.0,0.0,0.0,0.0,0.0,0.0,0.0,0.0,0.0,0.0,0.0,0.0,0.0,0.0,0.0,0.0,0.0,0.0,0.0,0.0,0.0,0.0,0.0,0.0,0.0,0.0,0.0,0.0,0.0,0.0,0.0,0.0,0.0,0.0,0.0,0.0,0.0,0.0,0.0,0.0,0.0,0.0,0.0,0.0,0.0,0.0,0.0,0.0,0.0,0.0,0.0,0.0,0.0,0.0,0.0,0.0,0.0,0.0,0.0,0.0,0.0,0.0,0.0,0.0,0.0,0.0,0.0,0.0,0.0,0.0,0.0,0.0,0.0,0.0,0.0,0.0,0.0,0.0,0.0,0.0,0.0,0.0,0.0,0.0,0.0,0.0,0.0,0.0,0.0,0.0,0.0,0.0,0.0,0.0,0.0,0.0,0.0,0.0,0.0,0.0,0.0,0.0,0.0,0.0,0.0,0.0,0.0,0.0,0.0,0.0,0.0,0.0,0.0,0.0,0.0,0.0,0.0,0.0,0.0,0.0,0.0,0.0,0.0,0.0,0.0,0.0,0.0,0.0,0.0,0.0,0.0,0.0,0.0,0.0,0.0,0.0,0.0,0.0,0.0,0.0,0.0,0.0,0.0,0.0,0.0,0.0,0.0,0.0,0.0,0.0,0.0,0.0,0.0,0.0,0.0,0.0,0.0,0.0,0.0,0.0,0.0,0.0,0.0,0.0,0.0,0.0,0.0,0.0,0.0,0.0,0.0,0.0,0.0,0.0,0.0,0.0,0.0,0.0,0.0,0.0,0.0,0.0,0.0,0.0,0.0,0.0,0.0,0.0,0.0,0.0,0.0,0.0,0.0,0.0,0.0,0.0,0.0,0.0,0.0,0.0,0.0,0.0,0.0,0.0,0.0,0.0,0.0,0.0,0.0,0.0,0.0,0.0,0.0,0.0,0.0,0.0,0.0,0.0,0.0,0.0,0.0,0.0,0.0,0.0,0.0,0.0,0.0,0.0,0.0,0.0,0.0,-1.3428,0.0,0.0,0.0,0.0,0.0,0.0,0.0,0.0,0.0,0.0,0.0,0.0,0.0,0.0,0.0,0.0,0.0,0.0,0.0,0.0,0.0,0.0,0.0,0.0,0.0,0.0,0.0,0.0,0.0,0.0,0.0,0.0,0.0,0.0,0.0,0.0,0.0,0.0,0.0,0.0,0.0,0.0,0.0,0.0,0.0,0.0,0.0,0.0,0.0,0.0,0.0,0.0,0.0,0.0,0.0,0.0,0.0,0.0,0.0,0.0,0.0,0.0,0.0,0.0,0.0,0.0,0.0,0.0,0.0,0.0,0.0,0.0,0.0,0.0,0.0,0.0,0.0,0.0,0.0,0.0,0.0,0.0,0.0,0.0,0.0,0.0,0.0,0.0,0.0,0.0,0.0,0.0,0.0,0.0,0.0,0.0,0.0,0.0,0.0,0.0,0.0,0.0,0.0,0.0,0.0,0.0,0.0,0.0,0.0,0.0,-1.6565,-1.6299,-1.5829,-1.5155,-1.4216,0.0,0.0,0.0,0.0,0.0,0.0,0.0,0.0,0.0,0.0,0.0,0.0,0.0,0.0,0.0,0.0,0.0,0.0,0.0,0.0,0.0,0.0,0.0,0.0,0.0,0.0,0.0,0.0,0.0,0.0,0.0,0.0,0.0,0.0,0.0,0.0,0.0,0.0,0.0,0.0,0.0,0.0,0.0,0.0,0.0,0.0,0.0,0.0,0.0,0.0,0.0,0.0,0.0,0.0,0.0,0.0,0.0,0.0,0.0,0.0,0.0,0.0,0.0,0.0,0.0,0.0,0.0,0.0,0.0,0.0,0.0,0.0,0.0,0.0,0.0,0.0,0.0,0.0,0.0,0.0,0.0,0.0,0.0,0.0,0.0,0.0,0.0,0.0,0.0,0.0,0.0,0.0,0.0,0.0,0.0,0.0,0.0,0.0,0.0,0.0,0.0,0.0,0.0,0.0,0.0,0.0,0.0,0.0,0.0,0.0,0.0,0.0,-1.6752,-1.6128,-1.4938,0.0,0.0,0.0,0.0,0.0,0.0,0.0,0.0,0.0,0.0,0.0,0.0,0.0,0.0,0.0,0.0,0.0,0.0,0.0,0.0,0.0,0.0,0.0,0.0,0.0,0.0,0.0,0.0,0.0,0.0,0.0,0.0,0.0,0.0,0.0,0.0,0.0,0.0,0.0,0.0,0.0,0.0,0.0,0.0,0.0,0.0,0.0,0.0,0.0,0.0,0.0,0.0,0.0,0.0,0.0,0.0,0.0,0.0,0.0,0.0,0.0,0.0,0.0,0.0,0.0,0.0,0.0,0.0,0.0,0.0,0.0,0.0,0.0,0.0,0.0,0.0,0.0,0.0,0.0,0.0,0.0,0.0,0.0,0.0,0.0,0.0,0.0,0.0,0.0,0.0,0.0,0.0,0.0,0.0,0.0,0.0,0.0,0.0,0.0,0.0,0.0,0.0,0.0,0.0,0.0,0.0,0.0,0.0,0.0,0.0,-1.8041,-1.8721,-1.8503,0.0,-1.5939,0.0,0.0,0.0,0.0,0.0,0.0,0.0,0.0,0.0,0.0,0.0,0.0,0.0,0.0,0.0,0.0,0.0,0.0,0.0,0.0,0.0,0.0,0.0,0.0,0.0,0.0,0.0,0.0,0.0,0.0,0.0,0.0,0.0,0.0,0.0,0.0,0.0,0.0,0.0,0.0,0.0,0.0,0.0,0.0,0.0,0.0,0.0,0.0,0.0,0.0,0.0,0.0,0.0,0.0,0.0,0.0,0.0,0.0,0.0,0.0,0.0,0.0,0.0,0.0,0.0,0.0,0.0,0.0,0.0,0.0,0.0,0.0,0.0,0.0,0.0,0.0,0.0,0.0,0.0,0.0,0.0,0.0,0.0,0.0,0.0,0.0,0.0,0.0,0.0,0.0,0.0,0.0,0.0,0.0,0.0,0.0,0.0,0.0,0.0,0.0,0.0,0.0,0.0,0.0,0.0,0.0,0.0,0.0,0.0,0.0,-1.8183,-1.897,-1.8812,-1.793,0.0,0.0,0.0,0.0,0.0,0.0,0.0,0.0,0.0,0.0,0.0,0.0,0.0,0.0,0.0,0.0,0.0,0.0,0.0,0.0,0.0,0.0,0.0,0.0,0.0,0.0,0.0,0.0,0.0,0.0,0.0,0.0,0.0,0.0,0.0,0.0,0.0,0.0,0.0,0.0,0.0,0.0,0.0,0.0,0.0,0.0,0.0,0.0,0.0,0.0,0.0,0.0,0.0,0.0,0.0,0.0,0.0,0.0,0.0,0.0,0.0,0.0,0.0,0.0,0.0,0.0,0.0,0.0,0.0,0.0,0.0,0.0,0.0,0.0,0.0,0.0,0.0,0.0,0.0,0.0,0.0,0.0,0.0,0.0,0.0,0.0,0.0,0.0,0.0,0.0,0.0,0.0,0.0,0.0,0.0,0.0,0.0,0.0,0.0,0.0,0.0,0.0,0.0,0.0,0.0,0.0,0.0,0.0,0.0,0.0,-1.8051,-1.8551,-1.9544,-1.9372,-1.8461,-1.686,0.0,0.0,0.0,0.0,0.0,0.0,0.0,0.0,0.0,0.0,0.0,0.0,0.0,0.0,0.0,0.0,0.0,0.0,0.0,0.0,0.0,0.0,0.0,0.0,0.0,0.0,0.0,0.0,0.0,0.0,0.0,0.0,0.0,0.0,0.0,0.0,0.0,0.0,0.0,0.0,0.0,0.0,0.0,0.0,0.0,0.0,0.0,0.0,0.0,0.0,0.0,0.0,0.0,0.0,0.0,0.0,0.0,0.0,0.0,0.0,0.0,0.0,0.0,0.0,0.0,0.0,0.0,0.0,0.0,0.0,0.0,0.0,0.0,0.0,0.0,0.0,0.0,0.0,0.0,0.0,0.0,0.0,0.0,0.0,0.0,0.0,0.0,0.0,0.0,0.0,0.0,0.0,0.0,0.0,0.0,0.0,0.0,0.0,0.0,0.0,0.0,0.0,0.0,0.0,0.0,0.0,0.0,0.0,0.0,-1.8705,-1.9461,-2.1083,-2.0562,-1.9481,0.0,0.0,0.0,0.0,0.0,0.0,0.0,0.0,0.0,0.0,0.0,0.0,0.0,0.0,0.0,0.0,0.0,0.0,0.0,0.0,0.0,0.0,0.0,0.0,0.0,0.0,0.0,0.0,0.0,0.0,0.0,0.0,0.0,0.0,0.0,0.0,0.0,0.0,0.0,0.0,0.0,0.0,0.0,0.0,0.0,0.0,0.0,0.0,0.0,0.0,0.0,0.0,0.0,0.0,0.0,0.0,0.0,0.0,0.0,0.0,0.0,0.0,0.0,0.0,0.0,0.0,0.0,0.0,0.0,0.0,0.0,0.0,0.0,0.0,0.0,0.0,0.0,0.0,0.0,0.0,0.0,0.0,0.0,0.0,0.0,0.0,0.0,0.0,0.0,0.0,0.0,0.0,0.0,0.0,0.0,0.0,0.0,0.0,0.0,0.0,0.0,0.0,0.0,0.0,0.0,0.0,0.0,0.0,0.0,-1.8157,-1.8647,-1.9689,-2.1242,-2.0292,-1.9232,0.0,0.0,0.0,0.0,0.0,0.0,0.0,0.0,0.0,0.0,0.0,0.0,0.0,0.0,0.0,0.0,0.0,0.0,0.0,0.0,0.0,0.0,0.0,0.0,0.0,0.0,0.0,0.0,0.0,0.0,0.0,0.0,0.0,0.0,0.0,0.0,0.0,0.0,0.0,0.0,0.0,0.0,0.0,0.0,0.0,0.0,0.0,0.0,0.0,0.0,0.0,0.0,0.0,0.0,0.0,0.0,0.0,0.0,0.0,0.0,0.0,0.0,0.0,0.0,0.0,0.0,0.0,0.0,0.0,0.0,0.0,0.0,0.0,0.0,0.0,0.0,0.0,0.0,0.0,0.0,0.0,0.0,0.0,0.0,0.0,0.0,0.0,0.0,0.0,0.0,0.0,0.0,0.0,0.0,0.0,0.0,0.0,0.0,0.0,0.0,0.0,0.0,0.0,0.0,0.0,0.0,0.0,0.0,0.0,-1.8083,0.0,-2.0247,0.0,-2.0105,-1.9096,0.0,0.0,0.0,0.0,0.0,0.0,0.0,0.0,0.0,0.0,0.0,0.0,0.0,0.0,0.0,0.0,0.0,0.0,0.0,0.0,0.0,0.0,0.0,0.0,0.0,0.0,0.0,0.0,0.0,0.0,0.0,0.0,0.0,0.0,0.0,0.0,0.0,0.0,0.0,0.0,0.0,0.0,0.0,0.0,0.0,0.0,0.0,0.0,0.0,0.0,0.0,0.0,0.0,0.0,0.0,0.0,0.0,0.0,0.0,0.0,0.0,0.0,0.0,0.0,0.0,0.0,0.0,0.0,0.0,0.0,0.0,0.0,0.0,0.0,0.0,0.0,0.0,0.0,0.0,0.0,0.0,0.0,0.0,0.0,0.0,0.0,0.0,0.0,0.0,0.0,0.0,0.0,0.0,0.0,0.0,0.0,0.0,0.0,0.0,0.0,0.0,0.0,0.0,0.0,0.0,0.0,0.0,0.0,-1.775,-1.8722,-2.0271,-2.1101,-2.1277,-2.0105,-1.9147,0.0,0.0,0.0,0.0,0.0,0.0,0.0,0.0,0.0,0.0,0.0,0.0,0.0,0.0,0.0,0.0,0.0,0.0,0.0,0.0,0.0,0.0,0.0,0.0,0.0,0.0,0.0,0.0,0.0,0.0,0.0,0.0,0.0,0.0,0.0,0.0,0.0,0.0,0.0,0.0,0.0,0.0,0.0,0.0,0.0,0.0,0.0,0.0,0.0,0.0,0.0,0.0,0.0,0.0,0.0,0.0,0.0,0.0,0.0,0.0,0.0,0.0,0.0,0.0,0.0,0.0,0.0,0.0,0.0,0.0,0.0,0.0,0.0,0.0,0.0,0.0,0.0,0.0,0.0,0.0,0.0,0.0,0.0,0.0,0.0,0.0,0.0,0.0,0.0,0.0,0.0,0.0,0.0,0.0,0.0,0.0,0.0,0.0,0.0,0.0,0.0,0.0,0.0,0.0,0.0,0.0,0.0,0.0,0.0,-1.9661,-1.9616,-2.017,-2.1241,-1.9575,-1.8559,0.0,0.0,0.0,0.0,0.0,0.0,0.0,0.0,0.0,0.0,0.0,0.0,0.0,0.0,0.0,0.0,0.0,0.0,0.0,0.0,0.0,0.0,0.0,0.0,0.0,0.0,0.0,0.0,0.0,0.0,0.0,0.0,0.0,0.0,0.0,0.0,0.0,0.0,0.0,0.0,0.0,0.0,0.0,0.0,0.0,0.0,0.0,0.0,0.0,0.0,0.0,0.0,0.0,0.0,0.0,0.0,0.0,0.0,0.0,0.0,0.0,0.0,0.0,0.0,0.0,0.0,0.0,0.0,0.0,0.0,0.0,0.0,0.0,0.0,0.0,0.0,0.0,0.0,0.0,0.0,0.0,0.0,0.0,0.0,0.0,0.0,0.0,0.0,0.0,0.0,0.0,0.0,0.0,0.0,0.0,0.0,0.0,0.0,0.0,0.0,0.0,0.0,0.0,0.0,0.0,0.0,0.0,0.0,0.0,-2.153,-2.0955,-2.107,-2.2037,-2.0304,-1.93,-1.9129,0.0,0.0,0.0,0.0,0.0,0.0,0.0,0.0,0.0,0.0,0.0,0.0,0.0,0.0,0.0,0.0,0.0,0.0,0.0,0.0,0.0,0.0,0.0,0.0,0.0,0.0,0.0,0.0,0.0,0.0,0.0,0.0,0.0,0.0,0.0,0.0,0.0,0.0,0.0,0.0,0.0,0.0,0.0,0.0,0.0,0.0,0.0,0.0,0.0,0.0,0.0,0.0,0.0,0.0,0.0,0.0,0.0,0.0,0.0,0.0,0.0,0.0,0.0,0.0,0.0,0.0,0.0,0.0,0.0,0.0,0.0,0.0,0.0,0.0,0.0,0.0,0.0,0.0,0.0,0.0,0.0,0.0,0.0,0.0,0.0,0.0,0.0,0.0,0.0,0.0,0.0,0.0,0.0,0.0,0.0,0.0,0.0,0.0,0.0,0.0,0.0,0.0,0.0,0.0,0.0,0.0,0.0,0.0,-2.41,-2.3848,-2.3557,-2.3252,-2.1956,-2.0986,0.0,0.0,0.0,0.0,0.0,0.0,0.0,0.0,0.0,0.0,0.0,0.0,0.0,0.0,0.0,0.0,0.0,0.0,0.0,0.0,0.0,0.0,0.0,0.0,0.0,0.0,0.0,0.0,0.0,0.0,0.0,0.0,0.0,0.0,0.0,0.0,0.0,0.0,0.0,0.0,0.0,0.0,0.0,0.0,0.0,0.0,0.0,0.0,0.0,0.0,0.0,0.0,0.0,0.0,0.0,0.0,0.0,0.0,0.0,0.0,0.0,0.0,0.0,0.0,0.0,0.0,0.0,0.0,0.0,0.0,0.0,0.0,0.0,0.0,0.0,0.0,0.0,0.0,0.0,0.0,0.0,0.0,0.0,0.0,0.0,0.0,0.0,0.0,0.0,0.0,0.0,0.0,0.0,0.0,0.0,0.0,0.0,0.0,0.0,0.0,0.0,0.0,0.0,0.0,0.0,0.0,0.0,0.0,0.0,-2.5697,-2.6068,-2.5568,-2.4188,-2.2213,-2.1055,0.0,0.0,0.0,0.0,0.0,0.0,0.0,0.0,0.0,0.0,0.0,0.0,0.0,0.0,0.0,0.0,0.0,0.0,0.0,0.0,0.0,0.0,0.0,0.0,0.0,0.0,0.0,0.0,0.0,0.0,0.0,0.0,0.0,0.0,0.0,0.0,0.0,0.0,0.0,0.0,0.0,0.0,0.0,0.0,0.0,0.0,0.0,0.0,0.0,0.0,0.0,0.0,0.0,0.0,0.0,0.0,0.0,0.0,0.0,0.0,0.0,0.0,0.0,0.0,0.0,0.0,0.0,0.0,0.0,0.0,0.0,0.0,0.0,0.0,0.0,0.0,0.0,0.0,0.0,0.0,0.0,0.0,0.0,0.0,0.0,0.0,0.0,0.0,0.0,0.0,0.0,0.0,0.0,0.0,0.0,0.0,0.0,0.0,0.0,0.0,0.0,0.0,0.0,0.0,0.0,0.0,0.0,0.0,-2.5779,-2.6975,-2.7441,-2.7035,-2.5731,-2.3793,-2.2277,0.0,0.0,0.0,0.0,0.0,0.0,0.0,0.0,0.0,0.0,0.0,0.0,0.0,0.0,0.0,0.0,0.0,0.0,0.0,0.0,0.0,0.0,0.0,0.0,0.0,0.0,0.0,0.0,0.0,0.0,0.0,0.0,0.0,0.0,0.0,0.0,0.0,0.0,0.0,0.0,0.0,0.0,0.0,0.0,0.0,0.0,0.0,0.0,0.0,0.0,0.0,0.0,0.0,0.0,0.0,0.0,0.0,0.0,0.0,0.0,0.0,0.0,0.0,0.0,0.0,0.0,0.0,0.0,0.0,0.0,0.0,0.0,0.0,0.0,0.0,0.0,0.0,0.0,0.0,0.0,0.0,0.0,0.0,0.0,0.0,0.0,0.0,0.0,0.0,0.0,0.0,0.0,0.0,0.0,0.0,0.0,0.0,0.0,0.0,0.0,0.0,0.0,0.0,0.0,0.0,0.0,0.0,0.0,-2.7516,-2.8007,-2.826,-2.8023,-2.7341,-2.5798,-2.3922,0.0,0.0,0.0,0.0,0.0,0.0,0.0,0.0,0.0,0.0,0.0,0.0,0.0,0.0,0.0,0.0,0.0,0.0,0.0,0.0,0.0,0.0,0.0,0.0,0.0,0.0,0.0,0.0,0.0,0.0,0.0,0.0,0.0,0.0,0.0,0.0,0.0,0.0,0.0,0.0,0.0,0.0,0.0,0.0,0.0,0.0,0.0,0.0,0.0,0.0,0.0,0.0,0.0,0.0,0.0,0.0,0.0,0.0,0.0,0.0,0.0,0.0,0.0,0.0,0.0,0.0,0.0,0.0,0.0,0.0,0.0,0.0,0.0,0.0,0.0,0.0,0.0,0.0,0.0,0.0,0.0,0.0,0.0,0.0,0.0,0.0,0.0,0.0,0.0,0.0,0.0,0.0,0.0,0.0,0.0,0.0,0.0,0.0,0.0,0.0,0.0,0.0,0.0,0.0,0.0,0.0,0.0,0.0,-2.7811,-2.9311,-2.9009,-2.8264,-2.7015,-2.544,-2.3794,0.0,0.0,0.0,0.0,0.0,0.0,0.0,0.0,0.0,0.0,0.0,0.0,0.0,0.0,0.0,0.0,0.0,0.0,0.0,0.0,0.0,0.0,0.0,0.0,0.0,0.0,0.0,0.0,0.0,0.0,0.0,0.0,0.0,0.0,0.0,0.0,0.0,0.0,0.0,0.0,0.0,0.0,0.0,0.0,0.0,0.0,0.0,0.0,-2.5379,0.0,0.0,0.0,0.0,0.0,0.0,0.0,0.0,0.0,0.0,0.0,0.0,0.0,0.0,0.0,0.0,0.0,0.0,0.0,0.0,0.0,0.0,0.0,0.0,0.0,0.0,0.0,0.0,0.0,0.0,0.0,0.0,0.0,0.0,0.0,0.0,0.0,0.0,0.0,0.0,0.0,0.0,0.0,0.0,0.0,0.0,0.0,0.0,0.0,0.0,0.0,0.0,0.0,0.0,0.0,0.0,0.0,0.0,0.0,-2.8279,-2.9065,-2.916,-2.8388,-2.6717,-2.5551,-2.4024,0.0,0.0,0.0,0.0,0.0,0.0,0.0,0.0,0.0,0.0,0.0,0.0,0.0,0.0,0.0,0.0,0.0,0.0,0.0,0.0,0.0,0.0,0.0,0.0,0.0,0.0,0.0,0.0,0.0,0.0,0.0,0.0,0.0,0.0,0.0,0.0,0.0,0.0,0.0,0.0,0.0,0.0,0.0,0.0,0.0,0.0,0.0,0.0,0.0,0.0,0.0,0.0,0.0,0.0,0.0,0.0,0.0,0.0,0.0,0.0,0.0,0.0,0.0,0.0,0.0,0.0,0.0,0.0,0.0,0.0,0.0,0.0,0.0,0.0,0.0,0.0,0.0,0.0,0.0,0.0,0.0,0.0,0.0,0.0,0.0,0.0,0.0,0.0,0.0,0.0,0.0,0.0,0.0,0.0,0.0,0.0,0.0,0.0,0.0,0.0,0.0,0.0,0.0,0.0,0.0,0.0,0.0,-2.7417,-2.8674,-2.8418,-2.9006,-2.8379,-2.6439,-2.584,-2.4313,-2.1779,0.0,0.0,0.0,0.0,0.0,0.0,0.0,0.0,0.0,0.0,0.0,0.0,0.0,0.0,0.0,0.0,0.0,0.0,0.0,0.0,0.0,0.0,0.0,0.0,0.0,0.0,0.0,0.0,0.0,0.0,0.0,0.0,0.0,0.0,0.0,0.0,0.0,0.0,-2.0106,-2.3095,0.0,0.0,0.0,0.0,0.0,0.0,0.0,0.0,-2.6398,0.0,0.0,0.0,0.0,0.0,0.0,0.0,0.0,0.0,0.0,0.0,0.0,0.0,0.0,0.0,0.0,0.0,0.0,0.0,0.0,0.0,0.0,0.0,0.0,0.0,0.0,0.0,0.0,0.0,0.0,0.0,0.0,0.0,0.0,0.0,0.0,0.0,0.0,0.0,0.0,0.0,0.0,0.0,0.0,0.0,0.0,0.0,0.0,0.0,0.0,0.0,0.0,0.0,0.0,0.0,0.0,-2.5277,-2.7346,-2.8501,-2.87,-2.8889,-2.8092,-2.6297,-2.5917,-2.4425,-2.1689,0.0,0.0,0.0,0.0,0.0,0.0,0.0,0.0,0.0,0.0,0.0,0.0,0.0,0.0,0.0,0.0,0.0,0.0,0.0,0.0,0.0,0.0,0.0,0.0,0.0,0.0,0.0,0.0,0.0,0.0,0.0,0.0,0.0,0.0,0.0,0.0,0.0,0.0,0.0,-2.4929,-2.659,0.0,0.0,0.0,0.0,0.0,0.0,0.0,0.0,-2.6726,0.0,0.0,0.0,0.0,0.0,0.0,0.0,0.0,0.0,0.0,0.0,0.0,0.0,0.0,0.0,0.0,0.0,0.0,0.0,0.0,0.0,0.0,0.0,0.0,0.0,0.0,0.0,0.0,0.0,0.0,0.0,0.0,0.0,0.0,0.0,0.0,0.0,0.0,0.0,0.0,0.0,0.0,0.0,0.0,0.0,0.0,0.0,0.0,0.0,0.0,0.0,0.0,0.0,0.0,0.0,-2.4514,-2.6391,-2.7494,-2.7732,-2.7597,-2.698,-2.5879,-2.5232,-2.3792,0.0,0.0,0.0,0.0,0.0,0.0,0.0,0.0,0.0,0.0,0.0,0.0,0.0,0.0,0.0,0.0,0.0,0.0,0.0,0.0,0.0,0.0,0.0,0.0,0.0,0.0,0.0,0.0,0.0,0.0,0.0,0.0,0.0,0.0,0.0,0.0,0.0,0.0,0.0,0.0,-2.6392,-2.7558,-2.8433,0.0,0.0,0.0,0.0,0.0,0.0,-2.768,-2.7031,0.0,0.0,0.0,0.0,0.0,0.0,0.0,0.0,0.0,0.0,0.0,0.0,0.0,0.0,0.0,0.0,0.0,0.0,0.0,0.0,0.0,0.0,0.0,0.0,0.0,0.0,0.0,0.0,0.0,0.0,0.0,0.0,0.0,0.0,0.0,0.0,0.0,0.0,0.0,0.0,0.0,0.0,0.0,0.0,0.0,0.0,0.0,0.0,0.0,0.0,0.0,0.0,0.0,0.0,0.0,-2.3516,-2.5329,-2.6349,-2.638,-2.6152,-2.5757,-2.5165,-2.4341,-2.2995,0.0,0.0,0.0,0.0,0.0,0.0,0.0,0.0,0.0,0.0,0.0,0.0,0.0,0.0,0.0,0.0,0.0,0.0,0.0,0.0,0.0,0.0,0.0,0.0,0.0,0.0,0.0,0.0,0.0,0.0,0.0,0.0,0.0,0.0,0.0,0.0,0.0,0.0,0.0,0.0,0.0,-2.8445,-2.9292,-2.9275,0.0,0.0,0.0,0.0,-2.9381,-2.8256,0.0,0.0,0.0,0.0,0.0,0.0,0.0,0.0,0.0,0.0,0.0,0.0,0.0,0.0,0.0,0.0,0.0,0.0,0.0,0.0,0.0,0.0,0.0,0.0,0.0,0.0,0.0,0.0,0.0,0.0,0.0,0.0,0.0,0.0,0.0,0.0,0.0,0.0,0.0,0.0,0.0,0.0,0.0,0.0,0.0,0.0,0.0,0.0,0.0,0.0,0.0,0.0,0.0,0.0,0.0,0.0,-2.3101,-2.4812,-2.549,-2.5068,-2.527,-2.4982,-2.4104,-2.346,-2.2476,0.0,0.0,0.0,0.0,0.0,0.0,0.0,0.0,0.0,0.0,0.0,0.0,0.0,0.0,0.0,0.0,0.0,0.0,0.0,0.0,0.0,0.0,0.0,0.0,0.0,0.0,0.0,0.0,0.0,0.0,0.0,0.0,0.0,0.0,0.0,0.0,0.0,0.0,0.0,0.0,0.0,-2.9244,-3.0068,-2.9525,-2.9245,0.0,0.0,-2.9198,-3.0127,-2.9511,0.0,0.0,0.0,0.0,0.0,0.0,0.0,0.0,0.0,0.0,0.0,0.0,0.0,0.0,0.0,0.0,0.0,0.0,0.0,0.0,0.0,0.0,0.0,0.0,0.0,0.0,0.0,0.0,0.0,0.0,0.0,0.0,0.0,0.0,0.0,0.0,0.0,0.0,0.0,0.0,0.0,0.0,0.0,0.0,0.0,0.0,0.0,0.0,0.0,0.0,0.0,0.0,0.0,0.0,0.0,-2.1545,-2.2598,-2.3759,-2.431,-2.4295,-2.3769,-2.3378,-2.311,-2.2522,-2.1611,0.0,0.0,0.0,0.0,0.0,0.0,0.0,0.0,0.0,0.0,0.0,0.0,0.0,0.0,0.0,0.0,0.0,0.0,0.0,0.0,0.0,0.0,0.0,0.0,0.0,0.0,0.0,0.0,0.0,0.0,0.0,0.0,0.0,0.0,0.0,0.0,0.0,0.0,0.0,0.0,0.0,0.0,-3.0055,-2.9907,0.0,0.0,0.0,-2.9791,-3.0228,0.0,0.0,0.0,0.0,0.0,0.0,0.0,0.0,0.0,0.0,0.0,0.0,0.0,0.0,0.0,0.0,0.0,0.0,0.0,0.0,0.0,0.0,0.0,0.0,0.0,0.0,0.0,0.0,0.0,0.0,0.0,0.0,0.0,0.0,0.0,0.0,0.0,0.0,0.0,0.0,0.0,0.0,0.0,0.0,0.0,0.0,0.0,0.0,0.0,0.0,0.0,0.0,0.0,0.0,0.0,0.0,0.0,-2.2091,-2.2807,-2.322,-2.3254,-2.2296,-2.1801,-2.1803,-2.1204,0.0,0.0,0.0,0.0,0.0,0.0,0.0,0.0,0.0,0.0,0.0,0.0,0.0,0.0,0.0,0.0,0.0,0.0,0.0,0.0,0.0,0.0,0.0,0.0,0.0,0.0,0.0,-1.8538,0.0,0.0,0.0,0.0,0.0,0.0,0.0,0.0,0.0,0.0,0.0,0.0,0.0,0.0,-2.8549,-2.9932,-3.006,-3.0007,0.0,0.0,-3.0102,-3.015,-2.9672,-2.9014,0.0,0.0,0.0,0.0,0.0,0.0,0.0,0.0,0.0,0.0,0.0,0.0,0.0,0.0,0.0,0.0,0.0,0.0,0.0,0.0,0.0,0.0,0.0,0.0,0.0,0.0,0.0,0.0,0.0,0.0,0.0,0.0,0.0,0.0,0.0,0.0,0.0,0.0,0.0,0.0,0.0,0.0,0.0,0.0,0.0,0.0,0.0,0.0,0.0,0.0,0.0,0.0,0.0,0.0,0.0,-2.154,-2.2222,-2.224,-2.1598,-2.1131,-2.0597,-1.9991,-1.9334,-1.8864,0.0,0.0,0.0,0.0,0.0,0.0,0.0,0.0,0.0,0.0,0.0,0.0,0.0,0.0,0.0,0.0,0.0,0.0,0.0,0.0,0.0,0.0,0.0,0.0,0.0,0.0,0.0,0.0,0.0,0.0,0.0,0.0,0.0,0.0,0.0,0.0,0.0,0.0,0.0,0.0,0.0,-2.9014,-2.9815,-2.9913,-2.9916,0.0,0.0,-3.003,-3.0095,-3.0056,-2.9749,-2.8962,0.0,0.0,0.0,0.0,0.0,0.0,0.0,0.0,0.0,0.0,0.0,0.0,0.0,0.0,0.0,0.0,0.0,0.0,0.0,0.0,0.0,0.0,0.0,0.0,0.0,0.0,0.0,0.0,0.0,0.0,0.0,0.0,0.0,0.0,0.0,0.0,0.0,0.0,0.0,0.0,0.0,0.0,0.0,0.0,0.0,0.0,0.0,0.0,0.0,0.0,0.0,0.0,0.0,-2.0292,-2.093,-2.151,-2.1492,-2.0784,-2.0144,-1.9503,-1.8888,-1.8342,-1.7822,0.0,0.0,0.0,0.0,0.0,0.0,0.0,0.0,0.0,0.0,0.0,0.0,0.0,0.0,0.0,0.0,0.0,0.0,0.0,0.0,0.0,0.0,0.0,0.0,0.0,0.0,0.0,0.0,-2.2292,-2.204,-2.1485,0.0,0.0,0.0,0.0,0.0,0.0,0.0,0.0,0.0,0.0,-2.9019,-2.9796,-2.9822,0.0,0.0,-2.9808,-2.9822,-2.991,-2.9926,-2.9639,-2.8837,-2.8358,0.0,0.0,0.0,0.0,0.0,0.0,0.0,0.0,0.0,0.0,0.0,0.0,0.0,0.0,0.0,0.0,0.0,0.0,0.0,0.0,0.0,0.0,0.0,0.0,0.0,0.0,0.0,0.0,0.0,0.0,0.0,0.0,0.0,0.0,0.0,0.0,0.0,0.0,0.0,0.0,0.0,0.0,0.0,0.0,0.0,0.0,0.0,0.0,0.0,0.0,0.0,0.0,-1.9845,-2.0394,-2.0819,-2.0684,-1.9991,-1.9162,-1.8405,-1.7743,-1.7263,-1.6748,0.0,0.0,0.0,0.0,0.0,0.0,0.0,0.0,0.0,0.0,0.0,0.0,0.0,0.0,0.0,0.0,0.0,0.0,0.0,0.0,0.0,0.0,0.0,0.0,0.0,0.0,0.0,0.0,-2.304,-2.2587,-2.167,0.0,0.0,0.0,0.0,0.0,0.0,0.0,0.0,0.0,0.0,-2.8923,-2.9719,-2.9763,-2.9691,-2.9692,-2.9701,-2.9709,-2.9737,-2.9728,-2.9521,-2.8938,0.0,0.0,0.0,0.0,0.0,0.0,0.0,0.0,0.0,0.0,0.0,0.0,0.0,0.0,0.0,0.0,0.0,0.0,0.0,0.0,0.0,0.0,0.0,0.0,0.0,0.0,0.0,0.0,0.0,0.0,-1.5268,0.0,0.0,0.0,0.0,0.0,0.0,0.0,0.0,0.0,0.0,0.0,0.0,0.0,0.0,0.0,0.0,0.0,0.0,0.0,0.0,0.0,0.0,-1.936,-1.9994,-2.0151,-1.9837,-1.9028,-1.8108,-1.7219,-1.6386,-1.5901,-1.5467,-1.5081,0.0,0.0,0.0,0.0,0.0,0.0,0.0,0.0,0.0,0.0,0.0,0.0,0.0,0.0,0.0,0.0,0.0,0.0,0.0,0.0,0.0,0.0,0.0,0.0,0.0,0.0,-2.3778,-2.3663,-2.3227,0.0,0.0,0.0,0.0,0.0,0.0,0.0,0.0,0.0,0.0,-2.8045,-2.8805,-2.9595,-2.9701,-2.9683,-2.9683,-2.9692,-2.9683,-2.9617,-2.955,-2.9482,0.0,0.0,0.0,0.0,0.0,0.0,0.0,0.0,0.0,0.0,0.0,0.0,0.0,0.0,0.0,0.0,0.0,0.0,0.0,0.0,0.0,0.0,0.0,0.0,0.0,0.0,0.0,-2.003,-1.9247,0.0,0.0,0.0,0.0,0.0,0.0,0.0,0.0,0.0,0.0,0.0,-1.8035,-1.8248,0.0,0.0,0.0,0.0,0.0,0.0,0.0,0.0,0.0,0.0,0.0,0.0,-1.9369,-1.9118,-1.9431,-1.902,-1.7836,-1.7024,-1.6291,-1.5565,-1.5128,-1.5092,-1.5593,0.0,0.0,0.0,0.0,0.0,0.0,0.0,0.0,0.0,0.0,0.0,0.0,0.0,0.0,0.0,0.0,0.0,0.0,0.0,0.0,0.0,0.0,0.0,0.0,0.0,-2.4562,0.0,0.0,0.0,0.0,0.0,0.0,0.0,0.0,0.0,0.0,0.0,-2.7215,-2.808,-2.8875,-2.9444,-2.9682,-2.9664,-2.9617,0.0,0.0,0.0,0.0,0.0,0.0,0.0,0.0,0.0,0.0,0.0,0.0,0.0,0.0,-2.6318,-2.648,-2.6507,-2.6476,-2.6459,0.0,0.0,0.0,0.0,0.0,0.0,0.0,0.0,0.0,0.0,0.0,0.0,0.0,0.0,-2.1111,0.0,-1.9806,0.0,0.0,0.0,0.0,0.0,0.0,0.0,0.0,-1.8471,-1.8332,-1.791,-1.7971,-1.8237,0.0,-1.8599,-1.8467,0.0,0.0,0.0,0.0,0.0,0.0,0.0,0.0,-1.9018,-1.83,-1.8542,-1.8035,-1.6676,-1.592,-1.5274,-1.4697,-1.4664,-1.5187,-1.6331,-1.7377,-1.8266,0.0,0.0,0.0,0.0,0.0,0.0,0.0,0.0,0.0,0.0,0.0,0.0,0.0,0.0,0.0,0.0,0.0,0.0,0.0,0.0,0.0,0.0,0.0,-2.4818,0.0,0.0,0.0,0.0,0.0,0.0,0.0,0.0,0.0,-2.6034,-2.7054,-2.7893,-2.8466,-2.9246,-2.9728,-2.9664,0.0,0.0,0.0,0.0,0.0,0.0,0.0,-2.9041,-2.8934,-2.8749,-2.86,-2.86,-2.8027,-2.7551,-2.7567,0.0,0.0,-2.7259,-2.7263,-2.7228,-2.7221,-2.7466,-2.77,-2.766,-2.7719,-2.7576,0.0,0.0,0.0,0.0,0.0,0.0,0.0,0.0,-2.2435,-2.2016,0.0,-2.0533,0.0,0.0,0.0,0.0,0.0,-1.9774,0.0,0.0,-1.808,-1.7812,-1.7511,-1.7744,-1.8103,-1.8485,-1.8801,-1.9028,-1.9177,-1.8406,0.0,0.0,0.0,0.0,0.0,0.0,-1.8266,-1.7603,-1.7574,-1.6935,-1.5574,-1.4844,-1.4261,-1.3803,-1.4573,-1.5737,-1.7231,-1.9141,-2.0196,-2.0239,-2.1419,0.0,0.0,0.0,0.0,0.0,0.0,0.0,0.0,0.0,0.0,0.0,0.0,0.0,0.0,0.0,0.0,0.0,0.0,0.0,0.0,-2.3648,0.0,0.0,0.0,0.0,0.0,0.0,0.0,0.0,0.0,0.0,-2.5971,-2.7398,-2.8446,-2.8501,0.0,0.0,0.0,0.0,-2.9453,-2.9332,-2.9359,-2.9312,-2.9051,-2.898,-2.8899,-2.865,0.0,0.0,-2.8398,-2.7916,-2.7791,-2.8621,-2.8334,-2.7862,-2.7406,-2.7321,-2.7258,-2.7275,-2.7912,-2.8399,-2.8446,-2.8499,-2.8712,-1.9516,0.0,0.0,0.0,0.0,-2.1183,-2.118,-2.0844,-2.1015,-2.072,-1.9991,-1.9282,0.0,0.0,0.0,0.0,0.0,0.0,-1.8655,-1.773,-1.7769,-1.7551,-1.7164,-1.7558,-1.8043,-1.8512,-1.922,-1.9589,-1.9697,-1.983,-1.9287,-1.8125,0.0,0.0,0.0,0.0,-1.8314,-1.7291,-1.6966,-1.6061,-1.4501,-1.4043,-1.3974,-1.4412,-1.579,-1.7247,-1.8735,-2.0777,-2.221,-2.285,-2.277,0.0,0.0,0.0,0.0,0.0,0.0,0.0,0.0,0.0,0.0,0.0,0.0,0.0,0.0,0.0,0.0,0.0,0.0,0.0,-2.3758,-2.4364,-2.4626,0.0,0.0,0.0,0.0,0.0,0.0,0.0,0.0,0.0,-2.7583,-2.8585,-2.9458,0.0,0.0,-3.0468,-3.0377,-2.9785,-2.9343,-2.9307,-2.9265,0.0,-2.9096,-2.8952,-2.8779,-2.8625,-2.8424,-2.825,-2.825,-2.8161,-2.8188,-2.8589,-2.8615,-2.858,-2.8637,-2.8772,-2.8858,-2.8905,-2.913,-2.9326,-2.9336,-2.9335,-2.941,-1.883,-1.8672,-1.997,-2.0416,-2.0382,-2.0872,-2.0721,-2.0163,-2.0431,-2.0141,-1.9434,-1.8774,-1.8351,-1.8123,-1.8086,0.0,0.0,0.0,-1.8354,-1.7454,-1.7749,-1.7647,-1.7291,-1.7874,-1.848,-1.903,-1.9888,-2.0377,-2.0582,-2.1031,-2.0667,-1.9482,0.0,0.0,-1.8217,-1.8395,-1.7773,-1.6442,-1.5983,-1.5002,-1.3563,-1.3511,-1.4046,-1.5168,-1.7054,-1.8908,-2.0737,-2.2891,-2.4359,-2.5074,-2.4918,-2.4462,0.0,0.0,0.0,0.0,0.0,0.0,0.0,0.0,0.0,0.0,0.0,-1.9531,-1.9575,0.0,0.0,0.0,-2.2309,-2.3095,-2.449,-2.4671,0.0,0.0,0.0,0.0,0.0,0.0,0.0,-2.6726,-2.7286,-2.794,-2.8819,-2.987,-3.0637,-3.0786,-3.0784,-3.0744,-3.0698,0.0,-2.9322,-2.9294,-2.9262,-2.9197,-2.9044,-2.8893,-2.8712,-2.8489,-2.8291,-2.8154,-2.8126,-2.8219,-2.8322,-2.8432,-2.8587,-2.881,-2.9041,-2.9278,-2.95,-2.9607,-2.9636,-2.9655,-2.9673,-2.9701,-2.9701,-1.7908,-1.7584,-1.8994,-1.9772,-2.0088,-2.0394,-2.035,-2.0059,-2.0377,-2.0072,-1.9301,-1.8802,-1.8255,-1.7751,-1.8114,0.0,-1.8503,-1.8701,-1.8324,-1.749,-1.7927,-1.7986,-1.7755,-1.8635,-1.9367,-2.004,-2.0853,-2.1418,-2.1791,-2.2166,-2.1935,-2.1237,-2.0264,-1.9354,-1.8554,-1.8018,-1.6954,-1.5314,-1.4811,-1.3986,-1.2836,-1.3329,-1.4387,-1.6051,-1.8378,-2.0727,-2.3022,-2.5178,-2.6539,-2.6984,-2.7471,-2.6759,-2.4718,0.0,0.0,0.0,0.0,0.0,0.0,0.0,0.0,0.0,0.0,0.0,0.0,0.0,0.0,0.0,-2.292,0.0,-2.4722,-2.4805,0.0,0.0,0.0,-2.6144,-2.6916,-2.7073,-2.7446,-2.8305,0.0,0.0,-2.9598,-3.1058,-3.1725,-3.1,-3.0847,-3.0769,-3.0698,-2.9951,-2.9361,-2.9294,-2.9291,-2.9186,-2.8964,-2.8834,-2.8637,-2.8318,-2.8154,-2.8099,-2.8039,-2.816,-2.8255,-2.8237,-2.8393,-2.8619,-2.8838,-2.9048,-2.9275,-2.9569,-2.9617,-2.9607,-2.9664,-2.9701,-2.9701,-1.773,-1.7929,-1.8537,-1.8881,-1.9046,-1.9736,-1.981,-1.943,-1.9607,-1.9382,-1.8857,-1.8466,-1.8137,-1.788,-1.8208,-1.8397,-1.8426,-1.8636,-1.8471,-1.805,-1.8289,-1.8539,-1.8873,-1.9766,-2.0742,-2.1785,-2.275,-2.3305,-2.3447,-2.3864,-2.3562,-2.2553,-2.1693,-2.0482,-1.8986,-1.7987,-1.6777,-1.5318,-1.4536,-1.3704,-1.2867,-1.3828,-1.5311,-1.7369,-2.0051,-2.2526,-2.4737,-2.6573,-2.7872,-2.8493,-2.8351,-2.8014,-2.7498,-2.5558,0.0,0.0,0.0,0.0,0.0,0.0,0.0,0.0,0.0,-2.1115,-2.1152,0.0,-2.21,0.0,-2.4342,-2.5361,-2.5521,-2.617,0.0,0.0,-2.6807,-2.6926,-2.7124,-2.717,-2.7496,-2.8385,-2.8434,-2.8753,-2.9615,-3.104,-3.1939,-3.1725,-3.1603,-3.1325,-3.0737,-2.9866,-2.9315,-2.9283,-2.9218,-2.9119,-2.8975,-2.8749,-2.8523,-2.8384,-2.825,-2.8168,-2.8154,-2.8196,-2.8223,-2.8196,-2.825,-2.838,-2.8632,-2.8827,-2.9037,-2.9278,-2.9423,-2.9531,-2.9607,-2.9655,-2.9701,-1.6975,-1.7295,-1.8008,-1.8465,-1.8865,-1.9597,-1.9825,-1.9746,-1.9799,-1.9568,-1.9127,-1.8592,-1.8312,-1.8334,-1.8505,-1.8596,-1.8698,-1.9058,-1.9074,-1.8859,-1.9457,-1.9909,-2.0317,-2.1358,-2.2399,-2.3374,-2.4297,-2.4911,-2.5206,-2.5619,-2.5348,-2.4395,-2.3432,-2.1877,-1.973,-1.7981,-1.6331,-1.4837,-1.3837,-1.3351,-1.3463,-1.477,-1.662,-1.8967,-2.1583,-2.3985,-2.6094,-2.7665,-2.8795,-2.9411,-2.9303,-2.9041,-2.8604,-2.6827,-2.5343,0.0,0.0,0.0,0.0,0.0,0.0,0.0,0.0,0.0,0.0,0.0,-2.3269,-2.4222,-2.5264,-2.5997,-2.6352,-2.6889,-2.7327,-2.763,-2.7703,-2.7889,-2.8275,-2.8312,-2.849,-2.8968,-2.9006,-2.9279,-3.0096,-3.1254,-3.1974,-3.1971,-3.1875,-3.1645,-3.1125,-3.0145,-2.9344,-2.9344,-2.9229,-2.9096,-2.8929,-2.8662,-2.8445,-2.8411,-2.8291,-2.8196,-2.8196,-2.8196,-2.8196,-2.8196,-2.8196,-2.8264,-2.8479,-2.8644,-2.8846,-2.9044,-2.9225,-2.9392,-2.9569,-2.9626,-2.9655,-1.5974,-1.635,-1.7442,-1.8371,-1.9098,-1.9671,-2.0118,-2.0495,-2.0496,-2.022,-1.9767,-1.9047,-1.8873,-1.9017,-1.9055,-1.9135,-1.929,-1.9876,-2.0076,-2.0034,-2.1055,-2.1759,-2.2105,-2.3248,-2.4218,-2.5048,-2.583,-2.6464,-2.6954,-2.7317,-2.7057,-2.6257,-2.5009,-2.3093,-2.0491,-1.7973,-1.5838,-1.4146,-1.3188,-1.3286,-1.4483,-1.6089,-1.8172,-2.0716,-2.3083,-2.5253,-2.7201,-2.8503,-2.9429,-2.9916,-3.0133,-2.9855,-2.9048,-2.812,-2.6794,0.0,-2.4032,0.0,0.0,0.0,0.0,0.0,0.0,0.0,0.0,-2.387,-2.4792,-2.5746,-2.5985,-2.641,-2.7183,-2.7414,-2.7796,-2.8472,-2.8575,-2.8884,-2.9598,-2.9701,-2.9692,-2.9692,-2.9673,-2.9955,-3.0673,-3.1483,-3.1982,-3.2076,-3.192,-3.1775,-3.1645,-3.04,-2.9396,-2.9388,-2.9272,-2.9067,-2.8846,-2.8574,-2.8411,-2.8398,-2.8291,-2.8196,-2.8196,-2.8196,-2.8196,-2.8196,-2.8196,-2.8264,-2.8365,-2.8505,-2.8644,-2.887,-2.9048,-2.9275,-2.951,-2.9588,-2.9617,-1.5267,-1.5974,-1.6925,-1.7944,-1.8911,-1.9594,-2.0313,-2.0965,-2.1031,-2.0814,-2.0426,-2.0273,-2.0153,-2.0122,-2.0387,-2.0565,-2.0734,-2.1284,-2.1687,-2.1952,-2.2685,-2.3551,-2.4543,-2.5363,-2.6308,-2.734,-2.8054,-2.8376,-2.8308,-2.8714,-2.8156,-2.6676,-2.5138,-2.3063,-2.0435,0.0,0.0,0.0,-1.381,-1.4574,-1.5971,-1.7869,-2.0116,-2.2658,-2.4518,0.0,-2.8148,-2.917,-2.9837,-3.019,-3.0365,0.0,0.0,0.0,0.0,0.0,0.0,0.0,0.0,0.0,0.0,0.0,-2.6108,-2.5435,-2.4136,-2.481,-2.568,-2.6436,-2.7221,-2.7754,-2.796,-2.8746,-2.9288,-2.9439,-2.9483,-2.9594,-2.9699,-2.969,-2.9682,-2.9626,-2.9636,-2.9897,-3.0623,-3.1411,-3.2151,-3.2642,-3.2244,-3.1831,-3.1794,-3.04,-2.9444,-2.9368,-2.9178,-2.8987,-2.8822,-2.8592,-2.8424,-2.838,-2.8291,-2.8213,-2.8196,-2.8196,-2.8196,-2.8196,-2.8196,-2.8219,-2.8304,-2.8427,-2.8569,-2.8773,-2.8994,-2.9178,-2.9401,-2.9521,-2.9617,-1.451,0.0,-1.6429,-1.7535,0.0,-1.9485,-2.0334,-2.1123,-2.1242,-2.1178,-2.1008,-2.1019,-2.0944,-2.0901,-2.1348,-2.1569,-2.1663,-2.2099,-2.2586,-2.3067,-2.3751,-2.4688,-2.5898,-2.6769,-2.7709,-2.8732,-2.9248,-2.9534,-2.9594,-2.9736,-2.9113,-2.7774,-2.6025,-2.3688,-2.0807,-1.7154,-1.4647,-1.3426,-1.3884,-1.5097,-1.7042,-1.8917,-2.1205,-2.3844,-2.5385,0.0,0.0,0.0,0.0,0.0,0.0,0.0,0.0,0.0,0.0,-2.8635,-2.7641,-2.6989,-2.6811,-2.675,-2.6767,-2.6759,-2.6729,-2.634,-2.5492,-2.5871,-2.6482,-2.7278,-2.7813,-2.8283,-2.8751,-2.9269,-2.9598,-2.9645,-2.9692,-2.9701,-2.9682,-2.9691,-2.9673,-2.9617,-2.9598,-2.9868,-3.059,-3.1398,-3.1998,-3.2385,-3.2102,-3.1645,-3.1199,-3.0177,-2.9405,-2.9304,-2.9167,-2.8998,-2.8822,-2.86,-2.8437,-2.838,-2.8291,-2.8209,-2.8196,-2.8196,-2.8196,-2.8196,-2.8196,-2.8223,-2.83,-2.8393,-2.851,-2.8712,-2.8905,-2.9112,-2.9301,-2.9453,-2.9569,-1.3818,-1.4681,-1.593,-1.7113,-1.8206,-1.9276,-2.0258,-2.1135,0.0,0.0,0.0,-2.1388,-2.1388,-2.1463,-2.1894,-2.2123,-2.2197,-2.2506,-2.2957,-2.3577,-2.4284,-2.5329,-2.6593,-2.756,-2.8519,-2.9425,-2.976,-3.0081,-3.0363,-3.0262,-2.9657,-2.8553,-2.6711,-2.4,-2.0358,-1.5956,-1.3534,-1.3237,-1.3919,-1.5476,-1.7809,-1.9646,-2.1903,-2.4637,-2.5931,-2.7302,-2.879,-2.9533,-3.0094,-3.0495,-3.0579,-3.0582,-3.0428,-2.9702,-2.9198,-2.8956,-2.8165,-2.7585,-2.7382,-2.7293,-2.7202,-2.7106,-2.7033,-2.6948,-2.6903,-2.6888,-2.723,-2.8081,-2.8217,-2.8557,-2.9287,-2.9433,-2.9492,-2.956,-2.9598,-2.9626,-2.9701,-2.9701,-2.9664,-2.9626,-2.9588,-2.9848,-3.0586,-3.1216,-3.1727,-3.1768,-3.1663,-3.1292,-3.0511,-2.9824,-2.9365,-2.924,-2.9127,-2.9026,-2.8834,-2.8656,-2.8502,-2.8406,-2.8286,-2.8209,-2.8196,-2.8196,-2.8196,-2.8196,-2.8196,-2.8237,-2.8304,-2.8367,-2.8484,-2.8657,-2.887,-2.9078,-2.9259,-2.9385,-2.9531,-1.3361,-1.4446,-1.5578,-1.6733,-1.7833,-1.89,-2.0053,-2.119,-2.1632,-2.1663,-2.1388,-2.1388,-2.1388,-2.1431,-2.1651,-2.1819,-2.1956,-2.2297,-2.2763,-2.3374,-2.4084,-2.5135,-2.6448,-2.7329,-2.824,-2.912,-2.9483,-2.9744,-2.9859,-2.975,-2.9102,-2.7875,-2.6115,-2.248,-1.7312,-1.4565,-1.3092,-1.2724,-1.4356,-1.6168,-1.8124,-2.0239,-2.251,-2.4889,-2.6054,-2.7377,-2.9,-2.9599,-3.0105,-3.0568,-3.065,-3.0678,-3.0643,-3.0467,-3.028,-3.0096,-2.977,-2.9477,-2.9147,-2.9015,-2.8835,-2.8615,-2.8522,-2.826,-2.7703,-2.7596,-2.7903,-2.8659,-2.8789,-2.896,-2.9211,-2.931,-2.9384,-2.9492,-2.9578,-2.9626,-2.9673,-2.9701,-2.9655,-2.954,-2.9502,-2.979,-3.0405,-3.0719,-3.108,-3.1478,-3.1106,-3.0493,-2.9842,-2.9481,-2.9355,-2.9222,-2.9138,-2.9026,-2.8858,-2.8687,-2.8536,-2.8424,-2.834,-2.8277,-2.8209,-2.8196,-2.8196,-2.8196,-2.8196,-2.8223,-2.8286,-2.8388,-2.8531,-2.87,-2.8917,-2.9134,-2.9291,-2.9414,-2.955,-1.3032,-1.4274,-1.5365,-1.649,-1.7638,-1.9054,-2.0118,-2.0946,-2.1233,-2.1368,-2.1388,-2.1388,-2.1388,-2.142,-2.1608,-2.1694,-2.162,-2.1683,-2.1916,-2.2348,-2.2932,-2.3822,-2.4998,-2.5977,-2.6945,-2.7875,-2.8316,-2.8639,-2.8903,-2.8631,-2.8018,-2.6858,-2.3894,-2.0137,-1.6138,-1.4124,-1.2945,-1.2482,-1.4112,-1.6128,-1.8463,-2.0362,-2.2643,-2.5339,-2.6213,-2.7323,-2.8883,-2.955,-3.0117,-3.0525,-3.0675,-3.0756,-3.0753,-3.0643,-3.0481,-3.0251,-3.0011,-2.9713,-2.9373,-2.9075,-2.8839,-2.8639,-2.86,-2.8473,-2.8154,-2.8197,-2.8402,-2.8809,-2.8929,-2.904,-2.9134,-2.9243,-2.937,-2.9482,-2.9531,-2.9579,-2.9673,-2.9701,-2.9655,-2.9588,-2.955,-2.966,-2.9913,-3.035,-3.0514,-3.0541,-3.0132,-2.9797,-2.9463,-2.9388,-2.9376,-2.9262,-2.9178,-2.9048,-2.8917,-2.8743,-2.8605,-2.851,-2.8393,-2.83,-2.8264,-2.8223,-2.8196,-2.8196,-2.8196,-2.8237,-2.8345,-2.8445,-2.8587,-2.8798,-2.8998,-2.92,-2.9341,-2.9482,-2.9626,-1.2886,-1.4201,-1.5294,-1.6515,-1.7818,-1.9231,-2.0107,-2.0561,-2.0722,-2.0967,-2.1242,-2.1336,-2.1336,-2.1305,-2.14,-2.1305,-2.104,-2.0762,-2.0728,-2.0894,-2.1233,-2.1958,-2.2989,-2.4074,-2.5122,-2.6103,-2.6748,-2.721,-2.745,-2.7164,-2.6428,-2.5067,-2.1488,-1.8231,-1.5512,-1.3881,-1.2806,-1.2372,-1.3687,-1.5757,-1.8445,-2.0264,-2.2549,-2.5115,-2.6183,-2.728,-2.8581,-2.9416,-3.0023,-3.0443,-3.0661,-3.0796,-3.0797,-3.0657,-3.0453,-3.0167,-2.9896,-2.9505,-2.9027,-2.8682,-2.8422,-2.8322,-2.8327,-2.8345,-2.8371,-2.8492,-2.8626,-2.8749,-2.8858,-2.8964,-2.9067,-2.9197,-2.9336,-2.9443,-2.9492,-2.955,-2.9655,-2.9692,-2.9683,-2.9607,-2.9598,-2.955,-2.9583,-3.0,-3.0139,-2.9613,-2.9388,-2.9388,-2.9388,-2.9388,-2.9376,-2.9334,-2.9222,-2.9123,-2.9028,-2.8852,-2.8687,-2.8625,-2.8466,-2.838,-2.8313,-2.8232,-2.8196,-2.8196,-2.8196,-2.825,-2.8371,-2.8471,-2.8607,-2.8827,-2.9067,-2.9265,-2.9431,-2.9569,-2.9701,-1.2996,-1.4201,-1.548,-1.7044,-1.8674,-1.9341,-1.9824,-2.0172,-2.0356,-2.0572,-2.0786,-2.1063,-2.1106,-2.0924,-2.0764,-2.0431,-1.9933,-1.941,-1.9092,-1.8938,-1.8942,-1.9468,-2.0493,-2.1599,-2.2719,-2.3809,-2.4749,-2.5259,-2.545,-2.5301,-2.4182,-2.2134,-1.9835,-1.7533,-1.5238,-1.3506,-1.2452,-1.2077,-1.3361,-1.5202,-1.7606,-2.0014,-2.2204,-2.4118,-2.5883,-2.7246,-2.8243,-2.9156,-2.9869,-3.0363,-3.0605,-3.0738,-3.0781,-3.0605,-3.0369,-3.003,-2.9696,-2.9187,-2.8384,-2.8147,-2.8041,-2.8039,-2.8081,-2.8154,-2.8209,-2.8237,-2.834,-2.8574,-2.8676,-2.8809,-2.9005,-2.9141,-2.9254,-2.9314,-2.9424,-2.9522,-2.9589,-2.9673,-2.9664,-2.9607,-2.9617,-2.956,-2.9531,-2.9642,-2.9612,-2.9429,-2.938,-2.9388,-2.9388,-2.9388,-2.9388,-2.9386,-2.9357,-2.9262,-2.9085,-2.8975,-2.8846,-2.8662,-2.8587,-2.8497,-2.8367,-2.8259,-2.8196,-2.8237,-2.8209,-2.8264,-2.838,-2.8497,-2.8662,-2.8851,-2.91,-2.9347,-2.953,-2.9636,-2.9701,-1.3244,-1.4502,-1.5675,-1.7182,-1.8731,-1.9241,-1.9693,-2.0096,-2.0204,-2.0324,-2.0529,-2.0669,-2.069,-2.0593,-2.0194,-1.9649,-1.9,-1.8244,-1.759,-1.7126,-1.7064,-1.7368,-1.8028,-1.91,-2.0227,-2.1353,-2.2328,-2.2993,-2.3301,-2.309,-2.2098,-2.0488,-1.8591,-1.6571,-1.4502,-1.2967,-1.212,-1.1892,-1.3259,-1.5155,-1.7477,-1.9923,-2.2236,-2.4363,-2.5664,-2.69,-2.8156,-2.8851,-2.9493,-3.0122,-3.0469,-3.0659,-3.0741,-3.0541,-3.031,-2.9925,-2.9176,-2.8481,-2.7869,-2.776,-2.7686,-2.7689,-2.7836,-2.7968,-2.8085,-2.8174,-2.834,-2.8471,-2.8644,-2.8822,-2.894,-2.9089,-2.9225,-2.9293,-2.9414,-2.9531,-2.9598,-2.9655,-2.9682,-2.9664,-2.9701,-2.9701,-2.9617,-2.9532,-2.9472,-2.9412,-2.939,-2.9388,-2.9388,-2.9388,-2.9388,-2.9388,-2.9388,-2.9355,-2.9204,-2.9062,-2.8959,-2.8834,-2.8687,-2.8549,-2.8497,-2.8335,-2.8255,-2.83,-2.8286,-2.8327,-2.8445,-2.8574,-2.8724,-2.8899,-2.9149,-2.9411,-2.9569,-2.9664,-2.9701,-1.3571,-1.478,-1.6053,-1.7423,-1.8707,-1.9108,-1.9473,-1.9846,-1.9944,-2.0064,-2.0194,-2.0249,-2.0204,-2.0018,-1.9603,-1.8921,-1.8061,-1.7104,-1.6228,-1.5517,-1.5305,-1.5386,-1.5808,-1.6752,-1.7846,-1.8977,-1.9932,-2.0722,-2.13,-2.0977,-2.0148,-1.8897,-1.7309,-1.5555,-1.3765,-1.2345,-1.1663,-1.1737,-1.2997,-1.4841,-1.7171,-1.9601,-2.2031,-2.4366,-2.5349,-2.6442,-2.7819,-2.8354,-2.8988,-2.9783,-3.0292,-3.0593,-3.0697,-3.0494,-3.0145,-2.9621,-2.8658,-2.7911,-2.7507,-2.7417,-2.7402,-2.7481,-2.7659,-2.7832,-2.8025,-2.8201,-2.8335,-2.8445,-2.8632,-2.8791,-2.8881,-2.9033,-2.916,-2.9259,-2.9373,-2.9472,-2.956,-2.9636,-2.969,-2.9708,-2.9745,-2.9771,-2.9708,-2.9608,-2.954,-2.9461,-2.9411,-2.9388,-2.9388,-2.9388,-2.9388,-2.9388,-2.9388,-2.9357,-2.9312,-2.9204,-2.9104,-2.8982,-2.881,-2.8712,-2.8632,-2.8461,-2.8357,-2.8401,-2.837,-2.8383,-2.8466,-2.8594,-2.8743,-2.8934,-2.9171,-2.9392,-2.9501,-2.9607,-2.9683,-1.4042,-1.5081,-1.6673,-1.775,-1.8539,-1.8908,-1.9175,-1.9351,-1.956,-1.9626,-1.9701,-1.9902,-1.9703,-1.9178,-1.8941,-1.8216,-1.7132,-1.6114,-1.5095,-1.4168,-1.3659,-1.3521,-1.3882,-1.4649,-1.5641,-1.6853,-1.7959,-1.879,-1.942,-1.9123,-1.8345,-1.7195,-1.5913,-1.447,-1.296,-1.1583,-1.1037,-1.144,-1.2368,-1.405,-1.651,-1.8958,-2.1336,-2.3511,-2.4804,-2.5843,-2.6819,-2.7552,-2.839,-2.9366,-3.0045,-3.0494,-3.0667,-3.0434,-2.9891,-2.9036,-2.8268,-2.7657,-2.7291,-2.7166,-2.7198,-2.7386,-2.7582,-2.7821,-2.8053,-2.8228,-2.8375,-2.8497,-2.8614,-2.8743,-2.8822,-2.894,-2.9085,-2.92,-2.927,-2.9355,-2.9492,-2.9626,-2.9692,-2.9699,-2.9753,-2.978,-2.9726,-2.9701,-2.9617,-2.9531,-2.9443,-2.9382,-2.9388,-2.9388,-2.9388,-2.9388,-2.9378,-2.9386,-2.9323,-2.9269,-2.9175,-2.9067,-2.8987,-2.8912,-2.8761,-2.8632,-2.8569,-2.8518,-2.8518,-2.8518,-2.8518,-2.8594,-2.8743,-2.8934,-2.9138,-2.932,-2.9401,-2.9511,-2.9607,-1.4939,-1.642,-1.726,-1.7886,-1.8381,-1.864,-1.8808,-1.9006,-1.9362,-1.9554,-1.9569,-1.9796,-1.9473,-1.8771,-1.814,-1.7488,-1.6648,-1.5658,-1.46,-1.3658,-1.3135,-1.311,-1.3404,-1.4077,-1.4807,-1.5635,-1.6625,-1.7425,-1.7988,-1.7755,-1.712,-1.6184,-1.4996,-1.3643,-1.2191,-1.0987,-1.0475,-1.0738,-1.1712,-1.3418,-1.5739,-1.8067,-2.0176,-2.2102,-2.3525,-2.4785,-2.5931,-2.6585,-2.7503,-2.8722,-2.9697,-3.0351,-3.0601,-3.0185,-2.9611,-2.8866,-2.8138,-2.7537,-2.7152,-2.7039,-2.7104,-2.7277,-2.7537,-2.7803,-2.8067,-2.8259,-2.8414,-2.8531,-2.8612,-2.87,-2.8846,-2.894,-2.9062,-2.9178,-2.9259,-2.9345,-2.9474,-2.9598,-2.9718,-2.9763,-2.9823,-2.9847,-2.9823,-2.9744,-2.9654,-2.9569,-2.9463,-2.9402,-2.9399,-2.9388,-2.9388,-2.9388,-2.9388,-2.9378,-2.9357,-2.9323,-2.9251,-2.9197,-2.9119,-2.904,-2.8905,-2.8785,-2.8712,-2.8637,-2.8637,-2.8587,-2.8531,-2.8543,-2.8712,-2.8815,-2.9037,-2.9171,-2.9265,-2.939,-2.9521,-1.6049,-1.7346,-1.7932,-1.8348,-1.8706,-1.8819,-1.8947,-1.914,-1.9469,-1.9565,-1.955,-1.967,-1.9251,-1.8415,-1.769,-1.681,-1.592,-1.5086,-1.4123,-1.314,-1.2751,-1.2724,-1.3048,-1.3548,-1.4202,-1.5045,-1.5966,-1.6634,-1.6901,-1.6638,-1.6035,-1.5215,-1.4127,-1.2894,-1.1539,-1.0432,-0.9916,-1.018,-1.1056,-1.2706,-1.4904,-1.7129,-1.904,-2.0599,-2.1838,-2.3163,-2.4732,-2.5382,-2.6405,-2.7839,-2.9143,-3.0033,-3.0427,-3.0019,-2.9443,-2.8793,-2.8085,-2.7491,-2.7088,-2.6975,-2.7023,-2.7181,-2.7494,-2.7774,-2.8095,-2.8313,-2.8466,-2.86,-2.865,-2.8737,-2.887,-2.8959,-2.904,-2.9167,-2.9246,-2.9332,-2.9482,-2.9598,-2.9709,-2.9798,-2.9866,-2.9907,-2.9891,-2.9806,-2.9719,-2.9617,-2.9492,-2.9441,-2.9399,-2.9388,-2.9388,-2.9388,-2.9388,-2.9388,-2.9378,-2.9347,-2.9323,-2.9251,-2.9218,-2.9141,-2.904,-2.8917,-2.8822,-2.8749,-2.8675,-2.86,-2.8562,-2.8562,-2.8612,-2.87,-2.8846,-2.8991,-2.9123,-2.9265,-2.939,-1.7288,-1.79,-1.8667,-1.9136,-1.9453,-1.9453,-1.962,-1.9705,-1.9775,-1.9687,-1.9528,-1.955,-1.9041,-1.8094,-1.747,-1.6382,-1.4943,-1.4292,-1.3525,-1.2607,-1.2348,-1.2388,-1.2681,-1.3167,-1.3912,-1.4872,-1.5794,-1.6192,-1.6131,-1.5726,-1.5098,-1.423,-1.3251,-1.2181,-1.1068,-1.003,-0.9473,-0.9803,-1.0496,-1.1944,-1.3994,-1.6226,-1.814,-1.9511,-1.992,-2.1027,-2.3212,-2.3867,-2.5029,-2.686,-2.8369,-2.9519,-3.0136,-2.9922,-2.9406,-2.8732,-2.8054,-2.7507,-2.7055,-2.6959,-2.6974,-2.7165,-2.7448,-2.778,-2.8132,-2.8393,-2.8562,-2.8682,-2.8749,-2.8822,-2.8893,-2.8899,-2.8998,-2.9156,-2.9211,-2.9296,-2.9443,-2.956,-2.9683,-2.9861,-2.991,-2.9918,-2.9885,-2.9834,-2.9746,-2.9636,-2.954,-2.9471,-2.9409,-2.9388,-2.9388,-2.9388,-2.9388,-2.9388,-2.9388,-2.9378,-2.9347,-2.9323,-2.9291,-2.9237,-2.9119,-2.8998,-2.89,-2.8816,-2.8668,-2.8592,-2.8471,-2.8471,-2.8453,-2.8543,-2.8694,-2.8822,-2.8929,-2.9067,-2.9262,-1.7768,-1.8429,-1.8827,-1.9151,-1.937,-1.9406,-1.9406,-1.9508,-1.9728,-1.9754,-1.958,-1.9438,-1.8864,-1.7914,-1.6936,-1.5662,-1.428,-1.3522,-1.2875,-1.2445,-1.2368,-1.2445,-1.2737,-1.3444,-1.4416,-1.53,-1.5624,-1.5745,-1.5568,-1.5013,-1.4274,-1.3513,-1.279,-1.1818,-1.0738,-0.9922,-0.9549,-0.9695,-1.0383,-1.184,-1.393,-1.5939,-1.7755,-1.9161,-1.9168,-1.9662,-2.0878,-2.2047,-2.3612,-2.554,-2.7336,-2.8888,-2.9862,-2.9843,-2.9326,-2.8661,-2.8044,-2.7509,-2.7072,-2.6942,-2.6941,-2.7151,-2.7434,-2.7795,-2.8146,-2.8388,-2.8612,-2.8798,-2.8822,-2.8852,-2.8947,-2.891,-2.8998,-2.9167,-2.9218,-2.9246,-2.9423,-2.9569,-2.9719,-2.9876,-2.991,-2.9918,-2.9934,-2.9885,-2.9773,-2.9654,-2.9551,-2.9481,-2.9421,-2.9399,-2.9388,-2.9388,-2.9388,-2.9388,-2.9388,-2.9378,-2.9376,-2.9344,-2.9312,-2.9269,-2.9163,-2.9067,-2.897,-2.8804,-2.8686,-2.8541,-2.8419,-2.8349,-2.8335,-2.8393,-2.851,-2.8612,-2.8682,-2.887,-2.9078,-1.8478,-1.9096,-1.9446,-1.9663,-1.9793,-1.9803,-1.9793,-1.9795,-1.9963,-1.986,-1.9572,-1.9222,-1.8487,-1.7432,-1.6288,-1.5005,-1.3682,-1.2784,-1.2235,-1.1983,-1.2106,-1.2235,-1.2613,-1.3675,-1.4648,-1.544,-1.5606,-1.5559,-1.5386,-1.4762,-1.4074,-1.3393,-1.2696,-1.1839,-1.0755,-1.0143,-0.9841,-1.003,-1.0763,-1.2164,-1.4201,-1.6113,-1.7857,-1.9173,-1.9116,-1.919,-1.9762,-2.0566,-2.2017,-2.4299,-2.6756,-2.8761,-2.9896,-2.9751,-2.9325,-2.8716,-2.8125,-2.7565,-2.7136,-2.6975,-2.6958,-2.7119,-2.7386,-2.7736,-2.8105,-2.8375,-2.865,-2.881,-2.8846,-2.8881,-2.8952,-2.894,-2.8998,-2.9186,-2.9207,-2.9265,-2.9411,-2.9588,-2.971,-2.9806,-2.9857,-2.991,-2.9934,-2.9885,-2.9771,-2.9699,-2.958,-2.9482,-2.9423,-2.939,-2.9388,-2.9388,-2.9388,-2.9388,-2.9388,-2.9396,-2.9386,-2.9355,-2.9323,-2.9259,-2.9163,-2.9089,-2.901,-2.8724,-2.8541,-2.8398,-2.8273,-2.8205,-2.8191,-2.8259,-2.8358,-2.8432,-2.8562,-2.8749,-2.8952,-1.9364,-1.9773,-2.0362,-2.0546,-2.0537,-2.0537,-2.0507,-2.0527,-2.0352,-1.9991,-1.9529,-1.8926,-1.7965,-1.6739,-1.5718,-1.4468,-1.3124,-1.2229,-1.1591,-1.1257,-1.1381,-1.1714,-1.2272,-1.3499,-1.4462,-1.5135,-1.5498,-1.5559,-1.5296,-1.4834,-1.4359,-1.3677,-1.2916,-1.2113,-1.1315,-1.0611,-1.0475,-1.0769,-1.1496,-1.2961,-1.4947,-1.6821,-1.8485,-1.9879,-1.9697,-1.9647,-1.9854,-2.0106,-2.1023,-2.3374,-2.6817,-2.8951,-2.9609,-2.9668,-2.9373,-2.8819,-2.8254,-2.7707,-2.7291,-2.6974,-2.6925,-2.7071,-2.7308,-2.7644,-2.8007,-2.8353,-2.8612,-2.8773,-2.8846,-2.8887,-2.894,-2.8929,-2.8998,-2.9156,-2.9211,-2.9286,-2.9392,-2.9578,-2.9655,-2.9727,-2.9806,-2.9893,-2.9907,-2.9841,-2.978,-2.9699,-2.958,-2.9492,-2.9433,-2.9411,-2.9388,-2.9388,-2.9388,-2.9388,-2.9388,-2.9378,-2.9386,-2.9334,-2.9302,-2.9207,-2.9108,-2.9044,-2.8887,-2.8625,-2.8406,-2.8259,-2.8168,-2.8095,-2.8099,-2.8154,-2.8237,-2.8318,-2.8445,-2.865,-2.8798,-1.9858,-2.0149,-2.0479,-2.0615,-2.0615,-2.0615,-2.0615,-2.0576,-2.0391,-1.994,-1.932,-1.8527,-1.7563,-1.6386,-1.5068,-1.3886,-1.293,-1.18,-1.0987,-1.0559,-1.0429,-1.1198,-1.2149,-1.2997,-1.3889,-1.4704,-1.5043,-1.5195,-1.5264,-1.4793,-1.4318,-1.386,-1.3289,-1.2687,-1.2113,-1.1583,-1.1515,-1.194,-1.2866,-1.4328,-1.6216,-1.8161,-1.9825,-2.11,-2.123,-2.1083,-2.1051,-2.159,-2.2801,-2.4721,-2.6954,-2.8721,-2.9541,-2.966,-2.9448,-2.8938,-2.8379,-2.7837,-2.735,-2.6956,-2.6859,-2.6942,-2.7133,-2.7463,-2.7847,-2.8228,-2.851,-2.8682,-2.8798,-2.8822,-2.8846,-2.8881,-2.8998,-2.9167,-2.9272,-2.9357,-2.9411,-2.9443,-2.9522,-2.9683,-2.9746,-2.9806,-2.9866,-2.9841,-2.9771,-2.9736,-2.9626,-2.9474,-2.9443,-2.9411,-2.9388,-2.9388,-2.9388,-2.9388,-2.9388,-2.9388,-2.9376,-2.9323,-2.9259,-2.9152,-2.904,-2.8912,-2.8657,-2.8375,-2.8237,-2.8069,-2.8049,-2.8011,-2.8056,-2.8056,-2.8126,-2.8209,-2.8353,-2.8536,-2.8662,-2.0225,-2.042,-2.0527,-2.0615,-2.0615,-2.0615,-2.0674,-2.0623,-2.0256,-1.9829,-1.919,-1.8311,-1.7269,-1.6087,-1.4772,-1.3698,-1.2824,-1.1586,-1.0771,-1.0294,-0.9777,-1.0424,-1.1585,-1.2314,-1.313,-1.4132,-1.4593,-1.5015,-1.5224,-1.4966,-1.4714,-1.4453,-1.3938,-1.3456,-1.3003,-1.2668,-1.2725,-1.339,-1.4466,-1.5982,-1.7998,-1.9909,-2.1566,-2.2739,-2.3062,-2.2949,-2.2702,-2.326,-2.4253,-2.558,-2.7148,-2.8606,-2.9514,-2.9713,-2.9588,-2.9163,-2.8615,-2.8062,-2.756,-2.7084,-2.6842,-2.6859,-2.6989,-2.7258,-2.7592,-2.7971,-2.8277,-2.8549,-2.8612,-2.8657,-2.8773,-2.887,-2.9021,-2.9167,-2.9312,-2.9386,-2.939,-2.9392,-2.9472,-2.9598,-2.9682,-2.9736,-2.9822,-2.9798,-2.9754,-2.9728,-2.9598,-2.9512,-2.9453,-2.9411,-2.9378,-2.9368,-2.9347,-2.9336,-2.9326,-2.9326,-2.9294,-2.924,-2.9119,-2.9051,-2.8929,-2.8779,-2.8471,-2.8214,-2.8051,-2.7936,-2.7933,-2.794,-2.794,-2.7968,-2.8025,-2.8168,-2.8331,-2.8471,-2.86,-2.0459,-2.0615,-2.0615,-2.0576,-2.0576,-2.0625,-2.0681,-2.0659,-2.0116,-1.9597,-1.905,-1.8078,-1.687,-1.5732,-1.4548,-1.3598,-1.2753,-1.1602,-1.0737,-1.0003,-0.9362,-0.9471,-1.0593,-1.1413,-1.2314,-1.3294,-1.4188,-1.4873,-1.5245,-1.5384,-1.5438,-1.5255,-1.4823,-1.4342,-1.4011,-1.3734,-1.4078,-1.489,-1.6096,-1.7854,-1.9951,-2.1873,-2.3518,-2.4792,-2.5232,-2.5096,-2.4847,-2.5036,-2.552,-2.5946,-2.7424,-2.8706,-2.9612,-2.9869,-2.9802,-2.9494,-2.8938,-2.8345,-2.783,-2.7321,-2.6892,-2.6775,-2.6858,-2.7053,-2.7319,-2.7651,-2.7971,-2.8255,-2.834,-2.8453,-2.8662,-2.8846,-2.8998,-2.9123,-2.9229,-2.9323,-2.9376,-2.939,-2.9433,-2.9569,-2.9636,-2.971,-2.9746,-2.9736,-2.9691,-2.9673,-2.9569,-2.9472,-2.9412,-2.937,-2.9347,-2.9355,-2.9304,-2.9283,-2.9262,-2.9251,-2.9189,-2.9123,-2.8975,-2.887,-2.8798,-2.8612,-2.8282,-2.8049,-2.7901,-2.7844,-2.785,-2.7839,-2.7836,-2.794,-2.8042,-2.8182,-2.8345,-2.8484,-2.8625,-2.0566,-2.0615,-2.0615,-2.0527,-2.0439,-2.0709,-2.0631,-2.0339,-1.9904,-1.9289,-1.8491,-1.7378,-1.6212,-1.5111,-1.4148,-1.3288,-1.2643,-1.1645,-1.0629,-0.9374,-0.8516,-0.8516,-0.9288,-1.0202,-1.137,-1.2485,-1.3476,-1.444,-1.5228,-1.5733,-1.6008,-1.6052,-1.563,-1.5373,-1.5179,-1.4773,-1.5128,-1.6227,-1.7605,-1.949,-2.1667,-2.3681,-2.5445,-2.6881,-2.7494,-2.7637,-2.7507,-2.7604,-2.7819,-2.8094,-2.8532,-2.9354,-2.9851,-3.012,-3.0068,-2.9779,-2.9289,-2.8689,-2.8076,-2.7482,-2.6924,-2.6691,-2.6674,-2.6742,-2.6923,-2.7288,-2.7577,-2.7847,-2.8035,-2.8214,-2.8492,-2.8724,-2.8881,-2.901,-2.9134,-2.9229,-2.9243,-2.9318,-2.938,-2.945,-2.9501,-2.9569,-2.9617,-2.9636,-2.9608,-2.9598,-2.9521,-2.9412,-2.9351,-2.9318,-2.9315,-2.9283,-2.9251,-2.9218,-2.9189,-2.9186,-2.9141,-2.9067,-2.8905,-2.8798,-2.8724,-2.8492,-2.8201,-2.7965,-2.776,-2.7748,-2.7795,-2.7763,-2.776,-2.7911,-2.8056,-2.8209,-2.834,-2.8497,-2.8637,-2.0527,-2.0459,-2.045,-2.0458,-2.0463,-2.0531,-2.0507,-2.0289,-1.96,-1.8927,-1.8082,-1.6851,-1.5679,-1.4751,-1.3847,-1.3142,-1.2553,-1.1482,-1.0269,-0.9149,-0.8356,-0.8108,-0.8376,-0.9327,-1.0544,-1.1966,-1.3173,-1.4272,-1.5276,-1.5948,-1.6402,-1.6667,-1.6219,-1.599,-1.5929,-1.5539,-1.6,-1.7195,-1.88,-2.0777,-2.3081,-2.5283,-2.7458,-2.9,-2.9746,-2.9886,-3.0027,-2.9999,-3.0183,-3.0429,-3.0628,-3.0509,-3.0274,-3.0385,-3.0331,-3.0061,-2.962,-2.9045,-2.8421,-2.7748,-2.7148,-2.6674,-2.6555,-2.6504,-2.659,-2.6857,-2.7132,-2.7367,-2.7597,-2.7818,-2.8206,-2.8518,-2.8694,-2.8881,-2.9021,-2.913,-2.9145,-2.924,-2.9326,-2.9349,-2.9373,-2.9463,-2.9502,-2.9511,-2.9472,-2.9443,-2.9429,-2.9328,-2.9296,-2.9243,-2.9232,-2.9229,-2.9167,-2.9145,-2.9134,-2.9112,-2.9085,-2.8998,-2.8893,-2.8822,-2.8792,-2.8479,-2.8146,-2.795,-2.7763,-2.773,-2.7748,-2.773,-2.776,-2.7925,-2.8085,-2.8205,-2.8416,-2.867,-2.8778,-2.0489,-2.0313,-2.0332,-2.0413,-2.0485,-2.04,-2.0409,-2.0332,-1.9371,-1.8584,-1.7771,-1.6332,-1.5266,-1.447,-1.3631,-1.3031,-1.2356,-1.1283,-1.0033,-0.9038,-0.8325,-0.8035,-0.8191,-0.8934,-1.0019,-1.1537,-1.296,-1.4188,-1.5235,-1.6057,-1.6607,-1.6936,-1.6596,-1.6382,-1.6305,-1.609,-1.6464,-1.775,-1.9435,-2.1597,-2.4091,-2.6407,-2.879,-3.1012,-3.1684,-3.1783,-3.1973,-3.204,-3.2175,-3.2608,-3.2908,-3.227,-3.1415,-3.0975,-3.0882,-3.0737,-3.0458,-2.9956,-2.92,-2.8401,-2.7669,-2.6908,-2.6487,-2.6314,-2.6349,-2.6487,-2.6691,-2.694,-2.7164,-2.7459,-2.7901,-2.8251,-2.8518,-2.8712,-2.887,-2.8964,-2.9033,-2.91,-2.9149,-2.9278,-2.9299,-2.9341,-2.9382,-2.9401,-2.9332,-2.9301,-2.9286,-2.9269,-2.9207,-2.9248,-2.9263,-2.945,-2.9504,-2.986,-2.9915,-2.9232,-2.9187,-2.9379,-2.9204,-2.9065,-2.9077,-2.9217,-2.8971,-2.8071,-2.7806,-2.783,-2.7801,-2.7716,-2.7789,-2.7954,-2.8308,-2.8675,-2.8828,-2.8915,-2.9028,-2.0489,-2.0293,-2.049,-2.0357,-2.0158,-2.0683,-2.047,-1.9814,-1.9134,-1.828,-1.7264,-1.5852,-1.4771,-1.4034,-1.3457,-1.2791,-1.2085,-1.1101,-1.0092,-0.9112,-0.8356,-0.7892,-0.8055,-0.8632,-0.9632,-1.0977,-1.2534,-1.3984,-1.5075,-1.594,-1.6648,-1.7073,-1.6782,-1.6585,-1.6572,-1.6497,-1.6742,-1.7988,-1.9673,-2.1866,-2.4374,-2.7091,-2.9657,-3.2319,-3.3063,-3.3345,-3.3365,-3.3532,-3.3531,-3.3145,-3.3204,-3.3131,-3.2965,-3.2901,-3.2652,-3.2175,-3.1973,-3.1371,-3.0396,-2.961,-2.8499,-2.7436,-2.6775,-2.6365,-2.626,-2.6276,-2.6433,-2.6691,-2.7041,-2.7374,-2.7642,-2.822,-2.8398,-2.8577,-2.8753,-2.8864,-2.8907,-2.8912,-2.8975,-2.9127,-2.9189,-2.9222,-2.9243,-2.9235,-2.9203,-2.9152,-2.9156,-2.913,-2.9096,-2.9216,-2.9384,-2.9648,-2.9936,-3.0423,-3.0875,-2.991,-2.9439,-2.9947,-2.9905,-2.96,-2.9733,-3.0206,-2.9924,-2.9357,-2.855,-2.8191,-2.8074,-2.7976,-2.8121,-2.8502,-2.8856,-2.9221,-2.9512,-2.9777,-2.974,-2.0458,-2.0252,-2.0258,-2.0214,-2.0195,-2.0313,-2.0174,-1.9676,-1.8678,-1.7738,-1.6709,-1.5384,-1.434,-1.3673,-1.3147,-1.2565,-1.1935,-1.1249,-1.0292,-0.9253,-0.8479,-0.7989,-0.8015,-0.8592,-0.9458,-1.0631,-1.2106,-1.3519,-1.4741,-1.5748,-1.6443,-1.6815,-1.6626,-1.6509,-1.6493,-1.6218,-1.6745,-1.793,-1.9576,-2.172,-2.4487,-2.7663,-3.0902,-3.2682,-3.3973,-3.4396,-3.4592,-3.4749,-3.4842,-3.4678,-3.4686,-3.4707,-3.4681,-3.4542,-3.4139,-3.3255,-3.2975,-3.259,-3.1665,-3.0897,-2.9842,-2.8405,-2.7646,-2.6859,-2.6324,-2.6097,-2.6349,-2.6832,-2.7248,-2.7791,-2.845,-2.8827,-2.9213,-2.9372,-2.9296,-2.9176,-2.9194,-2.8966,-2.898,-2.9074,-2.9053,-2.9088,-2.9078,-2.906,-2.9037,-2.9033,-2.901,-2.9023,-2.9025,-2.9271,-2.9552,-3.0037,-3.0405,-3.0904,-3.1362,-3.0856,-3.0149,-3.0534,-3.0692,-3.0386,-3.0389,-3.0853,-3.1225,-3.1156,-3.0239,-2.9168,-2.9022,-2.9185,-2.912,-2.9104,-2.9588,-3.0044,-3.0396,-3.0597,-3.0684,-2.0537,-2.024,-2.0095,-2.0117,-2.0254,-2.0007,-1.9838,-1.9567,-1.8388,-1.7412,-1.6534,-1.5201,-1.4202,-1.363,-1.3098,-1.2565,-1.1975,-1.14,-1.0362,-0.9312,-0.8552,-0.8121,-0.806,-0.846,-0.92,-1.0077,-1.1284,-1.2826,-1.4181,-1.5242,-1.5997,-1.6384,-1.6284,-1.6207,-1.6149,-1.5956,-1.6475,-1.7522,-1.9085,-2.1315,-2.4871,-2.8686,-3.1845,-3.331,-3.4317,-3.4969,-3.5271,-3.5485,-3.5661,-3.5708,-3.5811,-3.5936,-3.5952,-3.591,-3.5238,-3.4098,-3.3715,-3.3378,-3.2808,-3.2258,-3.1214,-2.9688,-2.8866,-2.7861,-2.7049,-2.6809,-2.6728,-2.7328,-2.7792,-2.825,-2.8956,-2.9622,-2.998,-3.0153,-2.993,-2.9727,-2.9791,-2.9649,-2.9334,-2.9289,-2.9089,-2.9028,-2.907,-2.8887,-2.8863,-2.8827,-2.8822,-2.9174,-2.9223,-2.9526,-2.9875,-3.0463,-3.0926,-3.137,-3.1697,-3.1864,-3.1402,-3.1391,-3.1456,-3.1289,-3.1319,-3.1515,-3.1833,-3.2097,-3.1687,-3.0747,-3.0564,-3.0168,-2.9918,-2.9958,-3.0445,-3.0864,-3.1205,-3.1723,-3.2041,-2.08,-2.0442,-2.0352,-2.0271,-2.0149,-2.0176,-1.9968,-1.9479,-1.8458,-1.766,-1.6857,-1.5622,-1.4675,-1.4058,-1.3389,-1.2662,-1.1973,-1.1298,-1.0337,-0.9228,-0.8486,-0.7921,-0.7657,-0.8072,-0.8679,-0.951,-1.0419,-1.1912,-1.336,-1.4391,-1.5325,-1.5857,-1.5763,-1.5732,-1.5922,-1.5744,-1.6168,-1.71,-1.8552,-2.1674,-2.5991,-2.9167,-3.1376,-3.3063,-3.4269,-3.5082,-3.5486,-3.572,-3.5897,-3.5955,-3.597,-3.5995,-3.6001,-3.5923,-3.5883,-3.5641,-3.5427,-3.5067,-3.4105,-3.3492,-3.2552,-3.1097,-3.0136,-2.9328,-2.8382,-2.7791,-2.764,-2.7833,-2.827,-2.8777,-2.9326,-2.9679,-2.9994,-3.0333,-3.051,-3.0539,-3.062,-3.0306,-2.998,-2.9826,-2.9746,-2.9354,-2.9155,-2.8906,-2.8694,-2.8644,-2.8715,-2.9114,-2.9559,-2.9967,-3.0559,-3.1243,-3.1629,-3.2021,-3.2177,-3.2327,-3.2352,-3.2261,-3.2211,-3.2165,-3.2197,-3.2262,-3.2394,-3.2521,-3.22,-3.1719,-3.0972,-3.059,-3.052,-3.0824,-3.1331,-3.1679,-3.1978,-3.2561,-3.3106,-2.0293,-2.0224,-2.0053,-1.9908,-1.9808,-1.9733,-1.9563,-1.9196,-1.8319,-1.7567,-1.6857,-1.5812,-1.4813,-1.4148,-1.3534,-1.291,-1.2221,-1.1441,-1.0382,-0.9211,-0.8348,-0.7694,-0.7439,-0.7669,-0.8197,-0.8899,-0.968,-1.0679,-1.2174,-1.3366,-1.4384,-1.4983,-1.5061,-1.5148,-1.545,-1.5388,-1.5761,-1.6937,-1.9123,-2.2342,-2.5865,-2.8738,-3.1001,-3.2817,-3.4064,-3.4909,-3.5443,-3.5721,-3.5862,-3.5925,-3.5941,-3.5956,-3.5986,-3.5949,-3.5892,-3.5877,-3.583,-3.5546,-3.5081,-3.4663,-3.3614,-3.2441,-3.1338,-3.0314,-2.9172,-2.8505,-2.8408,-2.8721,-2.8995,-2.9473,-3.0114,-3.0691,-3.1046,-3.1264,-3.12,-3.1273,-3.1304,-3.094,-3.0649,-3.0518,-3.0383,-3.0061,-2.9621,-2.9166,-2.9117,-2.9263,-2.9363,-2.9656,-3.0214,-3.079,-3.1479,-3.2274,-3.2545,-3.276,-3.2793,-3.2859,-3.2933,-3.2914,-3.2956,-3.2924,-3.296,-3.3049,-3.2957,-3.2795,-3.2511,-3.1937,-3.1223,-3.131,-3.1536,-3.1861,-3.22,-3.2427,-3.2658,-3.3016,-3.3491,-1.9533,-1.9506,-1.9616,-1.9656,-1.9571,-1.9288,-1.9225,-1.9096,-1.8326,-1.7667,-1.6951,-1.6008,-1.501,-1.4292,-1.3865,-1.3286,-1.2441,-1.1587,-1.0444,-0.9284,-0.8223,-0.752,-0.7214,-0.7316,-0.7665,-0.8233,-0.8767,-0.9685,-1.0674,-1.1746,-1.2766,-1.3922,-1.4172,-1.4382,-1.4659,-1.49,-1.5304,-1.6915,-1.9617,-2.2603,-2.5531,-2.8109,-3.0314,-3.2155,-3.3642,-3.4736,-3.5327,-3.5639,-3.5764,-3.585,-3.59,-3.5931,-3.5952,-3.5939,-3.5885,-3.589,-3.5885,-3.5819,-3.5555,-3.519,-3.4546,-3.3525,-3.2347,-3.1141,-2.9778,-2.9026,-2.8999,-2.9641,-2.9859,-3.0418,-3.1065,-3.1584,-3.1846,-3.1966,-3.2054,-3.2083,-3.2086,-3.1856,-3.1604,-3.1406,-3.1275,-3.1025,-3.0487,-2.9688,-2.9544,-2.9813,-3.0036,-3.0273,-3.084,-3.1517,-3.2072,-3.2751,-3.2807,-3.2948,-3.3021,-3.3144,-3.3301,-3.3393,-3.3452,-3.3397,-3.3259,-3.3141,-3.3019,-3.2852,-3.2692,-3.243,-3.192,-3.2255,-3.2574,-3.2611,-3.2695,-3.2991,-3.3288,-3.3591,-3.3766,-1.8519,-1.8221,-1.9162,-1.9554,-1.9541,-1.9288,-1.9188,-1.9104,-1.8658,-1.8102,-1.7387,-1.6346,-1.5439,-1.4956,-1.4292,-1.3624,-1.2587,-1.1526,-1.031,-0.9171,-0.808,-0.7241,-0.6884,-0.6833,-0.7051,-0.7489,-0.7889,-0.8508,-0.9253,-0.9898,-1.1235,-1.2601,-1.3049,-1.3412,-1.3851,-1.4282,-1.5576,-1.7335,-1.9854,-2.2333,-2.5015,-2.744,-2.9617,-3.1601,-3.3149,-3.4308,-3.5076,-3.538,-3.5631,-3.5756,-3.5851,-3.5884,-3.5917,-3.5913,-3.5886,-3.5892,-3.5883,-3.5819,-3.5651,-3.5445,-3.5035,-3.4198,-3.3081,-3.1864,-3.0789,-3.0642,-3.0647,-3.0519,-3.0613,-3.0931,-3.1432,-3.1838,-3.2161,-3.2401,-3.2524,-3.2739,-3.2814,-3.3002,-3.2718,-3.242,-3.2183,-3.201,-3.1815,-3.1139,-3.0526,-3.074,-3.0977,-3.1228,-3.1596,-3.2179,-3.2485,-3.2878,-3.2862,-3.2963,-3.3055,-3.3162,-3.3286,-3.3378,-3.3437,-3.3345,-3.3217,-3.3119,-3.3044,-3.2884,-3.2722,-3.267,-3.2636,-3.2672,-3.2755,-3.2965,-3.3152,-3.3316,-3.3506,-3.3712,-3.386,-1.7377,-1.7643,-1.8226,-1.8612,-1.8936,-1.8966,-1.8966,-1.892,-1.8612,-1.8094,-1.7387,-1.6298,-1.5635,-1.5201,-1.458,-1.3721,-1.2662,-1.1472,-1.0191,-0.8896,-0.7706,-0.6745,-0.6296,-0.608,-0.6171,-0.6564,-0.6877,-0.7452,-0.8288,-0.8596,-0.9336,-1.0544,-1.158,-1.2444,-1.2991,-1.3988,-1.5637,-1.7433,-1.958,-2.1884,-2.421,-2.6712,-2.8839,-3.0601,-3.2218,-3.3421,-3.4306,-3.4852,-3.5238,-3.5553,-3.5743,-3.5846,-3.5878,-3.5889,-3.5896,-3.5883,-3.584,-3.5734,-3.5574,-3.5358,-3.4944,-3.4044,-3.3087,-3.2266,-3.162,-3.1372,-3.1159,-3.11,-3.1176,-3.1428,-3.156,-3.1929,-3.2249,-3.2573,-3.2902,-3.3237,-3.3505,-3.3742,-3.3907,-3.3597,-3.3341,-3.3131,-3.2935,-3.2684,-3.2107,-3.1704,-3.1939,-3.2166,-3.2455,-3.2637,-3.2854,-3.2963,-3.2948,-3.2979,-3.3088,-3.318,-3.3304,-3.3378,-3.3437,-3.3331,-3.3256,-3.3137,-3.3046,-3.2884,-3.2786,-3.2753,-3.2753,-3.282,-3.2916,-3.306,-3.3256,-3.3473,-3.3652,-3.3842,-3.3934,-1.6192,-1.6735,-1.7101,-1.7721,-1.8334,-1.8558,-1.8596,-1.8558,-1.8465,-1.8001,-1.7232,-1.6393,-1.5825,-1.5391,-1.4627,-1.3715,-1.2587,-1.1293,-0.9854,-0.8411,-0.7053,-0.6017,-0.5444,-0.5144,-0.5146,-0.5544,-0.5944,-0.6476,-0.7272,-0.7536,-0.8197,-0.9026,-0.9859,-1.0837,-1.2213,-1.3771,-1.5418,-1.7237,-1.9169,-2.1383,-2.3656,-2.5764,-2.7869,-2.9463,-3.0953,-3.2183,-3.3195,-3.3915,-3.4566,-3.5035,-3.5398,-3.5705,-3.58,-3.5859,-3.5878,-3.5838,-3.5736,-3.5587,-3.5408,-3.5086,-3.4614,-3.376,-3.3192,-3.2554,-3.2091,-3.1784,-3.1598,-3.1426,-3.1559,-3.1709,-3.1837,-3.2161,-3.2472,-3.2804,-3.3521,-3.3909,-3.4244,-3.4511,-3.4747,-3.4797,-3.4526,-3.4231,-3.3917,-3.3666,-3.313,-3.2654,-3.2642,-3.2766,-3.2865,-3.3011,-3.3016,-3.306,-3.2995,-3.3042,-3.3122,-3.3346,-3.3516,-3.3448,-3.3495,-3.3408,-3.3319,-3.3291,-3.3134,-3.2918,-3.2836,-3.2838,-3.2872,-3.2939,-3.2999,-3.3088,-3.3371,-3.368,-3.3842,-3.3998,-3.4011,-1.4936,-1.5411,-1.598,-1.6897,-1.7893,-1.8087,-1.8087,-1.8032,-1.804,-1.7753,-1.7185,-1.6683,-1.6109,-1.5493,-1.4484,-1.3463,-1.2259,-1.0789,-0.918,-0.7651,-0.6218,-0.517,-0.4467,-0.4127,-0.4072,-0.4389,-0.4788,-0.5364,-0.616,-0.6473,-0.7048,-0.7848,-0.8679,-0.9593,-1.0804,-1.293,-1.5011,-1.6984,-1.8954,-2.1167,-2.3231,-2.5,-2.6818,-2.8195,-2.9534,-3.0745,-3.1667,-3.2647,-3.3352,-3.4118,-3.4783,-3.5203,-3.559,-3.5756,-3.5811,-3.5758,-3.5521,-3.5294,-3.5069,-3.4671,-3.4127,-3.362,-3.3142,-3.2734,-3.2318,-3.209,-3.1966,-3.1801,-3.2067,-3.2212,-3.2336,-3.2595,-3.297,-3.341,-3.4181,-3.4646,-3.498,-3.5293,-3.5528,-3.5668,-3.5536,-3.5295,-3.4945,-3.4549,-3.4046,-3.3658,-3.3455,-3.34,-3.3391,-3.3307,-3.3274,-3.3229,-3.3165,-3.3226,-3.3337,-3.3574,-3.3713,-3.364,-3.3818,-3.4066,-3.3951,-3.3857,-3.3591,-3.3112,-3.3229,-3.3536,-3.3317,-3.3077,-3.3521,-3.3993,-3.3752,-3.3908,-3.4049,-3.4192,-3.426,-1.3887,-1.4338,-1.4943,-1.5534,-1.6143,-1.6857,-1.7192,-1.738,-1.734,-1.7153,-1.6777,-1.6305,-1.554,-1.4723,-1.3848,-1.2732,-1.1346,-0.9964,-0.8358,-0.6658,-0.5256,-0.4283,-0.3526,-0.3019,-0.2956,-0.3358,-0.376,-0.434,-0.5181,-0.5497,-0.6257,-0.7102,-0.8376,-0.9602,-1.1063,-1.2851,-1.4768,-1.6798,-1.89,-2.1039,-2.2884,-2.4489,-2.5838,-2.6898,-2.8047,-2.9014,-2.9901,-3.0845,-3.1835,-3.2865,-3.3631,-3.4491,-3.509,-3.5394,-3.5578,-3.5478,-3.5266,-3.4827,-3.4415,-3.3981,-3.381,-3.3488,-3.3205,-3.2866,-3.2522,-3.2371,-3.2267,-3.2406,-3.2896,-3.3125,-3.3353,-3.4055,-3.4505,-3.4758,-3.5268,-3.5515,-3.5813,-3.6076,-3.6306,-3.6353,-3.6283,-3.6215,-3.5959,-3.5589,-3.5096,-3.4697,-3.4475,-3.396,-3.3811,-3.3633,-3.3528,-3.3452,-3.3404,-3.3462,-3.3643,-3.4428,-3.4714,-3.4674,-3.505,-3.5477,-3.5223,-3.4666,-3.4469,-3.4237,-3.4262,-3.4284,-3.4069,-3.4045,-3.4691,-3.5003,-3.4637,-3.4417,-3.4563,-3.4642,-3.4679,-1.2881,-1.3341,-1.3843,-1.4202,-1.4573,-1.5629,-1.6237,-1.6433,-1.6346,-1.6258,-1.5967,-1.5493,-1.4771,-1.3806,-1.2829,-1.1755,-1.0288,-0.8658,-0.715,-0.5516,-0.412,-0.2959,-0.2167,-0.1768,-0.1749,-0.2105,-0.2598,-0.3224,-0.4071,-0.4607,-0.5677,-0.7051,-0.8588,-1.0024,-1.144,-1.3093,-1.4844,-1.6912,-1.9088,-2.0992,-2.2564,-2.3929,-2.5013,-2.5777,-2.6497,-2.7167,-2.7887,-2.8824,-2.9872,-3.1112,-3.2323,-3.3463,-3.4248,-3.492,-3.5149,-3.5114,-3.4795,-3.4328,-3.3841,-3.3994,-3.3916,-3.3807,-3.3348,-3.3091,-3.2918,-3.2751,-3.3018,-3.3301,-3.3847,-3.4111,-3.4426,-3.5237,-3.5513,-3.573,-3.6105,-3.6337,-3.6633,-3.69,-3.7396,-3.7408,-3.7171,-3.7097,-3.6879,-3.6623,-3.6202,-3.585,-3.551,-3.4963,-3.4471,-3.4333,-3.4282,-3.4272,-3.4323,-3.4507,-3.5055,-3.5869,-3.5992,-3.5761,-3.6086,-3.6493,-3.601,-3.5399,-3.5391,-3.5256,-3.4906,-3.4695,-3.4836,-3.5064,-3.5334,-3.5473,-3.5345,-3.5177,-3.5144,-3.5192,-3.5242,-1.1764,-1.2339,-1.2662,-1.2905,-1.3292,-1.4334,-1.5051,-1.5289,-1.5146,-1.5051,-1.4956,-1.443,-1.3655,-1.2823,-1.1653,-1.0485,-0.9156,-0.7266,-0.5716,-0.4206,-0.2787,-0.1557,-0.0787,-0.0408,-0.0494,-0.0762,-0.1256,-0.2061,-0.2867,-0.4072,-0.5364,-0.7088,-0.8798,-1.0399,-1.1943,-1.363,-1.5369,-1.7374,-1.9298,-2.1064,-2.2629,-2.3507,-2.4355,-2.4906,-2.5226,-2.5432,-2.5952,-2.6612,-2.7697,-2.9041,-3.0538,-3.2038,-3.3241,-3.423,-3.4576,-3.4614,-3.4225,-3.3834,-3.356,-3.3879,-3.415,-3.4004,-3.3635,-3.3544,-3.3606,-3.3521,-3.3771,-3.4356,-3.4958,-3.5098,-3.5378,-3.5726,-3.6055,-3.6419,-3.6855,-3.7155,-3.7476,-3.7912,-3.8524,-3.8558,-3.8194,-3.7928,-3.7469,-3.7188,-3.7259,-3.7168,-3.6906,-3.6749,-3.6232,-3.5608,-3.5571,-3.5563,-3.5628,-3.5809,-3.6394,-3.6997,-3.7119,-3.6822,-3.6882,-3.7128,-3.6597,-3.6322,-3.63,-3.6021,-3.5279,-3.5098,-3.5413,-3.5526,-3.5613,-3.573,-3.6118,-3.6021,-3.5996,-3.5944,-3.5956,-1.0678,-1.1282,-1.1785,-1.1975,-1.2073,-1.2457,-1.313,-1.3992,-1.3992,-1.3794,-1.3355,-1.3022,-1.2242,-1.1121,-1.0186,-0.8954,-0.7515,-0.5972,-0.441,-0.2962,-0.1593,-0.0524,0.0187,0.064,0.0631,0.0269,-0.0269,-0.1076,-0.2195,-0.3492,-0.5494,-0.7397,-0.9008,-1.0783,-1.2614,-1.4504,-1.6152,-1.7825,-1.9631,-2.1211,-2.2494,-2.3391,-2.392,-2.4113,-2.4032,-2.411,-2.4205,-2.4633,-2.5723,-2.7161,-2.8908,-3.0585,-3.2352,-3.3293,-3.3869,-3.3994,-3.376,-3.3524,-3.3306,-3.3842,-3.4351,-3.4502,-3.4433,-3.4649,-3.4724,-3.4689,-3.4707,-3.5346,-3.6111,-3.6446,-3.6463,-3.6653,-3.6931,-3.7249,-3.7596,-3.7778,-3.808,-3.8357,-3.895,-3.8971,-3.8632,-3.8561,-3.8101,-3.8149,-3.8238,-3.8303,-3.8262,-3.8081,-3.7774,-3.7073,-3.6754,-3.6761,-3.6818,-3.6948,-3.7219,-3.7766,-3.7888,-3.7932,-3.7952,-3.7998,-3.7907,-3.7677,-3.7374,-3.6773,-3.5961,-3.5889,-3.614,-3.6183,-3.6075,-3.6827,-3.7225,-3.7001,-3.6846,-3.6801,-3.6889,-0.9776,-1.0342,-1.0752,-1.11,-1.1243,-1.1145,-1.1575,-1.2096,-1.2349,-1.2252,-1.2058,-1.1468,-1.0681,-0.9752,-0.8707,-0.7468,-0.6126,-0.4678,-0.3218,-0.1993,-0.063,0.0287,0.1034,0.1469,0.1442,0.1076,0.0538,-0.0179,-0.1524,-0.3578,-0.5669,-0.7217,-0.9096,-1.1123,-1.3038,-1.5011,-1.6781,-1.8275,-1.9797,-2.1298,-2.2381,-2.3187,-2.3416,-2.3541,-2.3341,-2.3056,-2.2903,-2.3368,-2.4332,-2.574,-2.7507,-2.9431,-3.1288,-3.2611,-3.3386,-3.3564,-3.3822,-3.3728,-3.3761,-3.4694,-3.4967,-3.5272,-3.5701,-3.6112,-3.5845,-3.5614,-3.588,-3.6325,-3.718,-3.7822,-3.7748,-3.771,-3.7906,-3.8119,-3.8269,-3.8362,-3.8554,-3.8725,-3.8892,-3.9021,-3.9036,-3.9059,-3.9036,-3.9115,-3.9064,-3.8869,-3.8753,-3.8678,-3.8492,-3.8091,-3.7874,-3.7848,-3.7937,-3.8039,-3.8292,-3.843,-3.8582,-3.8727,-3.8845,-3.8902,-3.9031,-3.8557,-3.784,-3.7219,-3.6596,-3.6487,-3.6315,-3.6528,-3.663,-3.7281,-3.7667,-3.7525,-3.747,-3.7731,-3.7891,-0.9024,-0.9579,-0.9821,-1.0265,-1.0605,-1.0408,-1.0154,-0.9903,-1.0301,-1.065,-1.0645,-0.9903,-0.911,-0.8269,-0.7223,-0.6126,-0.4878,-0.3527,-0.2318,-0.1106,0.0048,0.1002,0.1556,0.2019,0.1846,0.166,0.1121,0.0179,-0.1299,-0.3264,-0.5314,-0.6864,-0.9222,-1.1252,-1.3093,-1.515,-1.6764,-1.7931,-1.9453,-2.0924,-2.2014,-2.2703,-2.3102,-2.3334,-2.3066,-2.2736,-2.2708,-2.3028,-2.3592,-2.5016,-2.6766,-2.8884,-3.1133,-3.2714,-3.3373,-3.3707,-3.4204,-3.4291,-3.4606,-3.5449,-3.6126,-3.6593,-3.722,-3.7274,-3.688,-3.6451,-3.6647,-3.7039,-3.7807,-3.8018,-3.7943,-3.7942,-3.8103,-3.8224,-3.8303,-3.8399,-3.851,-3.8725,-3.8979,-3.9078,-3.9115,-3.9142,-3.9115,-3.9101,-3.9101,-3.9069,-3.9059,-3.9036,-3.8966,-3.8742,-3.8687,-3.8645,-3.8604,-3.8632,-3.8907,-3.9063,-3.9289,-3.9452,-3.9471,-3.937,-3.9165,-3.87,-3.8163,-3.7377,-3.6588,-3.6381,-3.6262,-3.6444,-3.6612,-3.6915,-3.73,-3.7685,-3.7942,-3.8154,-3.8409,-0.8605,-0.9038,-0.9286,-0.9579,-0.9772,-0.9373,-0.9023,-0.8722,-0.823,-0.8372,-0.8619,-0.8269,-0.7574,-0.6728,-0.5882,-0.4933,-0.3879,-0.2722,-0.1513,-0.0549,0.0486,0.1241,0.1798,0.2017,0.1981,0.1705,0.1122,0.009,-0.1524,-0.331,-0.5134,-0.7034,-0.9174,-1.108,-1.293,-1.4956,-1.6329,-1.7464,-1.8567,-2.0071,-2.1314,-2.2031,-2.2467,-2.2748,-2.2652,-2.2913,-2.311,-2.3758,-2.486,-2.6325,-2.8165,-3.0544,-3.3259,-3.4182,-3.468,-3.487,-3.4942,-3.507,-3.5376,-3.6055,-3.6645,-3.6931,-3.7272,-3.7542,-3.7542,-3.7291,-3.7344,-3.7737,-3.8003,-3.8089,-3.8157,-3.8192,-3.8209,-3.8257,-3.832,-3.8382,-3.846,-3.8752,-3.9031,-3.9101,-3.9142,-3.9142,-3.9115,-3.9101,-3.9101,-3.9101,-3.9082,-3.9087,-3.9129,-3.904,-3.8952,-3.8934,-3.8915,-3.9017,-3.9301,-3.9445,-3.9539,-3.9601,-3.9594,-3.9452,-3.9298,-3.8711,-3.8064,-3.7208,-3.6523,-3.6356,-3.6233,-3.6208,-3.6402,-3.6676,-3.7013,-3.7449,-3.7721,-3.7941,-3.8326,-0.8105,-0.8435,-0.8588,-0.8684,-0.863,-0.823,-0.7882,-0.7434,-0.6889,-0.6783,-0.6933,-0.6833,-0.6434,-0.5634,-0.4937,-0.4133,-0.3226,-0.2118,-0.1261,-0.0349,0.0536,0.1198,0.1689,0.1878,0.1807,0.1525,0.0583,-0.0538,-0.1929,-0.3535,-0.5312,-0.7078,-0.9004,-1.0956,-1.2802,-1.4378,-1.5801,-1.6862,-1.7669,-1.8801,-2.0264,-2.0823,-2.1576,-2.1916,-2.2496,-2.2938,-2.4043,-2.4809,-2.6281,-2.8066,-3.0035,-3.1843,-3.3827,-3.4641,-3.5081,-3.5326,-3.5522,-3.5861,-3.6145,-3.6591,-3.7109,-3.7359,-3.7502,-3.7844,-3.781,-3.7577,-3.7524,-3.7863,-3.7969,-3.8055,-3.8088,-3.814,-3.8192,-3.8242,-3.837,-3.8462,-3.8646,-3.8917,-3.9087,-3.9156,-3.917,-3.9156,-3.9129,-3.9101,-3.9101,-3.9133,-3.9115,-3.9286,-3.9309,-3.9576,-3.9434,-3.9295,-3.9342,-3.9281,-3.9386,-3.9496,-3.9557,-3.9618,-3.9696,-3.9564,-3.9343,-3.8666,-3.7946,-3.7496,-3.6943,-3.6444,-3.6318,-3.6354,-3.631,-3.655,-3.6873,-3.7241,-3.7485,-3.7811,-3.825,-0.7579,-0.7832,-0.7839,-0.7686,-0.7431,-0.7135,-0.6736,-0.6337,-0.6039,-0.5787,-0.5837,-0.6037,-0.5689,-0.514,-0.4537,-0.3682,-0.2825,-0.1917,-0.111,-0.035,0.0534,0.1006,0.1269,0.1468,0.122,0.0673,-0.0179,-0.1076,-0.2108,-0.3803,-0.5492,-0.7082,-0.9004,-1.1047,-1.2559,-1.4132,-1.5677,-1.6578,-1.7319,-1.7722,-1.8563,-1.9398,-2.0379,-2.125,-2.2211,-2.3275,-2.4701,-2.6341,-2.7879,-3.0016,-3.2185,-3.3807,-3.4824,-3.5598,-3.5687,-3.5988,-3.6397,-3.6647,-3.6896,-3.7378,-3.7735,-3.7984,-3.8001,-3.7984,-3.7934,-3.7864,-3.781,-3.7846,-3.7935,-3.8022,-3.8056,-3.8124,-3.8176,-3.8297,-3.8441,-3.8645,-3.8888,-3.9119,-3.9217,-3.9285,-3.9253,-3.9239,-3.9314,-3.9268,-3.9342,-3.9338,-3.9435,-3.9495,-3.9679,-4.0141,-4.0317,-4.0087,-3.995,-3.9845,-3.9595,-3.9546,-3.9587,-3.967,-3.9724,-3.9625,-3.9457,-3.9091,-3.87,-3.8276,-3.7713,-3.737,-3.6887,-3.6757,-3.67,-3.6648,-3.6834,-3.7184,-3.7462,-3.781,-3.8277,-0.7369,-0.7045,-0.7045,-0.6892,-0.6584,-0.6137,-0.5837,-0.5734,-0.5489,-0.5438,-0.5737,-0.6037,-0.5837,-0.4885,-0.4332,-0.363,-0.2875,-0.1917,-0.106,-0.0301,0.0339,0.067,0.0847,0.0823,0.027,-0.0359,-0.1031,-0.1792,-0.2911,-0.4338,-0.5844,-0.7515,-0.9305,-1.1214,-1.293,-1.4448,-1.5805,-1.675,-1.7398,-1.7867,-1.819,-1.8901,-1.9344,-2.0478,-2.19,-2.4003,-2.6146,-2.8388,-3.0448,-3.2619,-3.4527,-3.5832,-3.6408,-3.6738,-3.6863,-3.6844,-3.7255,-3.738,-3.763,-3.7789,-3.802,-3.8123,-3.8088,-3.8003,-3.7934,-3.781,-3.7793,-3.7828,-3.7918,-3.8043,-3.8095,-3.8146,-3.8216,-3.8477,-3.866,-3.8961,-3.925,-3.9449,-3.9586,-3.96,-3.9568,-3.9742,-4.0048,-4.0145,-4.0424,-4.0508,-4.0803,-4.0864,-4.0875,-4.1063,-4.1191,-4.0929,-4.0647,-4.0077,-3.9683,-3.9619,-3.9647,-3.9728,-3.983,-3.9844,-3.9858,-3.983,-3.9517,-3.9679,-3.9236,-3.8773,-3.8222,-3.753,-3.7158,-3.7105,-3.7016,-3.7182,-3.7495,-3.8075,-3.8743]},{"header":{"parameterUnit":"m.s-1","parameterCategory":1,"la1":31.0,"la2":29.5877,"lo1":-88.7671,"lo2":-86.6584,"dy":0.0162,"dx":0.0185,"nx":115,"ny":88,"refTime":"2026-05-24T00:00:00:Z","depth":0,"parameterNumber":3,"parameterNumberName":"V-component_of_WINDS"},"data":[0.0,0.0,0.0,0.0,0.0,0.0,0.0,0.0,0.0,0.0,0.0,0.0,0.0,0.0,0.0,0.0,0.0,0.0,0.0,0.0,0.0,0.0,0.0,0.0,0.0,0.0,0.0,0.0,0.0,0.0,0.0,0.0,0.0,0.0,0.0,0.0,0.0,0.0,0.0,0.0,0.0,0.0,0.0,0.0,0.0,0.0,0.0,0.0,0.0,0.0,0.0,0.0,0.0,0.0,0.0,0.0,0.0,0.0,0.0,0.0,0.0,0.0,0.0,0.0,0.0,0.0,0.0,0.0,0.0,0.0,0.0,0.0,0.0,0.0,0.0,0.0,0.0,0.0,0.0,0.0,0.0,0.0,0.0,0.0,0.0,0.0,0.0,0.0,0.0,0.0,0.0,0.0,0.0,0.0,0.0,0.0,0.0,0.0,0.0,0.0,0.0,0.0,0.0,0.0,0.0,0.0,0.0,0.0,0.0,0.0,0.0,0.0,0.0,0.0,0.0,0.0,0.0,0.0,0.0,0.0,0.0,0.0,0.0,0.0,0.0,0.0,0.0,0.0,0.0,0.0,0.0,0.0,0.0,0.0,0.0,0.0,0.0,0.0,0.0,0.0,0.0,0.0,0.0,0.0,0.0,0.0,0.0,0.0,0.0,0.0,0.0,0.0,0.0,0.0,0.0,0.0,0.0,0.0,0.0,0.0,0.0,0.0,0.0,0.0,0.0,0.0,0.0,0.0,0.0,0.0,0.0,0.0,0.0,0.0,0.0,0.0,0.0,0.0,0.0,0.0,0.0,0.0,0.0,0.0,0.0,0.0,0.0,0.0,0.0,0.0,0.0,0.0,0.0,0.0,0.0,0.0,0.0,0.0,0.0,0.0,0.0,0.0,0.0,0.0,0.0,0.0,0.0,0.0,0.0,0.0,0.0,0.0,0.0,0.0,0.0,0.0,0.0,0.0,0.0,0.0,0.0,0.0,0.0,0.0,0.0,0.0,0.0,0.0,0.0,0.0,0.0,0.0,0.0,0.0,0.0,0.0,0.0,0.0,0.0,0.0,0.0,0.0,0.0,0.0,0.0,0.0,0.0,0.0,0.0,0.0,0.0,0.0,0.0,0.0,0.0,0.0,0.0,0.0,0.0,0.0,0.0,0.0,0.0,0.0,0.0,0.0,0.0,0.0,0.0,0.0,0.0,0.0,0.0,0.0,0.0,0.0,0.0,0.0,0.0,0.0,0.0,0.0,0.0,0.0,0.0,0.0,0.0,0.0,0.0,0.0,0.0,0.0,0.0,0.0,0.0,0.0,0.0,0.0,0.0,0.0,0.0,0.0,0.0,0.0,0.0,0.0,0.0,0.0,0.0,0.0,0.0,0.0,0.0,0.0,0.0,0.0,0.0,0.0,0.0,0.0,0.0,0.0,0.0,0.0,0.0,0.0,0.0,0.0,0.0,0.0,0.0,0.0,0.0,0.0,0.0,0.0,0.0,0.0,0.0,0.0,0.0,0.0,0.0,0.0,0.0,0.0,0.0,0.0,0.0,0.0,0.0,0.0,0.0,0.0,0.0,0.0,0.0,0.0,0.0,0.0,0.0,0.0,0.0,0.0,0.0,0.0,0.0,0.0,0.0,0.0,0.0,0.0,0.0,0.0,0.0,0.0,0.0,0.0,0.0,0.0,0.0,0.0,0.0,0.0,0.0,0.0,0.0,0.0,0.0,0.0,0.0,0.0,0.0,0.0,0.0,0.0,0.0,0.0,0.0,0.0,0.0,0.0,0.0,0.0,0.0,0.0,0.0,0.0,0.0,0.0,0.0,0.0,0.0,0.0,0.0,0.0,0.0,0.0,0.0,0.0,0.0,0.0,0.0,0.0,0.0,0.0,0.0,0.0,0.0,0.0,0.0,0.0,0.0,0.0,0.0,0.0,0.0,0.0,0.0,0.0,0.0,0.0,0.0,0.0,0.0,0.0,0.0,0.0,0.0,0.0,0.0,0.0,0.0,0.0,0.0,0.0,0.0,0.0,0.0,0.0,0.0,0.0,0.0,0.0,0.0,0.0,0.0,0.0,0.0,0.0,0.0,0.0,0.0,0.0,0.0,0.0,0.0,0.0,0.0,0.0,0.0,0.0,0.0,0.0,0.0,0.0,0.0,0.0,0.0,0.0,0.0,0.0,0.0,0.0,0.0,0.0,0.0,0.0,0.0,0.0,0.0,0.0,0.0,0.0,0.0,0.0,0.0,0.0,0.0,0.0,0.0,0.0,0.0,0.0,0.0,0.0,0.0,0.0,0.0,0.0,0.0,0.0,0.0,0.0,0.0,0.0,0.0,0.0,0.0,0.0,0.0,0.0,0.0,0.0,0.0,0.0,0.0,0.0,0.0,0.0,0.0,0.0,0.0,0.0,0.0,0.0,0.0,0.0,0.0,0.0,0.0,0.0,0.0,0.0,0.0,0.0,0.0,0.0,0.0,0.0,0.0,0.0,0.0,0.0,0.0,0.0,0.0,0.0,0.0,0.0,0.0,0.0,0.0,0.0,0.0,0.0,0.0,0.0,0.0,0.0,0.0,0.0,0.0,0.0,0.0,0.0,0.0,0.0,0.0,0.0,0.0,0.0,0.0,0.0,0.0,0.0,0.0,0.0,0.0,0.0,0.0,0.0,0.0,0.0,0.0,0.0,0.0,0.0,0.0,0.0,0.0,0.0,0.0,0.0,0.0,0.0,0.0,0.0,0.0,0.0,0.0,0.0,0.0,0.0,0.0,0.0,0.0,0.0,0.0,0.0,0.0,0.0,0.0,0.0,0.0,0.0,0.0,0.0,0.0,0.0,0.0,0.0,0.0,0.0,0.0,0.0,0.0,0.0,0.0,0.0,0.0,0.0,0.0,0.0,0.0,0.0,0.0,0.0,0.0,0.0,0.0,0.0,0.0,0.0,0.0,0.0,0.0,0.0,0.0,0.0,0.0,0.0,0.0,0.0,0.0,0.0,0.0,0.0,0.0,0.0,0.0,0.0,0.0,0.0,0.0,0.0,0.0,0.0,0.0,0.0,0.0,0.0,0.0,0.0,0.0,0.0,0.0,0.0,0.0,0.0,0.0,0.0,0.0,0.0,0.0,0.0,0.0,0.0,0.0,0.0,0.0,0.0,0.0,0.0,0.0,0.0,0.0,0.0,0.0,0.0,0.0,0.0,0.0,0.0,0.0,0.0,0.0,0.0,0.0,0.0,0.0,0.0,0.0,0.0,0.0,0.0,0.0,0.0,0.0,0.0,0.0,0.0,0.0,0.0,0.0,0.0,0.0,0.0,0.0,0.0,0.0,0.0,0.0,0.0,0.0,0.0,0.0,0.0,0.0,0.0,0.0,0.0,0.0,0.0,0.0,0.0,0.0,0.0,0.0,0.0,0.0,0.0,0.0,0.0,0.0,0.0,0.0,0.0,0.0,0.0,0.0,0.0,0.0,0.0,0.0,0.0,0.0,0.0,0.0,0.0,0.0,0.0,0.0,0.0,0.0,0.0,0.0,0.0,0.0,0.0,0.0,0.0,0.0,0.0,0.0,0.0,0.0,0.0,0.0,0.0,0.0,0.0,0.0,0.0,0.0,0.0,0.0,0.0,0.0,0.0,0.0,0.0,0.0,0.0,0.0,0.0,0.0,0.0,0.0,0.0,0.0,0.0,0.0,0.0,0.0,0.0,0.0,0.0,0.0,0.0,0.0,0.0,0.0,0.0,0.0,0.0,0.0,0.0,0.0,0.0,0.0,0.0,0.0,0.0,0.0,0.0,0.0,0.0,0.0,0.0,0.0,0.0,0.0,0.0,0.0,0.0,0.0,0.0,0.0,0.0,0.0,0.0,0.0,0.0,0.0,0.0,0.0,0.0,0.0,0.0,0.0,0.0,0.0,0.0,0.0,0.0,0.0,0.0,0.0,0.0,0.0,0.0,0.0,0.0,0.0,0.0,0.0,0.0,0.0,0.0,0.0,0.0,0.0,0.0,0.0,0.0,0.0,0.0,0.0,0.0,0.0,0.0,0.0,0.0,0.0,0.0,0.0,0.0,0.0,0.0,0.0,0.0,0.0,0.0,0.0,0.0,0.0,0.0,0.0,0.0,0.0,0.0,0.0,0.0,0.0,0.0,0.0,0.0,0.0,0.0,0.0,0.0,0.0,0.0,0.0,0.0,0.0,0.0,0.0,0.0,0.0,0.0,0.0,0.0,0.0,0.0,0.0,0.0,0.0,0.0,0.0,0.0,0.0,0.0,0.0,0.0,1.1494,0.0,0.0,0.0,0.0,0.0,0.0,0.0,0.0,0.0,0.0,0.0,0.0,0.0,0.0,0.0,0.0,0.0,0.0,0.0,0.0,0.0,0.0,0.0,0.0,0.0,0.0,0.0,0.0,0.0,0.0,0.0,0.0,0.0,0.0,0.0,0.0,0.0,0.0,0.0,0.0,0.0,0.0,0.0,0.0,0.0,0.0,0.0,0.0,0.0,0.0,0.0,0.0,0.0,0.0,0.0,0.0,0.0,0.0,0.0,0.0,0.0,0.0,0.0,0.0,0.0,0.0,0.0,0.0,0.0,0.0,0.0,0.0,0.0,0.0,0.0,0.0,0.0,0.0,0.0,0.0,0.0,0.0,0.0,0.0,0.0,0.0,0.0,0.0,0.0,0.0,0.0,0.0,0.0,0.0,0.0,0.0,0.0,0.0,0.0,0.0,0.0,0.0,0.0,0.0,0.0,0.0,0.0,0.0,0.0,0.0,1.209,1.2478,1.2479,1.2382,1.2195,0.0,0.0,0.0,0.0,0.0,0.0,0.0,0.0,0.0,0.0,0.0,0.0,0.0,0.0,0.0,0.0,0.0,0.0,0.0,0.0,0.0,0.0,0.0,0.0,0.0,0.0,0.0,0.0,0.0,0.0,0.0,0.0,0.0,0.0,0.0,0.0,0.0,0.0,0.0,0.0,0.0,0.0,0.0,0.0,0.0,0.0,0.0,0.0,0.0,0.0,0.0,0.0,0.0,0.0,0.0,0.0,0.0,0.0,0.0,0.0,0.0,0.0,0.0,0.0,0.0,0.0,0.0,0.0,0.0,0.0,0.0,0.0,0.0,0.0,0.0,0.0,0.0,0.0,0.0,0.0,0.0,0.0,0.0,0.0,0.0,0.0,0.0,0.0,0.0,0.0,0.0,0.0,0.0,0.0,0.0,0.0,0.0,0.0,0.0,0.0,0.0,0.0,0.0,0.0,0.0,0.0,0.0,0.0,0.0,0.0,0.0,0.0,1.2883,1.2887,1.2674,0.0,0.0,0.0,0.0,0.0,0.0,0.0,0.0,0.0,0.0,0.0,0.0,0.0,0.0,0.0,0.0,0.0,0.0,0.0,0.0,0.0,0.0,0.0,0.0,0.0,0.0,0.0,0.0,0.0,0.0,0.0,0.0,0.0,0.0,0.0,0.0,0.0,0.0,0.0,0.0,0.0,0.0,0.0,0.0,0.0,0.0,0.0,0.0,0.0,0.0,0.0,0.0,0.0,0.0,0.0,0.0,0.0,0.0,0.0,0.0,0.0,0.0,0.0,0.0,0.0,0.0,0.0,0.0,0.0,0.0,0.0,0.0,0.0,0.0,0.0,0.0,0.0,0.0,0.0,0.0,0.0,0.0,0.0,0.0,0.0,0.0,0.0,0.0,0.0,0.0,0.0,0.0,0.0,0.0,0.0,0.0,0.0,0.0,0.0,0.0,0.0,0.0,0.0,0.0,0.0,0.0,0.0,0.0,0.0,0.0,1.278,1.3139,1.3443,0.0,1.2936,0.0,0.0,0.0,0.0,0.0,0.0,0.0,0.0,0.0,0.0,0.0,0.0,0.0,0.0,0.0,0.0,0.0,0.0,0.0,0.0,0.0,0.0,0.0,0.0,0.0,0.0,0.0,0.0,0.0,0.0,0.0,0.0,0.0,0.0,0.0,0.0,0.0,0.0,0.0,0.0,0.0,0.0,0.0,0.0,0.0,0.0,0.0,0.0,0.0,0.0,0.0,0.0,0.0,0.0,0.0,0.0,0.0,0.0,0.0,0.0,0.0,0.0,0.0,0.0,0.0,0.0,0.0,0.0,0.0,0.0,0.0,0.0,0.0,0.0,0.0,0.0,0.0,0.0,0.0,0.0,0.0,0.0,0.0,0.0,0.0,0.0,0.0,0.0,0.0,0.0,0.0,0.0,0.0,0.0,0.0,0.0,0.0,0.0,0.0,0.0,0.0,0.0,0.0,0.0,0.0,0.0,0.0,0.0,0.0,0.0,1.285,1.3191,1.3449,1.3267,0.0,0.0,0.0,0.0,0.0,0.0,0.0,0.0,0.0,0.0,0.0,0.0,0.0,0.0,0.0,0.0,0.0,0.0,0.0,0.0,0.0,0.0,0.0,0.0,0.0,0.0,0.0,0.0,0.0,0.0,0.0,0.0,0.0,0.0,0.0,0.0,0.0,0.0,0.0,0.0,0.0,0.0,0.0,0.0,0.0,0.0,0.0,0.0,0.0,0.0,0.0,0.0,0.0,0.0,0.0,0.0,0.0,0.0,0.0,0.0,0.0,0.0,0.0,0.0,0.0,0.0,0.0,0.0,0.0,0.0,0.0,0.0,0.0,0.0,0.0,0.0,0.0,0.0,0.0,0.0,0.0,0.0,0.0,0.0,0.0,0.0,0.0,0.0,0.0,0.0,0.0,0.0,0.0,0.0,0.0,0.0,0.0,0.0,0.0,0.0,0.0,0.0,0.0,0.0,0.0,0.0,0.0,0.0,0.0,0.0,1.2935,1.3141,1.3495,1.3502,1.3168,1.2447,0.0,0.0,0.0,0.0,0.0,0.0,0.0,0.0,0.0,0.0,0.0,0.0,0.0,0.0,0.0,0.0,0.0,0.0,0.0,0.0,0.0,0.0,0.0,0.0,0.0,0.0,0.0,0.0,0.0,0.0,0.0,0.0,0.0,0.0,0.0,0.0,0.0,0.0,0.0,0.0,0.0,0.0,0.0,0.0,0.0,0.0,0.0,0.0,0.0,0.0,0.0,0.0,0.0,0.0,0.0,0.0,0.0,0.0,0.0,0.0,0.0,0.0,0.0,0.0,0.0,0.0,0.0,0.0,0.0,0.0,0.0,0.0,0.0,0.0,0.0,0.0,0.0,0.0,0.0,0.0,0.0,0.0,0.0,0.0,0.0,0.0,0.0,0.0,0.0,0.0,0.0,0.0,0.0,0.0,0.0,0.0,0.0,0.0,0.0,0.0,0.0,0.0,0.0,0.0,0.0,0.0,0.0,0.0,0.0,1.3497,1.3817,1.4288,1.3804,1.3171,0.0,0.0,0.0,0.0,0.0,0.0,0.0,0.0,0.0,0.0,0.0,0.0,0.0,0.0,0.0,0.0,0.0,0.0,0.0,0.0,0.0,0.0,0.0,0.0,0.0,0.0,0.0,0.0,0.0,0.0,0.0,0.0,0.0,0.0,0.0,0.0,0.0,0.0,0.0,0.0,0.0,0.0,0.0,0.0,0.0,0.0,0.0,0.0,0.0,0.0,0.0,0.0,0.0,0.0,0.0,0.0,0.0,0.0,0.0,0.0,0.0,0.0,0.0,0.0,0.0,0.0,0.0,0.0,0.0,0.0,0.0,0.0,0.0,0.0,0.0,0.0,0.0,0.0,0.0,0.0,0.0,0.0,0.0,0.0,0.0,0.0,0.0,0.0,0.0,0.0,0.0,0.0,0.0,0.0,0.0,0.0,0.0,0.0,0.0,0.0,0.0,0.0,0.0,0.0,0.0,0.0,0.0,0.0,0.0,1.2921,1.3209,1.3627,1.4227,1.3399,1.2699,0.0,0.0,0.0,0.0,0.0,0.0,0.0,0.0,0.0,0.0,0.0,0.0,0.0,0.0,0.0,0.0,0.0,0.0,0.0,0.0,0.0,0.0,0.0,0.0,0.0,0.0,0.0,0.0,0.0,0.0,0.0,0.0,0.0,0.0,0.0,0.0,0.0,0.0,0.0,0.0,0.0,0.0,0.0,0.0,0.0,0.0,0.0,0.0,0.0,0.0,0.0,0.0,0.0,0.0,0.0,0.0,0.0,0.0,0.0,0.0,0.0,0.0,0.0,0.0,0.0,0.0,0.0,0.0,0.0,0.0,0.0,0.0,0.0,0.0,0.0,0.0,0.0,0.0,0.0,0.0,0.0,0.0,0.0,0.0,0.0,0.0,0.0,0.0,0.0,0.0,0.0,0.0,0.0,0.0,0.0,0.0,0.0,0.0,0.0,0.0,0.0,0.0,0.0,0.0,0.0,0.0,0.0,0.0,0.0,1.2958,0.0,1.385,0.0,1.315,1.2372,0.0,0.0,0.0,0.0,0.0,0.0,0.0,0.0,0.0,0.0,0.0,0.0,0.0,0.0,0.0,0.0,0.0,0.0,0.0,0.0,0.0,0.0,0.0,0.0,0.0,0.0,0.0,0.0,0.0,0.0,0.0,0.0,0.0,0.0,0.0,0.0,0.0,0.0,0.0,0.0,0.0,0.0,0.0,0.0,0.0,0.0,0.0,0.0,0.0,0.0,0.0,0.0,0.0,0.0,0.0,0.0,0.0,0.0,0.0,0.0,0.0,0.0,0.0,0.0,0.0,0.0,0.0,0.0,0.0,0.0,0.0,0.0,0.0,0.0,0.0,0.0,0.0,0.0,0.0,0.0,0.0,0.0,0.0,0.0,0.0,0.0,0.0,0.0,0.0,0.0,0.0,0.0,0.0,0.0,0.0,0.0,0.0,0.0,0.0,0.0,0.0,0.0,0.0,0.0,0.0,0.0,0.0,0.0,1.2,1.354,1.4227,1.4435,1.4385,1.315,1.2257,0.0,0.0,0.0,0.0,0.0,0.0,0.0,0.0,0.0,0.0,0.0,0.0,0.0,0.0,0.0,0.0,0.0,0.0,0.0,0.0,0.0,0.0,0.0,0.0,0.0,0.0,0.0,0.0,0.0,0.0,0.0,0.0,0.0,0.0,0.0,0.0,0.0,0.0,0.0,0.0,0.0,0.0,0.0,0.0,0.0,0.0,0.0,0.0,0.0,0.0,0.0,0.0,0.0,0.0,0.0,0.0,0.0,0.0,0.0,0.0,0.0,0.0,0.0,0.0,0.0,0.0,0.0,0.0,0.0,0.0,0.0,0.0,0.0,0.0,0.0,0.0,0.0,0.0,0.0,0.0,0.0,0.0,0.0,0.0,0.0,0.0,0.0,0.0,0.0,0.0,0.0,0.0,0.0,0.0,0.0,0.0,0.0,0.0,0.0,0.0,0.0,0.0,0.0,0.0,0.0,0.0,0.0,0.0,0.0,1.3703,1.3767,1.3928,1.4193,1.2925,1.2052,0.0,0.0,0.0,0.0,0.0,0.0,0.0,0.0,0.0,0.0,0.0,0.0,0.0,0.0,0.0,0.0,0.0,0.0,0.0,0.0,0.0,0.0,0.0,0.0,0.0,0.0,0.0,0.0,0.0,0.0,0.0,0.0,0.0,0.0,0.0,0.0,0.0,0.0,0.0,0.0,0.0,0.0,0.0,0.0,0.0,0.0,0.0,0.0,0.0,0.0,0.0,0.0,0.0,0.0,0.0,0.0,0.0,0.0,0.0,0.0,0.0,0.0,0.0,0.0,0.0,0.0,0.0,0.0,0.0,0.0,0.0,0.0,0.0,0.0,0.0,0.0,0.0,0.0,0.0,0.0,0.0,0.0,0.0,0.0,0.0,0.0,0.0,0.0,0.0,0.0,0.0,0.0,0.0,0.0,0.0,0.0,0.0,0.0,0.0,0.0,0.0,0.0,0.0,0.0,0.0,0.0,0.0,0.0,0.0,1.4217,1.4268,1.4515,1.4934,1.3663,1.2774,1.2393,0.0,0.0,0.0,0.0,0.0,0.0,0.0,0.0,0.0,0.0,0.0,0.0,0.0,0.0,0.0,0.0,0.0,0.0,0.0,0.0,0.0,0.0,0.0,0.0,0.0,0.0,0.0,0.0,0.0,0.0,0.0,0.0,0.0,0.0,0.0,0.0,0.0,0.0,0.0,0.0,0.0,0.0,0.0,0.0,0.0,0.0,0.0,0.0,0.0,0.0,0.0,0.0,0.0,0.0,0.0,0.0,0.0,0.0,0.0,0.0,0.0,0.0,0.0,0.0,0.0,0.0,0.0,0.0,0.0,0.0,0.0,0.0,0.0,0.0,0.0,0.0,0.0,0.0,0.0,0.0,0.0,0.0,0.0,0.0,0.0,0.0,0.0,0.0,0.0,0.0,0.0,0.0,0.0,0.0,0.0,0.0,0.0,0.0,0.0,0.0,0.0,0.0,0.0,0.0,0.0,0.0,0.0,0.0,1.5023,1.5598,1.5964,1.6168,1.5019,1.4188,0.0,0.0,0.0,0.0,0.0,0.0,0.0,0.0,0.0,0.0,0.0,0.0,0.0,0.0,0.0,0.0,0.0,0.0,0.0,0.0,0.0,0.0,0.0,0.0,0.0,0.0,0.0,0.0,0.0,0.0,0.0,0.0,0.0,0.0,0.0,0.0,0.0,0.0,0.0,0.0,0.0,0.0,0.0,0.0,0.0,0.0,0.0,0.0,0.0,0.0,0.0,0.0,0.0,0.0,0.0,0.0,0.0,0.0,0.0,0.0,0.0,0.0,0.0,0.0,0.0,0.0,0.0,0.0,0.0,0.0,0.0,0.0,0.0,0.0,0.0,0.0,0.0,0.0,0.0,0.0,0.0,0.0,0.0,0.0,0.0,0.0,0.0,0.0,0.0,0.0,0.0,0.0,0.0,0.0,0.0,0.0,0.0,0.0,0.0,0.0,0.0,0.0,0.0,0.0,0.0,0.0,0.0,0.0,0.0,1.5594,1.6368,1.6644,1.6392,1.5266,1.4572,0.0,0.0,0.0,0.0,0.0,0.0,0.0,0.0,0.0,0.0,0.0,0.0,0.0,0.0,0.0,0.0,0.0,0.0,0.0,0.0,0.0,0.0,0.0,0.0,0.0,0.0,0.0,0.0,0.0,0.0,0.0,0.0,0.0,0.0,0.0,0.0,0.0,0.0,0.0,0.0,0.0,0.0,0.0,0.0,0.0,0.0,0.0,0.0,0.0,0.0,0.0,0.0,0.0,0.0,0.0,0.0,0.0,0.0,0.0,0.0,0.0,0.0,0.0,0.0,0.0,0.0,0.0,0.0,0.0,0.0,0.0,0.0,0.0,0.0,0.0,0.0,0.0,0.0,0.0,0.0,0.0,0.0,0.0,0.0,0.0,0.0,0.0,0.0,0.0,0.0,0.0,0.0,0.0,0.0,0.0,0.0,0.0,0.0,0.0,0.0,0.0,0.0,0.0,0.0,0.0,0.0,0.0,0.0,1.4326,1.6008,1.6898,1.7432,1.7561,1.6621,1.589,0.0,0.0,0.0,0.0,0.0,0.0,0.0,0.0,0.0,0.0,0.0,0.0,0.0,0.0,0.0,0.0,0.0,0.0,0.0,0.0,0.0,0.0,0.0,0.0,0.0,0.0,0.0,0.0,0.0,0.0,0.0,0.0,0.0,0.0,0.0,0.0,0.0,0.0,0.0,0.0,0.0,0.0,0.0,0.0,0.0,0.0,0.0,0.0,0.0,0.0,0.0,0.0,0.0,0.0,0.0,0.0,0.0,0.0,0.0,0.0,0.0,0.0,0.0,0.0,0.0,0.0,0.0,0.0,0.0,0.0,0.0,0.0,0.0,0.0,0.0,0.0,0.0,0.0,0.0,0.0,0.0,0.0,0.0,0.0,0.0,0.0,0.0,0.0,0.0,0.0,0.0,0.0,0.0,0.0,0.0,0.0,0.0,0.0,0.0,0.0,0.0,0.0,0.0,0.0,0.0,0.0,0.0,0.0,1.5018,1.6333,1.7318,1.8242,1.9011,1.8487,1.7581,0.0,0.0,0.0,0.0,0.0,0.0,0.0,0.0,0.0,0.0,0.0,0.0,0.0,0.0,0.0,0.0,0.0,0.0,0.0,0.0,0.0,0.0,0.0,0.0,0.0,0.0,0.0,0.0,0.0,0.0,0.0,0.0,0.0,0.0,0.0,0.0,0.0,0.0,0.0,0.0,0.0,0.0,0.0,0.0,0.0,0.0,0.0,0.0,0.0,0.0,0.0,0.0,0.0,0.0,0.0,0.0,0.0,0.0,0.0,0.0,0.0,0.0,0.0,0.0,0.0,0.0,0.0,0.0,0.0,0.0,0.0,0.0,0.0,0.0,0.0,0.0,0.0,0.0,0.0,0.0,0.0,0.0,0.0,0.0,0.0,0.0,0.0,0.0,0.0,0.0,0.0,0.0,0.0,0.0,0.0,0.0,0.0,0.0,0.0,0.0,0.0,0.0,0.0,0.0,0.0,0.0,0.0,0.0,1.5575,1.7352,1.8259,1.8975,1.9538,1.8911,1.8175,0.0,0.0,0.0,0.0,0.0,0.0,0.0,0.0,0.0,0.0,0.0,0.0,0.0,0.0,0.0,0.0,0.0,0.0,0.0,0.0,0.0,0.0,0.0,0.0,0.0,0.0,0.0,0.0,0.0,0.0,0.0,0.0,0.0,0.0,0.0,0.0,0.0,0.0,0.0,0.0,0.0,0.0,0.0,0.0,0.0,0.0,0.0,0.0,0.1247,0.0,0.0,0.0,0.0,0.0,0.0,0.0,0.0,0.0,0.0,0.0,0.0,0.0,0.0,0.0,0.0,0.0,0.0,0.0,0.0,0.0,0.0,0.0,0.0,0.0,0.0,0.0,0.0,0.0,0.0,0.0,0.0,0.0,0.0,0.0,0.0,0.0,0.0,0.0,0.0,0.0,0.0,0.0,0.0,0.0,0.0,0.0,0.0,0.0,0.0,0.0,0.0,0.0,0.0,0.0,0.0,0.0,0.0,0.0,1.6409,1.7724,1.9073,1.9831,2.0041,2.0053,1.9368,0.0,0.0,0.0,0.0,0.0,0.0,0.0,0.0,0.0,0.0,0.0,0.0,0.0,0.0,0.0,0.0,0.0,0.0,0.0,0.0,0.0,0.0,0.0,0.0,0.0,0.0,0.0,0.0,0.0,0.0,0.0,0.0,0.0,0.0,0.0,0.0,0.0,0.0,0.0,0.0,0.0,0.0,0.0,0.0,0.0,0.0,0.0,0.0,0.0,0.0,0.0,0.0,0.0,0.0,0.0,0.0,0.0,0.0,0.0,0.0,0.0,0.0,0.0,0.0,0.0,0.0,0.0,0.0,0.0,0.0,0.0,0.0,0.0,0.0,0.0,0.0,0.0,0.0,0.0,0.0,0.0,0.0,0.0,0.0,0.0,0.0,0.0,0.0,0.0,0.0,0.0,0.0,0.0,0.0,0.0,0.0,0.0,0.0,0.0,0.0,0.0,0.0,0.0,0.0,0.0,0.0,0.0,1.5989,1.7314,1.8061,1.9796,2.0618,2.0471,2.116,2.0492,1.8316,0.0,0.0,0.0,0.0,0.0,0.0,0.0,0.0,0.0,0.0,0.0,0.0,0.0,0.0,0.0,0.0,0.0,0.0,0.0,0.0,0.0,0.0,0.0,0.0,0.0,0.0,0.0,0.0,0.0,0.0,0.0,0.0,0.0,0.0,0.0,0.0,0.0,0.0,0.5482,0.5705,0.0,0.0,0.0,0.0,0.0,0.0,0.0,0.0,0.1586,0.0,0.0,0.0,0.0,0.0,0.0,0.0,0.0,0.0,0.0,0.0,0.0,0.0,0.0,0.0,0.0,0.0,0.0,0.0,0.0,0.0,0.0,0.0,0.0,0.0,0.0,0.0,0.0,0.0,0.0,0.0,0.0,0.0,0.0,0.0,0.0,0.0,0.0,0.0,0.0,0.0,0.0,0.0,0.0,0.0,0.0,0.0,0.0,0.0,0.0,0.0,0.0,0.0,0.0,0.0,0.0,1.4889,1.6717,1.8113,1.9131,2.0511,2.1073,2.0684,2.1034,2.0359,1.8483,0.0,0.0,0.0,0.0,0.0,0.0,0.0,0.0,0.0,0.0,0.0,0.0,0.0,0.0,0.0,0.0,0.0,0.0,0.0,0.0,0.0,0.0,0.0,0.0,0.0,0.0,0.0,0.0,0.0,0.0,0.0,0.0,0.0,0.0,0.0,0.0,0.0,0.0,0.0,0.5214,0.5078,0.0,0.0,0.0,0.0,0.0,0.0,0.0,0.0,0.1664,0.0,0.0,0.0,0.0,0.0,0.0,0.0,0.0,0.0,0.0,0.0,0.0,0.0,0.0,0.0,0.0,0.0,0.0,0.0,0.0,0.0,0.0,0.0,0.0,0.0,0.0,0.0,0.0,0.0,0.0,0.0,0.0,0.0,0.0,0.0,0.0,0.0,0.0,0.0,0.0,0.0,0.0,0.0,0.0,0.0,0.0,0.0,0.0,0.0,0.0,0.0,0.0,0.0,0.0,0.0,1.5355,1.7098,1.8545,1.9644,2.0561,2.1079,2.1144,2.1219,2.0411,0.0,0.0,0.0,0.0,0.0,0.0,0.0,0.0,0.0,0.0,0.0,0.0,0.0,0.0,0.0,0.0,0.0,0.0,0.0,0.0,0.0,0.0,0.0,0.0,0.0,0.0,0.0,0.0,0.0,0.0,0.0,0.0,0.0,0.0,0.0,0.0,0.0,0.0,0.0,0.0,0.4862,0.489,0.4758,0.0,0.0,0.0,0.0,0.0,0.0,0.2909,0.2305,0.0,0.0,0.0,0.0,0.0,0.0,0.0,0.0,0.0,0.0,0.0,0.0,0.0,0.0,0.0,0.0,0.0,0.0,0.0,0.0,0.0,0.0,0.0,0.0,0.0,0.0,0.0,0.0,0.0,0.0,0.0,0.0,0.0,0.0,0.0,0.0,0.0,0.0,0.0,0.0,0.0,0.0,0.0,0.0,0.0,0.0,0.0,0.0,0.0,0.0,0.0,0.0,0.0,0.0,0.0,1.5676,1.749,1.8925,1.9969,2.0616,2.1138,2.154,2.1299,2.0434,0.0,0.0,0.0,0.0,0.0,0.0,0.0,0.0,0.0,0.0,0.0,0.0,0.0,0.0,0.0,0.0,0.0,0.0,0.0,0.0,0.0,0.0,0.0,0.0,0.0,0.0,0.0,0.0,0.0,0.0,0.0,0.0,0.0,0.0,0.0,0.0,0.0,0.0,0.0,0.0,0.0,0.492,0.5066,0.4932,0.0,0.0,0.0,0.0,0.4391,0.3689,0.0,0.0,0.0,0.0,0.0,0.0,0.0,0.0,0.0,0.0,0.0,0.0,0.0,0.0,0.0,0.0,0.0,0.0,0.0,0.0,0.0,0.0,0.0,0.0,0.0,0.0,0.0,0.0,0.0,0.0,0.0,0.0,0.0,0.0,0.0,0.0,0.0,0.0,0.0,0.0,0.0,0.0,0.0,0.0,0.0,0.0,0.0,0.0,0.0,0.0,0.0,0.0,0.0,0.0,0.0,0.0,1.6213,1.8151,1.9559,2.0345,2.1204,2.1573,2.1419,2.0939,2.0105,0.0,0.0,0.0,0.0,0.0,0.0,0.0,0.0,0.0,0.0,0.0,0.0,0.0,0.0,0.0,0.0,0.0,0.0,0.0,0.0,0.0,0.0,0.0,0.0,0.0,0.0,0.0,0.0,0.0,0.0,0.0,0.0,0.0,0.0,0.0,0.0,0.0,0.0,0.0,0.0,0.0,0.5222,0.5709,0.5639,0.5751,0.0,0.0,0.5477,0.5278,0.4575,0.0,0.0,0.0,0.0,0.0,0.0,0.0,0.0,0.0,0.0,0.0,0.0,0.0,0.0,0.0,0.0,0.0,0.0,0.0,0.0,0.0,0.0,0.0,0.0,0.0,0.0,0.0,0.0,0.0,0.0,0.0,0.0,0.0,0.0,0.0,0.0,0.0,0.0,0.0,0.0,0.0,0.0,0.0,0.0,0.0,0.0,0.0,0.0,0.0,0.0,0.0,0.0,0.0,0.0,0.0,1.5368,1.6875,1.873,2.0129,2.0934,2.1355,2.1753,2.2123,2.1607,2.0779,0.0,0.0,0.0,0.0,0.0,0.0,0.0,0.0,0.0,0.0,0.0,0.0,0.0,0.0,0.0,0.0,0.0,0.0,0.0,0.0,0.0,0.0,0.0,0.0,0.0,0.0,0.0,0.0,0.0,0.0,0.0,0.0,0.0,0.0,0.0,0.0,0.0,0.0,0.0,0.0,0.0,0.0,0.6081,0.6221,0.0,0.0,0.0,0.6298,0.6013,0.0,0.0,0.0,0.0,0.0,0.0,0.0,0.0,0.0,0.0,0.0,0.0,0.0,0.0,0.0,0.0,0.0,0.0,0.0,0.0,0.0,0.0,0.0,0.0,0.0,0.0,0.0,0.0,0.0,0.0,0.0,0.0,0.0,0.0,0.0,0.0,0.0,0.0,0.0,0.0,0.0,0.0,0.0,0.0,0.0,0.0,0.0,0.0,0.0,0.0,0.0,0.0,0.0,0.0,0.0,0.0,0.0,1.7533,1.9308,2.0679,2.1543,2.1673,2.2088,2.2875,2.2394,0.0,0.0,0.0,0.0,0.0,0.0,0.0,0.0,0.0,0.0,0.0,0.0,0.0,0.0,0.0,0.0,0.0,0.0,0.0,0.0,0.0,0.0,0.0,0.0,0.0,0.0,0.0,0.3814,0.0,0.0,0.0,0.0,0.0,0.0,0.0,0.0,0.0,0.0,0.0,0.0,0.0,0.0,0.5938,0.6567,0.6802,0.7031,0.0,0.0,0.6881,0.6581,0.6104,0.5607,0.0,0.0,0.0,0.0,0.0,0.0,0.0,0.0,0.0,0.0,0.0,0.0,0.0,0.0,0.0,0.0,0.0,0.0,0.0,0.0,0.0,0.0,0.0,0.0,0.0,0.0,0.0,0.0,0.0,0.0,0.0,0.0,0.0,0.0,0.0,0.0,0.0,0.0,0.0,0.0,0.0,0.0,0.0,0.0,0.0,0.0,0.0,0.0,0.0,0.0,0.0,0.0,0.0,0.0,0.0,1.8235,2.0009,2.1337,2.2123,2.2463,2.2875,2.3406,2.2939,2.2185,0.0,0.0,0.0,0.0,0.0,0.0,0.0,0.0,0.0,0.0,0.0,0.0,0.0,0.0,0.0,0.0,0.0,0.0,0.0,0.0,0.0,0.0,0.0,0.0,0.0,0.0,0.0,0.0,0.0,0.0,0.0,0.0,0.0,0.0,0.0,0.0,0.0,0.0,0.0,0.0,0.0,0.6732,0.733,0.7423,0.7493,0.0,0.0,0.7106,0.6913,0.6732,0.6493,0.6156,0.0,0.0,0.0,0.0,0.0,0.0,0.0,0.0,0.0,0.0,0.0,0.0,0.0,0.0,0.0,0.0,0.0,0.0,0.0,0.0,0.0,0.0,0.0,0.0,0.0,0.0,0.0,0.0,0.0,0.0,0.0,0.0,0.0,0.0,0.0,0.0,0.0,0.0,0.0,0.0,0.0,0.0,0.0,0.0,0.0,0.0,0.0,0.0,0.0,0.0,0.0,0.0,0.0,1.6989,1.8845,2.0772,2.2063,2.2731,2.3275,2.3764,2.423,2.4231,2.3596,0.0,0.0,0.0,0.0,0.0,0.0,0.0,0.0,0.0,0.0,0.0,0.0,0.0,0.0,0.0,0.0,0.0,0.0,0.0,0.0,0.0,0.0,0.0,0.0,0.0,0.0,0.0,0.0,0.3705,0.3787,0.4006,0.0,0.0,0.0,0.0,0.0,0.0,0.0,0.0,0.0,0.0,0.7134,0.7567,0.7782,0.0,0.0,0.7987,0.7782,0.7596,0.7531,0.739,0.7056,0.7038,0.0,0.0,0.0,0.0,0.0,0.0,0.0,0.0,0.0,0.0,0.0,0.0,0.0,0.0,0.0,0.0,0.0,0.0,0.0,0.0,0.0,0.0,0.0,0.0,0.0,0.0,0.0,0.0,0.0,0.0,0.0,0.0,0.0,0.0,0.0,0.0,0.0,0.0,0.0,0.0,0.0,0.0,0.0,0.0,0.0,0.0,0.0,0.0,0.0,0.0,0.0,0.0,1.748,1.9396,2.1465,2.2822,2.3458,2.409,2.4648,2.5105,2.5414,2.4772,0.0,0.0,0.0,0.0,0.0,0.0,0.0,0.0,0.0,0.0,0.0,0.0,0.0,0.0,0.0,0.0,0.0,0.0,0.0,0.0,0.0,0.0,0.0,0.0,0.0,0.0,0.0,0.0,0.4505,0.4775,0.5028,0.0,0.0,0.0,0.0,0.0,0.0,0.0,0.0,0.0,0.0,0.7514,0.779,0.8079,0.8339,0.8479,0.8376,0.8274,0.8247,0.8279,0.8222,0.8059,0.0,0.0,0.0,0.0,0.0,0.0,0.0,0.0,0.0,0.0,0.0,0.0,0.0,0.0,0.0,0.0,0.0,0.0,0.0,0.0,0.0,0.0,0.0,0.0,0.0,0.0,0.0,0.0,0.0,0.0,1.2117,0.0,0.0,0.0,0.0,0.0,0.0,0.0,0.0,0.0,0.0,0.0,0.0,0.0,0.0,0.0,0.0,0.0,0.0,0.0,0.0,0.0,0.0,1.8015,1.9863,2.2039,2.3537,2.4245,2.4867,2.5468,2.6034,2.6333,2.5614,2.3786,0.0,0.0,0.0,0.0,0.0,0.0,0.0,0.0,0.0,0.0,0.0,0.0,0.0,0.0,0.0,0.0,0.0,0.0,0.0,0.0,0.0,0.0,0.0,0.0,0.0,0.0,0.5271,0.5681,0.598,0.0,0.0,0.0,0.0,0.0,0.0,0.0,0.0,0.0,0.0,0.7547,0.7954,0.8173,0.8376,0.8511,0.8511,0.8479,0.8582,0.8738,0.8894,0.9049,0.0,0.0,0.0,0.0,0.0,0.0,0.0,0.0,0.0,0.0,0.0,0.0,0.0,0.0,0.0,0.0,0.0,0.0,0.0,0.0,0.0,0.0,0.0,0.0,0.0,0.0,0.0,1.7682,1.6917,0.0,0.0,0.0,0.0,0.0,0.0,0.0,0.0,0.0,0.0,0.0,2.0475,2.0625,0.0,0.0,0.0,0.0,0.0,0.0,0.0,0.0,0.0,0.0,0.0,0.0,1.8827,2.0681,2.2651,2.4127,2.5063,2.5598,2.6071,2.6556,2.6807,2.5814,2.3336,0.0,0.0,0.0,0.0,0.0,0.0,0.0,0.0,0.0,0.0,0.0,0.0,0.0,0.0,0.0,0.0,0.0,0.0,0.0,0.0,0.0,0.0,0.0,0.0,0.0,0.5869,0.0,0.0,0.0,0.0,0.0,0.0,0.0,0.0,0.0,0.0,0.0,0.7324,0.7491,0.7771,0.8062,0.8371,0.8576,0.8738,0.0,0.0,0.0,0.0,0.0,0.0,0.0,0.0,0.0,0.0,0.0,0.0,0.0,0.0,0.7702,0.6972,0.6948,0.7063,0.7276,0.0,0.0,0.0,0.0,0.0,0.0,0.0,0.0,0.0,0.0,0.0,0.0,0.0,0.0,1.9946,0.0,1.8795,0.0,0.0,0.0,0.0,0.0,0.0,0.0,0.0,2.0924,2.1944,2.2365,2.2291,2.2074,0.0,2.0521,1.8875,0.0,0.0,0.0,0.0,0.0,0.0,0.0,0.0,1.9565,2.1332,2.331,2.4823,2.5803,2.6299,2.6724,2.7068,2.673,2.5463,2.3161,2.0527,1.8028,0.0,0.0,0.0,0.0,0.0,0.0,0.0,0.0,0.0,0.0,0.0,0.0,0.0,0.0,0.0,0.0,0.0,0.0,0.0,0.0,0.0,0.0,0.0,0.6534,0.0,0.0,0.0,0.0,0.0,0.0,0.0,0.0,0.0,0.7835,0.7758,0.7735,0.7861,0.8042,0.8279,0.8576,0.0,0.0,0.0,0.0,0.0,0.0,0.0,1.032,1.0674,1.1216,1.1591,1.1591,1.097,1.0301,0.9627,0.0,0.0,0.7752,0.7593,0.7647,0.7741,0.7811,0.7845,0.7768,0.7557,0.726,0.0,0.0,0.0,0.0,0.0,0.0,0.0,0.0,2.278,2.2452,0.0,2.1496,0.0,0.0,0.0,0.0,0.0,1.9475,0.0,0.0,2.2729,2.353,2.3828,2.3655,2.3381,2.298,2.1724,2.0949,2.052,1.7969,0.0,0.0,0.0,0.0,0.0,0.0,2.0242,2.1885,2.4023,2.5587,2.6505,2.6988,2.7322,2.7535,2.6088,2.4642,2.3233,2.0526,1.7908,1.546,1.3744,0.0,0.0,0.0,0.0,0.0,0.0,0.0,0.0,0.0,0.0,0.0,0.0,0.0,0.0,0.0,0.0,0.0,0.0,0.0,0.0,0.7089,0.0,0.0,0.0,0.0,0.0,0.0,0.0,0.0,0.0,0.0,0.7909,0.8181,0.8359,0.824,0.0,0.0,0.0,0.0,0.9145,0.946,0.9504,0.9772,1.0466,1.0548,1.0769,1.1466,0.0,0.0,1.2127,1.1456,1.0982,1.1058,1.0208,0.912,0.8086,0.8028,0.8106,0.8047,0.8235,0.8379,0.8359,0.8105,0.7996,2.3728,0.0,0.0,0.0,0.0,2.4208,2.4418,2.4244,2.4122,2.3731,2.32,2.2676,0.0,0.0,0.0,0.0,0.0,0.0,2.2183,2.3003,2.4123,2.4834,2.515,2.4901,2.4552,2.4126,2.3263,2.2386,2.1449,2.0356,1.8912,1.7275,0.0,0.0,0.0,0.0,2.1396,2.3262,2.486,2.6144,2.7129,2.7413,2.7426,2.7177,2.583,2.4068,2.1936,1.9588,1.7158,1.4733,1.2784,0.0,0.0,0.0,0.0,0.0,0.0,0.0,0.0,0.0,0.0,0.0,0.0,0.0,0.0,0.0,0.0,0.0,0.0,0.0,0.7264,0.7217,0.7295,0.0,0.0,0.0,0.0,0.0,0.0,0.0,0.0,0.0,0.804,0.8298,0.8586,0.0,0.0,0.9097,0.9396,0.9391,0.9428,0.9664,0.9792,0.0,1.0339,1.0681,1.1083,1.1529,1.2065,1.2467,1.2467,1.2135,1.182,1.1514,1.102,1.0332,0.9512,0.89,0.8617,0.8596,0.8525,0.8478,0.8446,0.8377,0.8329,2.6705,2.4667,2.4994,2.5212,2.5339,2.6123,2.6343,2.6158,2.5975,2.5606,2.5043,2.4467,2.4078,2.3833,2.3097,0.0,0.0,0.0,2.4247,2.4926,2.5886,2.6286,2.6124,2.5705,2.5031,2.4194,2.3493,2.2731,2.188,2.1448,2.0488,1.9103,0.0,0.0,1.9492,2.1068,2.2697,2.4319,2.5641,2.6788,2.7654,2.7701,2.7346,2.6605,2.4989,2.2988,2.0557,1.8127,1.5744,1.3332,1.1587,1.0352,0.0,0.0,0.0,0.0,0.0,0.0,0.0,0.0,0.0,0.0,0.0,0.7916,0.7859,0.0,0.0,0.0,0.7249,0.7226,0.7341,0.7279,0.0,0.0,0.0,0.0,0.0,0.0,0.0,0.8044,0.8147,0.821,0.8264,0.8706,0.9075,0.9192,0.9265,0.9399,0.9679,0.0,0.9492,0.9766,0.9862,1.0053,1.0428,1.0839,1.131,1.191,1.2375,1.2683,1.2744,1.249,1.2205,1.1996,1.1622,1.1059,1.032,0.969,0.9125,0.877,0.8673,0.8608,0.8544,0.8517,0.8517,2.9296,2.8624,2.7637,2.6965,2.6658,2.7623,2.8139,2.8252,2.8047,2.769,2.7185,2.6605,2.6011,2.541,2.5104,0.0,2.4892,2.574,2.6415,2.6997,2.7738,2.763,2.6824,2.6125,2.507,2.3672,2.2907,2.2325,2.1934,2.1499,2.109,2.0688,2.0531,2.0755,2.1344,2.2703,2.3989,2.5113,2.638,2.7376,2.8085,2.7789,2.7057,2.5875,2.3736,2.1417,1.902,1.6312,1.3778,1.1558,1.0237,0.9214,0.8481,0.0,0.0,0.0,0.0,0.0,0.0,0.0,0.0,0.0,0.0,0.0,0.0,0.0,0.0,0.0,0.7392,0.0,0.7176,0.7377,0.0,0.0,0.0,0.8274,0.8358,0.8245,0.8228,0.8351,0.0,0.0,0.8452,0.9237,0.9662,0.9293,0.9394,0.9517,0.9679,0.9515,0.9434,0.9766,0.9836,1.0085,1.0649,1.0996,1.1498,1.2313,1.2683,1.2805,1.2889,1.2574,1.2359,1.2498,1.2089,1.149,1.0818,1.0358,0.976,0.8829,0.8738,0.877,0.8576,0.8517,0.8517,3.0787,3.0513,3.0102,2.9424,2.864,2.9259,2.9232,2.8806,2.8662,2.8201,2.7566,2.7571,2.7532,2.7467,2.725,2.7146,2.7126,2.7243,2.745,2.7728,2.7829,2.7616,2.708,2.641,2.55,2.4354,2.3455,2.2456,2.1391,2.0836,2.0528,2.0486,2.0948,2.149,2.2132,2.3125,2.4468,2.6135,2.6911,2.7562,2.8071,2.7435,2.632,2.4748,2.2026,1.9367,1.6764,1.4092,1.1867,1.023,0.8939,0.8165,0.7982,0.7722,0.0,0.0,0.0,0.0,0.0,0.0,0.0,0.0,0.0,0.8584,0.8492,0.0,0.7745,0.0,0.7558,0.7633,0.7711,0.7721,0.0,0.0,0.7909,0.7848,0.7938,0.7919,0.7917,0.8005,0.812,0.8211,0.8248,0.9158,0.9765,0.9662,0.9926,1.0027,0.9876,0.9776,0.9702,0.9798,0.9989,1.0276,1.0618,1.1216,1.1778,1.2158,1.2467,1.2652,1.2683,1.259,1.2529,1.259,1.2467,1.212,1.1459,1.0958,1.039,0.969,0.9242,0.8888,0.877,0.8608,0.8517,3.1675,3.1524,3.119,3.058,2.9828,2.9961,2.974,2.9275,2.9216,2.8807,2.8091,2.7957,2.7931,2.7963,2.7826,2.7766,2.7721,2.7925,2.808,2.8224,2.8244,2.7783,2.6901,2.6082,2.4931,2.3527,2.2658,2.1655,2.064,2.0061,2.0027,2.0515,2.1378,2.2506,2.3881,2.4355,2.5328,2.6836,2.7452,2.7757,2.7681,2.6783,2.535,2.337,2.0526,1.7627,1.4801,1.2245,1.0197,0.8677,0.7681,0.7207,0.7264,0.7188,0.7417,0.0,0.0,0.0,0.0,0.0,0.0,0.0,0.0,0.0,0.0,0.0,0.8069,0.787,0.7815,0.7824,0.7931,0.7837,0.7868,0.8086,0.7976,0.7964,0.8108,0.8118,0.8136,0.817,0.8249,0.843,0.863,0.9332,0.9852,0.9927,1.0165,1.0244,1.0075,0.9867,0.9676,0.9676,0.9958,1.0339,1.0744,1.1435,1.1965,1.2096,1.2375,1.259,1.259,1.259,1.259,1.259,1.259,1.2436,1.1833,1.1428,1.0965,1.0428,0.9849,0.9338,0.8899,0.8705,0.8608,3.2214,3.2003,3.1466,3.0955,3.0489,3.0146,2.9826,2.9544,2.9614,2.9283,2.8694,2.8239,2.798,2.793,2.7856,2.7777,2.7742,2.8189,2.8407,2.8413,2.8519,2.7787,2.6402,2.5427,2.4008,2.221,2.1387,2.0629,1.9854,1.9351,1.9613,2.0514,2.1692,2.3448,2.5703,2.5969,2.6621,2.7689,2.8201,2.8091,2.7382,2.6127,2.4335,2.2022,1.907,1.6049,1.2974,1.0657,0.8682,0.7079,0.6474,0.6278,0.6407,0.6524,0.6929,0.0,0.8012,0.0,0.0,0.0,0.0,0.0,0.0,0.0,0.0,0.8541,0.8567,0.8427,0.8193,0.8074,0.8084,0.799,0.8003,0.8198,0.8194,0.8248,0.8452,0.8447,0.8479,0.8549,0.8544,0.8696,0.9159,0.9588,0.9892,1.0114,1.0218,1.0286,1.0244,0.9841,0.9516,0.9478,0.983,1.0364,1.0965,1.1654,1.2096,1.2127,1.2375,1.259,1.259,1.259,1.259,1.259,1.259,1.2436,1.2004,1.1771,1.1428,1.0902,1.0358,0.976,0.9092,0.8835,0.8738,3.2555,3.2214,3.1747,3.1159,3.0559,3.0172,2.9694,2.9189,2.9213,2.9248,2.9307,2.9223,2.9187,2.9209,2.9048,2.8898,2.8801,2.8568,2.8263,2.7909,2.7519,2.6678,2.5471,2.4654,2.3584,2.2288,2.1478,2.0522,1.9501,1.9005,1.917,1.9965,2.1422,2.3367,2.5747,0.0,0.0,0.0,2.9786,2.9311,2.8372,2.6183,2.371,2.1037,1.7691,0.0,1.1301,0.9197,0.7405,0.6005,0.5388,0.0,0.0,0.0,0.0,0.0,0.0,0.0,0.0,0.0,0.0,0.0,0.9181,0.8976,0.8606,0.8573,0.8748,0.9071,0.8943,0.8817,0.8749,0.8515,0.8398,0.8441,0.8211,0.8103,0.8236,0.8269,0.8371,0.8705,0.8743,0.8891,0.9326,0.9753,1.0137,1.0331,1.036,1.0304,1.0292,0.9841,0.9496,0.9542,1.0047,1.0586,1.1028,1.1661,1.2065,1.212,1.2375,1.2598,1.259,1.259,1.259,1.259,1.259,1.249,1.2197,1.1957,1.1615,1.1153,1.0624,1.0047,0.9376,0.899,0.8738,3.2878,0.0,3.1984,3.1391,0.0,3.022,2.9655,2.9074,2.9036,2.9082,2.9182,2.9198,2.9227,2.9234,2.8982,2.8818,2.8748,2.8414,2.7953,2.743,2.6787,2.5846,2.4576,2.3683,2.2639,2.1455,2.0814,2.0062,1.9265,1.9081,1.9498,2.0552,2.2277,2.4423,2.6994,2.9563,3.0795,3.0602,3.029,2.955,2.8223,2.58,2.3141,2.032,1.6922,0.0,0.0,0.0,0.0,0.0,0.0,0.0,0.0,0.0,0.0,0.6809,0.7471,0.8187,0.8938,0.9178,0.9249,0.9214,0.9301,0.923,0.8933,0.8971,0.9118,0.9326,0.9205,0.9087,0.91,0.8879,0.8732,0.8641,0.8479,0.8376,0.8371,0.8339,0.8474,0.8738,0.8802,0.8989,0.9499,0.9862,1.0166,1.0367,1.0353,1.0244,1.01,0.9769,0.9554,0.9734,1.0079,1.0555,1.1028,1.1591,1.2034,1.212,1.2375,1.256,1.259,1.259,1.259,1.259,1.259,1.2529,1.2305,1.2089,1.1809,1.131,1.0807,1.0238,0.9556,0.9145,0.8829,3.3154,3.2781,3.2214,3.1601,3.0985,3.033,2.9683,2.909,0.0,0.0,0.0,2.8904,2.8904,2.8873,2.8597,2.8444,2.8411,2.8168,2.7725,2.7122,2.6385,2.5329,2.3997,2.2972,2.1834,2.07,2.0215,1.9769,1.9297,1.9419,2.0193,2.1565,2.3425,2.585,2.8806,3.1743,3.2574,3.1279,3.081,2.9729,2.8023,2.5546,2.278,1.9729,1.644,1.3169,0.9913,0.7879,0.5986,0.4184,0.3518,0.3316,0.3635,0.4075,0.4919,0.6188,0.6925,0.7747,0.8699,0.9099,0.9366,0.9466,0.9672,0.9675,0.9395,0.9555,0.9643,0.9635,0.9476,0.9382,0.941,0.921,0.9017,0.8861,0.8802,0.8705,0.8517,0.8517,0.8576,0.8776,0.8835,0.9054,0.9644,0.9917,1.0118,1.0245,1.025,1.013,0.9877,0.9654,0.9612,0.9926,1.0136,1.0421,1.0996,1.1505,1.1879,1.2058,1.2336,1.256,1.259,1.259,1.259,1.259,1.259,1.2498,1.2344,1.2151,1.1872,1.1397,1.0902,1.0333,0.9684,0.923,0.8888,3.3383,3.2928,3.2386,3.1804,3.1201,3.0543,2.9799,2.9098,2.8771,2.8748,2.8904,2.8904,2.8904,2.8897,2.8732,2.8629,2.8549,2.8284,2.786,2.7246,2.6515,2.5466,2.4129,2.3187,2.2163,2.106,2.0549,2.0204,1.9998,2.0161,2.0951,2.2372,2.4087,2.703,3.0912,3.2618,3.3342,3.3254,3.2434,3.0976,2.8864,2.6198,2.3007,1.9314,1.628,1.3058,0.9598,0.7551,0.5512,0.3449,0.2379,0.1977,0.221,0.2699,0.3718,0.5341,0.6396,0.7555,0.8876,0.9427,0.9964,1.0521,1.0771,1.0636,1.0117,1.0181,1.0363,1.0573,1.0443,1.0255,0.9951,0.9594,0.93,0.9017,0.8867,0.8705,0.8544,0.8517,0.8608,0.8926,0.8985,0.9179,0.9696,0.987,1.0024,1.019,1.0069,0.9871,0.966,0.9508,0.9644,0.9919,1.0104,1.0421,1.0933,1.1373,1.1747,1.2065,1.2212,1.2406,1.256,1.259,1.259,1.259,1.259,1.2529,1.2336,1.205,1.1709,1.1341,1.0776,1.0174,0.9588,0.9204,0.8894,3.3512,3.3024,3.2487,3.1931,3.1334,3.0493,2.9826,2.9298,2.9091,2.8943,2.8904,2.8904,2.8904,2.8881,2.874,2.8724,2.8756,2.8708,2.8432,2.7969,2.739,2.6515,2.5382,2.4436,2.3423,2.2372,2.1875,2.1483,2.1192,2.1526,2.2286,2.3554,2.6133,2.896,3.1672,3.2875,3.3504,3.3721,3.2945,3.1568,2.9619,2.6596,2.3396,1.9975,1.6579,1.3216,0.9945,0.7505,0.5107,0.2704,0.1306,0.0604,0.0738,0.1572,0.2969,0.4893,0.6482,0.7962,0.9332,1.0225,1.0926,1.1389,1.1591,1.154,1.1232,1.0965,1.0867,1.0951,1.0744,1.0498,1.0174,0.9856,0.9472,0.9049,0.8958,0.8797,0.8544,0.8517,0.8608,0.8835,0.8894,0.9068,0.9503,0.9678,0.9804,0.985,0.9718,0.961,0.9502,0.9478,0.958,0.9862,1.0047,1.0358,1.0776,1.1286,1.163,1.1809,1.2089,1.2305,1.2436,1.2529,1.259,1.259,1.259,1.2498,1.2251,1.1965,1.1622,1.109,1.0555,0.9983,0.9498,0.9049,0.8705,3.3569,3.3055,3.252,3.1896,3.1254,3.0405,2.988,2.957,2.9457,2.9259,2.9036,2.8967,2.8967,2.899,2.892,2.899,2.9159,2.9309,2.9262,2.9023,2.863,2.7979,2.7036,2.61,2.5122,2.4129,2.356,2.3086,2.283,2.32,2.4006,2.5342,2.8194,3.0493,3.207,3.3,3.3578,3.3762,3.3145,3.1864,2.9952,2.7014,2.3918,2.0658,1.7166,1.3788,1.0615,0.771,0.4957,0.2262,0.0435,-0.0538,-0.047,0.0669,0.2397,0.4677,0.6731,0.8565,1.0243,1.1226,1.1919,1.2205,1.2243,1.2251,1.2189,1.1802,1.1421,1.1216,1.0933,1.0649,1.0364,1.0053,0.9638,0.9177,0.9017,0.8894,0.8608,0.8549,0.8582,0.877,0.8802,0.8894,0.9186,0.9423,0.9503,0.9479,0.9478,0.9478,0.9478,0.9478,0.958,0.9708,0.9919,1.0206,1.053,1.1003,1.1373,1.1529,1.1864,1.212,1.2274,1.2459,1.259,1.259,1.259,1.2467,1.2189,1.1903,1.1522,1.0958,1.0364,0.9792,0.928,0.8829,0.8517,3.3526,3.3055,3.2454,3.1638,3.0773,3.0359,3.0022,2.9766,2.9687,2.9586,2.9412,2.919,2.9183,2.9266,2.938,2.9589,2.9903,3.0175,3.0332,3.0381,3.0241,2.9765,2.8997,2.8085,2.7136,2.6211,2.5516,2.5094,2.4901,2.5136,2.616,2.7889,2.9545,3.0989,3.2309,3.3219,3.3753,3.3868,3.3277,3.1872,2.9592,2.7611,2.466,2.0781,1.8165,1.5064,1.1483,0.8223,0.5166,0.229,0.0,-0.1208,-0.1109,-0.0067,0.1924,0.479,0.6992,0.9273,1.1757,1.2458,1.2742,1.2889,1.2797,1.2683,1.256,1.2498,1.2212,1.1654,1.1296,1.0951,1.0593,1.0212,0.9824,0.9454,0.9172,0.892,0.8765,0.8614,0.8576,0.877,0.8738,0.8861,0.8958,0.9062,0.9159,0.935,0.944,0.9478,0.9478,0.9478,0.9478,0.9548,0.9574,0.9862,1.0371,1.0618,1.0965,1.1435,1.1622,1.184,1.2151,1.2398,1.259,1.2498,1.256,1.2436,1.212,1.184,1.1435,1.0895,1.0269,0.9606,0.9028,0.8673,0.8517,3.3408,3.286,3.2317,3.1564,3.0716,3.0422,3.0108,2.9793,2.9744,2.971,2.9592,2.9518,2.948,2.9547,2.9798,3.0113,3.0481,3.0894,3.1249,3.1461,3.1428,3.1172,3.0681,2.991,2.9089,2.8272,2.7634,2.716,2.6923,2.7155,2.7968,2.9192,3.0412,3.158,3.2668,3.3454,3.3873,3.3934,3.3339,3.2133,3.0347,2.806,2.5467,2.2472,1.9427,1.6323,1.3055,0.9549,0.6,0.2602,-0.01,-0.164,-0.1914,-0.06,0.1588,0.4706,0.8504,1.1363,1.307,1.339,1.3541,1.358,1.3277,1.3042,1.2836,1.2544,1.2212,1.1903,1.1428,1.1028,1.0713,1.0301,0.9849,0.9518,0.9204,0.8958,0.8802,0.8538,0.8371,0.8436,0.8376,0.8376,0.8528,0.8818,0.9081,0.9274,0.9408,0.9478,0.9478,0.9478,0.9478,0.9478,0.9478,0.9644,1.0091,1.0434,1.0719,1.0996,1.1373,1.1716,1.184,1.2174,1.2359,1.2305,1.2336,1.2243,1.1965,1.1654,1.1279,1.0769,1.0072,0.9344,0.8899,0.8646,0.8517,3.3276,3.2715,3.2109,3.1432,3.0753,3.0506,3.0274,2.9984,2.9919,2.9886,2.9869,3.0091,3.0238,3.0315,3.033,3.0576,3.1047,3.1584,3.2021,3.235,3.2451,3.2348,3.2056,3.1507,3.0833,3.015,2.9551,2.9051,2.8654,2.8939,2.9522,3.0315,3.1227,3.2158,3.3028,3.3688,3.3992,3.3967,3.3421,3.2472,3.1057,2.8855,2.6489,2.3997,2.0896,1.7835,1.4909,1.0991,0.7093,0.3262,0.0198,-0.1771,-0.2281,-0.0932,0.1745,0.5858,1.0113,1.2978,1.3902,1.4121,1.4151,1.404,1.364,1.3238,1.292,1.2482,1.2174,1.1965,1.1459,1.1052,1.087,1.046,1.004,0.9684,0.9332,0.9081,0.8861,0.8533,0.8269,0.8204,0.8144,0.8047,0.8204,0.856,0.8926,0.9183,0.9344,0.9478,0.9478,0.9478,0.9478,0.9478,0.9478,0.9574,0.9772,1.0091,1.0378,1.0656,1.1059,1.131,1.1459,1.1825,1.2073,1.2019,1.2042,1.2011,1.1864,1.1553,1.1178,1.0674,1.0009,0.9338,0.9055,0.877,0.8582,3.3081,3.262,3.1858,3.1293,3.0855,3.063,3.0464,3.0375,3.0264,3.0222,3.0336,3.109,3.1608,3.1838,3.1137,3.1001,3.1635,3.2231,3.2743,3.3176,3.3388,3.336,3.3105,3.2709,3.2247,3.1696,3.1106,3.0588,3.0192,3.0381,3.0834,3.1423,3.2092,3.2789,3.3435,3.3999,3.4221,3.4068,3.3638,3.2801,3.1546,3.0046,2.7868,2.5157,2.2481,1.974,1.6677,1.2592,0.8477,0.4487,0.0918,-0.1431,-0.2144,-0.0963,0.2779,0.8635,1.1781,1.3601,1.4321,1.4597,1.4538,1.4181,1.3752,1.3307,1.2858,1.2421,1.2081,1.184,1.1452,1.1178,1.1028,1.0713,1.0371,0.9983,0.9652,0.9326,0.9017,0.8635,0.8409,0.8236,0.8042,0.8014,0.8139,0.8376,0.8668,0.8958,0.9177,0.937,0.9478,0.9478,0.9478,0.9478,0.951,0.9548,0.974,0.99,1.0117,1.0364,1.0586,1.0846,1.1185,1.1459,1.1615,1.174,1.174,1.174,1.174,1.1553,1.1178,1.0674,1.0104,0.9562,0.9376,0.9022,0.877,3.2685,3.1967,3.1543,3.1215,3.0972,3.0794,3.0692,3.0638,3.1061,3.1217,3.1392,3.2147,3.2731,3.3094,3.3066,3.3239,3.3667,3.416,3.4605,3.5008,3.5249,3.53,3.5148,3.4842,3.4155,3.3245,3.2717,3.201,3.1157,3.1223,3.1531,3.2021,3.253,3.3141,3.3723,3.4196,3.4397,3.4316,3.3893,3.3107,3.2003,3.0749,2.9219,2.7415,2.4308,2.1592,1.9364,1.4926,1.0592,0.6433,0.2533,-0.0232,-0.1202,0.1351,0.5055,0.9379,1.2089,1.3842,1.4666,1.4872,1.4754,1.4389,1.3842,1.3299,1.2828,1.2398,1.1988,1.1709,1.156,1.1341,1.0965,1.0713,1.0434,1.0047,0.9684,0.9358,0.9011,0.8592,0.8242,0.8079,0.7852,0.7684,0.7852,0.8074,0.8468,0.8829,0.9113,0.9306,0.9446,0.9478,0.9478,0.9478,0.9478,0.951,0.9574,0.974,0.9894,1.0053,1.0276,1.0498,1.0807,1.1122,1.131,1.1498,1.1498,1.1622,1.1709,1.1677,1.131,1.0989,1.039,1.0009,0.9792,0.9408,0.899,3.2634,3.203,3.202,3.1941,3.1756,3.1711,3.1612,3.1541,3.2005,3.2243,3.2457,3.3227,3.3854,3.4361,3.5002,3.5542,3.5863,3.5756,3.5854,3.6225,3.6385,3.6436,3.6342,3.6117,3.5486,3.4499,3.3758,3.2823,3.187,3.1876,3.2162,3.2536,3.2981,3.3482,3.3993,3.439,3.4583,3.4506,3.4153,3.3428,3.2422,3.1303,3.0249,2.8946,2.6141,2.3571,2.1594,1.7241,1.2914,0.8744,0.4648,0.164,0.0398,0.3255,0.6696,0.9844,1.2212,1.3932,1.4823,1.5068,1.4902,1.4529,1.3971,1.3359,1.2767,1.2274,1.1864,1.1591,1.1466,1.1247,1.0902,1.0719,1.0498,1.0079,0.9786,0.946,0.9049,0.8662,0.8274,0.7949,0.7689,0.7526,0.7591,0.7917,0.8312,0.8738,0.9017,0.9247,0.9446,0.9478,0.9478,0.9478,0.9478,0.9478,0.951,0.9606,0.974,0.9894,0.9989,1.0212,1.0498,1.0776,1.1028,1.1216,1.1404,1.1591,1.1685,1.1685,1.156,1.1341,1.0965,1.0516,1.0206,0.9792,0.9408,3.3035,3.2796,3.3332,3.3313,3.3106,3.3106,3.3143,3.2957,3.3074,3.3172,3.3402,3.4291,3.4977,3.5608,3.6525,3.7453,3.7693,3.6752,3.6417,3.6745,3.6771,3.6758,3.6699,3.6548,3.6125,3.5465,3.4162,3.3108,3.2354,3.2422,3.2655,3.3021,3.3426,3.381,3.4191,3.455,3.4747,3.4615,3.433,3.3729,3.2868,3.1759,3.0796,2.9901,2.7799,2.5621,2.3467,1.95,1.5413,1.1401,0.7238,0.4116,0.267,0.4472,0.7196,1.0139,1.238,1.3902,1.4843,1.5098,1.499,1.4558,1.4061,1.3437,1.2636,1.2089,1.1685,1.1334,1.1216,1.1028,1.0839,1.0769,1.0555,1.011,0.9951,0.9696,0.9177,0.8861,0.8511,0.7862,0.7596,0.7563,0.7694,0.7889,0.8214,0.8603,0.8926,0.9151,0.9414,0.9478,0.9478,0.9478,0.9478,0.9478,0.9478,0.951,0.9606,0.974,0.9836,0.9996,1.0276,1.0555,1.0877,1.1097,1.1474,1.1661,1.1903,1.1903,1.1895,1.1677,1.1303,1.1028,1.0744,1.0364,0.9862,3.3952,3.3419,3.3533,3.3507,3.3381,3.336,3.336,3.3368,3.3828,3.4129,3.4432,3.5339,3.6046,3.6527,3.727,3.7929,3.8449,3.8184,3.8201,3.8302,3.8348,3.8302,3.8206,3.7963,3.7312,3.6154,3.4584,3.3668,3.3385,3.3038,3.3024,3.3342,3.3647,3.3959,3.4316,3.4602,3.4727,3.4666,3.4364,3.3786,3.2916,3.1969,3.1065,3.0149,2.8417,2.6877,2.5667,2.176,1.7833,1.4193,1.0152,0.6669,0.473,0.5531,0.7824,1.0396,1.245,1.3941,1.4852,1.5127,1.5049,1.4627,1.413,1.3407,1.2605,1.205,1.156,1.109,1.1028,1.1003,1.0751,1.0737,1.0555,1.0079,0.9989,0.9786,0.9242,0.8829,0.8312,0.7727,0.7596,0.7563,0.7498,0.7694,0.8117,0.8398,0.8753,0.9119,0.9312,0.9446,0.9478,0.9478,0.9478,0.9478,0.9478,0.951,0.958,0.9676,0.9772,0.99,1.0149,1.0364,1.0688,1.1129,1.1481,1.1786,1.2027,1.2143,1.2174,1.2089,1.1809,1.156,1.1334,1.0902,1.0333,3.4571,3.4099,3.4283,3.4316,3.4197,3.4213,3.4197,3.4286,3.4752,3.5103,3.5399,3.6056,3.6678,3.717,3.7685,3.8214,3.877,3.9055,3.9251,3.9349,3.929,3.9251,3.911,3.8752,3.7913,3.6709,3.5468,3.4741,3.4455,3.4153,3.3978,3.4,3.4183,3.4262,3.4372,3.4517,3.4604,3.455,3.4267,3.365,3.2757,3.1882,3.1007,3.0095,2.8475,2.7406,2.6706,2.3555,2.0175,1.6506,1.1982,0.8111,0.5879,0.6664,0.827,1.0416,1.2266,1.3743,1.4695,1.5068,1.5059,1.4686,1.4181,1.3528,1.2697,1.2081,1.1466,1.1059,1.0965,1.087,1.0681,1.0713,1.0555,1.0085,1.0021,0.9792,0.9344,0.8835,0.8344,0.7917,0.7722,0.7596,0.7498,0.7694,0.8047,0.8236,0.8657,0.9049,0.9242,0.9408,0.9478,0.9478,0.9478,0.9478,0.9478,0.9516,0.9548,0.9644,0.974,0.9932,1.0149,1.0301,1.0523,1.1279,1.1786,1.2127,1.2367,1.2521,1.2552,1.2398,1.222,1.1996,1.1685,1.1216,1.0681,3.4933,3.4861,3.5357,3.5498,3.5481,3.5481,3.543,3.5554,3.57,3.5881,3.6156,3.6454,3.6937,3.7487,3.7948,3.8442,3.8942,3.9232,3.9446,3.9583,3.9527,3.9389,3.9219,3.8792,3.8047,3.711,3.6621,3.6107,3.5497,3.5375,3.5318,3.4833,3.4893,3.4808,3.4439,3.4437,3.4397,3.4286,3.3987,3.333,3.2423,3.147,3.0613,2.9821,2.8196,2.7104,2.6467,2.4228,2.1675,1.8303,1.2505,0.8782,0.7589,0.7673,0.8666,1.0418,1.2066,1.3364,1.4321,1.499,1.5117,1.4813,1.433,1.367,1.2911,1.2182,1.156,1.1153,1.0965,1.08,1.0713,1.0744,1.0555,1.011,0.9951,0.9728,0.9338,0.8867,0.8538,0.8209,0.7917,0.7661,0.7526,0.7787,0.8014,0.8236,0.8657,0.9017,0.921,0.9344,0.9478,0.9478,0.9478,0.9478,0.9478,0.951,0.9548,0.9708,0.9804,1.0021,1.0308,1.0428,1.08,1.1529,1.2058,1.2398,1.2652,1.2767,1.2805,1.2683,1.2498,1.2313,1.1965,1.1466,1.109,3.5642,3.5523,3.556,3.5616,3.5616,3.5616,3.5616,3.5639,3.5768,3.6066,3.6335,3.6658,3.7238,3.7685,3.8252,3.8676,3.9068,3.9363,3.9618,3.9754,3.9789,3.9539,3.9277,3.8984,3.8551,3.7933,3.7232,3.6684,3.6402,3.6047,3.5776,3.5642,3.5192,3.4977,3.4808,3.437,3.4043,3.3834,3.3409,3.2659,3.1655,3.0603,2.967,2.8777,2.7481,2.6505,2.5651,2.2701,1.9646,1.6753,1.3037,0.9995,0.8297,0.8086,0.8688,1.0141,1.1719,1.3092,1.4124,1.4942,1.5196,1.5088,1.4617,1.4031,1.3208,1.2421,1.1809,1.1334,1.109,1.1028,1.0965,1.087,1.0555,1.0079,0.983,0.9574,0.9344,0.9177,0.892,0.8511,0.8214,0.7917,0.7689,0.7787,0.8047,0.8177,0.8565,0.9011,0.9177,0.9344,0.9478,0.9478,0.9478,0.9478,0.9478,0.9478,0.958,0.974,0.9932,1.018,1.0498,1.0846,1.1397,1.2081,1.2351,1.2681,1.282,1.295,1.2897,1.2897,1.2744,1.256,1.2182,1.1747,1.1435,3.5839,3.5728,3.5644,3.5616,3.5616,3.5616,3.5808,3.6175,3.6449,3.6904,3.746,3.7963,3.8448,3.8958,3.912,3.9364,3.9617,3.9589,3.9677,3.9804,3.9954,3.977,3.9427,3.9205,3.896,3.8566,3.7892,3.7517,3.7327,3.6926,3.6649,3.6227,3.5612,3.517,3.4778,3.411,3.3588,3.3245,3.2684,3.1795,3.0631,2.9378,2.8233,2.722,2.6067,2.488,2.3202,2.0398,1.7823,1.5637,1.2949,1.0376,0.8533,0.7962,0.8345,0.9476,1.102,1.2457,1.3666,1.4667,1.5225,1.5196,1.4883,1.4341,1.3644,1.2895,1.2259,1.1716,1.156,1.1397,1.1153,1.0902,1.0491,1.0079,0.9772,0.9548,0.9408,0.9338,0.9081,0.8732,0.8441,0.8177,0.7782,0.7949,0.8112,0.8279,0.8662,0.8952,0.9145,0.9344,0.951,0.9542,0.9606,0.9638,0.967,0.967,0.9766,0.9926,1.0276,1.0466,1.0744,1.1192,1.1903,1.2451,1.2673,1.2879,1.3025,1.3103,1.3103,1.3042,1.292,1.2652,1.2282,1.1903,1.1591,3.5706,3.5616,3.5616,3.5639,3.5639,3.5723,3.6277,3.6984,3.7438,3.8152,3.895,3.9669,3.9985,4.0719,4.0244,4.0348,4.0603,4.0296,4.0071,4.0119,4.0153,4.0027,3.9705,3.9477,3.9205,3.8884,3.8588,3.8245,3.7972,3.7958,3.7619,3.6829,3.612,3.5388,3.4679,3.378,3.3065,3.2579,3.1847,3.0692,2.9302,2.7871,2.6524,2.5173,2.3632,2.2008,2.0121,1.7941,1.6102,1.4942,1.2354,0.9919,0.8038,0.7274,0.7465,0.8388,0.9964,1.1596,1.3014,1.4222,1.5137,1.5303,1.5157,1.4765,1.4183,1.3524,1.2895,1.2359,1.2212,1.1895,1.1435,1.0965,1.0555,1.0206,0.9958,0.974,0.958,0.9408,0.921,0.8899,0.8673,0.8414,0.8214,0.8177,0.8339,0.8474,0.8829,0.9081,0.9274,0.9472,0.9606,0.9644,0.9734,0.9798,0.9862,0.9894,1.0015,1.0206,1.0618,1.0902,1.109,1.156,1.2297,1.282,1.3047,1.3169,1.3246,1.3316,1.3277,1.3103,1.2928,1.2621,1.2251,1.1872,1.1529,3.5622,3.5616,3.5616,3.5644,3.5852,3.6418,3.6933,3.7362,3.8235,3.9007,3.9542,4.0087,4.0635,4.1099,4.1234,4.1355,4.1516,4.1462,4.1472,4.1013,4.0501,4.0281,4.003,3.9807,3.9489,3.9151,3.8862,3.8494,3.8168,3.7984,3.7826,3.7362,3.6055,3.5251,3.4909,3.3573,3.2534,3.1934,3.1038,2.9657,2.7983,2.63,2.4626,2.2959,2.086,1.8994,1.7272,1.5183,1.2899,1.096,0.9824,0.8382,0.6755,0.5957,0.6117,0.7149,0.8745,1.0548,1.2281,1.3777,1.504,1.5488,1.5517,1.5362,1.4962,1.4243,1.3674,1.3208,1.285,1.2451,1.1802,1.1279,1.087,1.0523,1.0174,0.9958,0.9856,0.9632,0.944,0.9285,0.9055,0.8829,0.8668,0.8603,0.87,0.8802,0.899,0.9274,0.9466,0.9632,0.9702,0.9798,0.9894,0.9989,1.0015,1.0085,1.0212,1.0364,1.0807,1.109,1.1279,1.1802,1.2482,1.3003,1.339,1.3459,1.3407,1.3428,1.339,1.3164,1.2897,1.256,1.2212,1.184,1.1498,3.5644,3.5706,3.5689,3.5977,3.6445,3.6944,3.7671,3.8563,3.9419,4.0244,4.0973,4.1578,4.2076,4.2389,4.2303,4.2323,4.2379,4.2297,4.1965,4.1483,4.1073,4.0764,4.0271,4.0001,3.9698,3.9292,3.8946,3.8556,3.817,3.7915,3.7721,3.7434,3.5901,3.519,3.4853,3.3419,3.2267,3.1423,3.0306,2.8795,2.6905,2.4792,2.2235,1.9978,1.7653,1.5849,1.4443,1.2349,1.0063,0.8082,0.686,0.6,0.4998,0.4406,0.4635,0.5639,0.7385,0.9332,1.1195,1.305,1.4549,1.5478,1.572,1.5768,1.5584,1.5079,1.4579,1.4133,1.3722,1.3268,1.2374,1.174,1.1303,1.087,1.0491,1.0244,1.0142,0.9926,0.967,0.9536,0.9332,0.9113,0.8985,0.9022,0.9081,0.9177,0.935,0.96,0.9696,0.9856,0.9888,0.9958,1.0079,1.0142,1.0174,1.0238,1.0371,1.0555,1.0839,1.1028,1.116,1.1833,1.2605,1.3033,1.3428,1.345,1.3459,1.345,1.339,1.3133,1.2836,1.2521,1.2135,1.1729,1.1409,3.5667,3.5812,3.5936,3.645,3.7148,3.7573,3.8587,3.9904,4.0726,4.1497,4.2509,4.3249,4.341,4.3722,4.3398,4.3296,4.327,4.2856,4.2403,4.1847,4.1617,4.1097,4.0488,4.0091,3.9813,3.9421,3.9017,3.8588,3.8186,3.7827,3.7631,3.7163,3.5793,3.5031,3.4571,3.3266,3.1966,3.1135,2.9927,2.8209,2.6005,2.3621,2.0583,1.697,1.4732,1.3043,1.1519,0.9567,0.7539,0.5603,0.3786,0.293,0.261,0.271,0.2872,0.3842,0.5748,0.7887,0.9983,1.2019,1.3795,1.5069,1.5758,1.6046,1.5989,1.5797,1.541,1.4971,1.4519,1.3953,1.3047,1.232,1.174,1.131,1.0902,1.0649,1.046,1.0269,1.0072,0.969,0.9626,0.9498,0.937,0.9376,0.946,0.9556,0.9728,0.99,1.0021,1.0142,1.0219,1.0393,1.0593,1.0757,1.0777,1.0424,1.0551,1.0766,1.0955,1.1048,1.1234,1.199,1.2672,1.3052,1.3338,1.3424,1.3484,1.348,1.3329,1.3072,1.2863,1.2617,1.2163,1.1646,1.1361,3.5667,3.5868,3.6587,3.7107,3.7615,3.8796,3.9745,4.0512,4.1505,4.2293,4.2865,4.3407,4.3828,4.4008,4.4188,4.4243,4.4137,4.371,4.3072,4.2411,4.2009,4.1323,4.0496,4.0177,3.9929,3.958,3.9156,3.8683,3.8271,3.7897,3.7613,3.7035,3.5684,3.487,3.4357,3.3088,3.1821,3.0999,2.9794,2.8051,2.574,2.2681,1.9168,1.4942,1.2568,1.0634,0.8823,0.7013,0.5161,0.3411,0.1958,0.094,0.0503,0.0754,0.1247,0.2144,0.4032,0.6276,0.8429,1.0814,1.2726,1.4169,1.5303,1.5999,1.6171,1.622,1.6,1.5644,1.4989,1.4288,1.3631,1.3009,1.2274,1.1801,1.1471,1.1189,1.1024,1.0846,1.0618,1.0136,1.0015,0.9919,0.9856,0.9817,0.9913,1.0002,1.011,1.0244,1.0339,1.0526,1.0695,1.0938,1.123,1.1375,1.1505,1.096,1.0715,1.0974,1.1144,1.1178,1.1488,1.2204,1.2779,1.334,1.3503,1.3484,1.3503,1.357,1.345,1.3329,1.3074,1.2782,1.23,1.1804,1.1416,3.5977,3.663,3.7117,3.7917,3.8898,3.976,4.0574,4.1251,4.2076,4.2692,4.3105,4.3595,4.3971,4.4203,4.4383,4.4551,4.4542,4.4498,4.3707,4.284,4.2383,4.1583,4.0524,4.0205,3.997,3.9675,3.929,3.8848,3.8401,3.802,3.7703,3.711,3.5757,3.4906,3.4481,3.316,3.1996,3.1055,2.9858,2.8115,2.5524,2.1759,1.7129,1.3831,1.0916,0.8815,0.6999,0.5465,0.3893,0.2463,0.1211,0.0038,-0.0643,-0.0791,-0.0298,0.0653,0.245,0.458,0.6875,0.9299,1.153,1.3397,1.4777,1.5821,1.629,1.6506,1.6545,1.6322,1.5851,1.5207,1.4929,1.4099,1.3467,1.2924,1.236,1.1936,1.1684,1.141,1.1052,1.069,1.0575,1.0479,1.0333,1.0326,1.039,1.046,1.0523,1.06,1.0708,1.0944,1.1196,1.1568,1.1862,1.1979,1.2039,1.1613,1.116,1.1302,1.1437,1.1474,1.1741,1.2426,1.3214,1.3912,1.3901,1.3795,1.392,1.4077,1.3851,1.361,1.3445,1.3142,1.2513,1.2014,1.1625,3.6672,3.7571,3.7892,3.8851,4.0075,4.0569,4.1129,4.1842,4.2416,4.2826,4.3214,4.3681,4.4036,4.4237,4.4397,4.4551,4.4693,4.4682,4.3791,4.2887,4.2508,4.1777,4.0753,4.0233,4.005,3.9859,3.9514,3.9041,3.8569,3.8204,3.7916,3.7345,3.6043,3.5155,3.473,3.3547,3.2421,3.1287,3.0174,2.835,2.4709,2.0086,1.5575,1.2578,0.9921,0.7672,0.5902,0.4436,0.3159,0.195,0.082,-0.0274,-0.1334,-0.1843,-0.1577,-0.0521,0.103,0.303,0.5233,0.7782,1.018,1.2335,1.4196,1.5444,1.6454,1.6915,1.7151,1.7118,1.6658,1.6187,1.5845,1.5256,1.4541,1.3901,1.3208,1.2695,1.234,1.2017,1.1703,1.139,1.1203,1.1034,1.0869,1.08,1.0863,1.0958,1.1028,1.1199,1.1291,1.1482,1.1768,1.2192,1.2456,1.2555,1.2526,1.2311,1.1936,1.1854,1.1957,1.2011,1.2258,1.2613,1.3431,1.4248,1.4399,1.4338,1.4497,1.4511,1.431,1.4089,1.3874,1.346,1.2806,1.2297,1.19,3.8111,3.8548,3.9411,4.0,4.0412,4.1139,4.163,4.2012,4.245,4.2767,4.3069,4.3511,4.386,4.4082,4.431,4.4524,4.4491,4.4083,4.3475,4.2726,4.2182,4.1477,4.0573,4.0353,4.0187,3.9998,3.9751,3.9268,3.8799,3.8491,3.8171,3.7699,3.6912,3.6074,3.5242,3.425,3.2967,3.1742,3.0573,2.7804,2.3557,1.9627,1.6073,1.2733,0.9665,0.7138,0.5422,0.3951,0.2668,0.1727,0.0667,-0.0236,-0.1021,-0.1961,-0.2313,-0.1751,-0.0464,0.1454,0.3622,0.6207,0.8837,1.1242,1.3418,1.5145,1.6427,1.7408,1.7864,1.8032,1.7451,1.6951,1.6507,1.5697,1.4955,1.4346,1.3824,1.3279,1.284,1.2476,1.2189,1.205,1.183,1.16,1.1411,1.135,1.1303,1.1428,1.1565,1.1726,1.198,1.2222,1.258,1.3021,1.3263,1.3387,1.3164,1.2897,1.2621,1.2424,1.2445,1.2508,1.2642,1.2953,1.3709,1.4352,1.459,1.4749,1.4731,1.4714,1.468,1.4496,1.4237,1.3692,1.3083,1.2621,1.2173,3.9507,3.9586,4.011,4.0705,4.1296,4.1721,4.1952,4.2121,4.251,4.2805,4.3069,4.3442,4.3793,4.4033,4.4266,4.4473,4.4444,4.3844,4.3244,4.2649,4.1971,4.1261,4.0633,4.0392,4.0288,4.0139,3.9937,3.9682,3.9208,3.8818,3.8473,3.816,3.7393,3.6683,3.5962,3.518,3.4091,3.2535,3.0381,2.7346,2.3753,2.0216,1.6745,1.3301,1.009,0.758,0.5574,0.4109,0.2862,0.1922,0.1059,0.0196,-0.0864,-0.1845,-0.247,-0.2391,-0.1447,0.0194,0.2299,0.4987,0.7645,1.019,1.2582,1.4703,1.6421,1.7554,1.8185,1.8385,1.7987,1.7578,1.7255,1.662,1.5904,1.5206,1.4383,1.3842,1.3328,1.2935,1.2617,1.2524,1.2391,1.2145,1.193,1.1858,1.1875,1.2084,1.22,1.236,1.2747,1.3189,1.3565,1.3991,1.4151,1.4244,1.392,1.3611,1.3222,1.3007,1.2899,1.2928,1.2942,1.3353,1.4032,1.4601,1.4945,1.502,1.4976,1.4976,1.5,1.4815,1.459,1.3932,1.3278,1.2798,1.2314,4.0496,4.0553,4.0781,4.1325,4.197,4.2079,4.2065,4.2145,4.2528,4.2785,4.3032,4.3391,4.3747,4.3986,4.4143,4.4321,4.4484,4.3624,4.3088,4.2534,4.1816,4.1075,4.0654,4.0457,4.0372,4.0241,4.0168,3.9956,3.9663,3.9338,3.8999,3.8643,3.8031,3.7346,3.686,3.6194,3.5196,3.3468,3.0645,2.7788,2.4817,2.1278,1.7767,1.4358,1.1175,0.8339,0.6269,0.4771,0.3522,0.2507,0.1646,0.0666,-0.0588,-0.1648,-0.2273,-0.2195,-0.1528,-0.0234,0.1902,0.4282,0.6832,0.9495,1.2417,1.5146,1.6976,1.7787,1.8165,1.8612,1.8298,1.8052,1.7755,1.7104,1.627,1.5504,1.4862,1.4326,1.3785,1.3277,1.2809,1.257,1.2477,1.2574,1.2395,1.2335,1.2427,1.2693,1.2866,1.3006,1.337,1.3868,1.4112,1.4411,1.4478,1.4497,1.423,1.3941,1.3666,1.3492,1.3346,1.3324,1.3353,1.3643,1.4186,1.4713,1.5158,1.5165,1.5012,1.517,1.5319,1.4819,1.4344,1.4004,1.3491,1.2936,1.2415,4.0991,4.1167,4.1685,4.1934,4.2026,4.2079,4.2103,4.2163,4.2405,4.2645,4.2899,4.3286,4.3597,4.3744,4.3986,4.4218,4.4443,4.3014,4.2739,4.2238,4.1327,4.0808,4.0592,4.0561,4.0504,4.0406,4.0349,4.0243,4.0078,3.9884,3.9508,3.9073,3.8719,3.814,3.7546,3.6966,3.5823,3.4022,3.1467,2.8974,2.6074,2.272,1.905,1.5627,1.2394,0.9595,0.7456,0.596,0.4533,0.3404,0.2193,0.1018,-0.0235,-0.1333,-0.192,-0.1803,-0.1057,0.0313,0.2259,0.4117,0.6454,0.9484,1.274,1.5757,1.7331,1.8095,1.8506,1.8565,1.8258,1.7948,1.7423,1.6795,1.6123,1.5455,1.4822,1.4193,1.3718,1.3417,1.2971,1.2607,1.2515,1.2529,1.2653,1.2502,1.2761,1.3009,1.3349,1.3457,1.3738,1.4159,1.4336,1.451,1.4545,1.4461,1.4201,1.3949,1.3702,1.3528,1.3382,1.3557,1.3716,1.4101,1.4325,1.4641,1.4999,1.5018,1.5046,1.5062,1.4927,1.4505,1.4072,1.363,1.3156,1.2562,1.2157,4.0937,4.1439,4.2167,4.2425,4.2282,4.2225,4.2225,4.2246,4.2425,4.2627,4.2899,4.3304,4.3548,4.3681,4.3892,4.4188,4.4341,4.3574,4.3068,4.2537,4.1835,4.113,4.0905,4.0681,4.0687,4.0586,4.0554,4.0452,4.0289,4.0225,4.0039,3.9698,3.9408,3.9021,3.8409,3.7537,3.6286,3.4869,3.2667,3.0259,2.7425,2.4477,2.1049,1.7623,1.4598,1.1876,0.9675,0.7926,0.6213,0.4523,0.2891,0.1526,0.0274,-0.0822,-0.1254,-0.1057,-0.0078,0.1404,0.3034,0.4812,0.703,1.0693,1.3621,1.5781,1.7079,1.7569,1.7944,1.8046,1.7954,1.751,1.727,1.6621,1.5947,1.5275,1.4649,1.4023,1.3579,1.3249,1.2931,1.2478,1.2383,1.2387,1.2519,1.2628,1.2972,1.3335,1.3681,1.3944,1.4112,1.4233,1.4371,1.4461,1.4497,1.4425,1.4173,1.3956,1.371,1.3528,1.3382,1.3593,1.3775,1.4109,1.4369,1.4641,1.4812,1.4883,1.4883,1.4784,1.4569,1.4289,1.3775,1.3185,1.2666,1.215,1.1892,4.1105,4.1814,4.2594,4.2783,4.2546,4.2427,4.2389,4.2427,4.2468,4.2667,4.292,4.3268,4.3479,4.3614,4.3876,4.417,4.4261,4.3863,4.3327,4.2774,4.2148,4.15,4.1007,4.079,4.0809,4.0738,4.0681,4.06,4.0465,4.0417,4.0288,4.009,3.9914,3.9578,3.9032,3.8095,3.6994,3.5836,3.3968,3.1776,2.9147,2.6217,2.3333,2.0061,1.7158,1.4582,1.2328,1.045,0.8458,0.6454,0.4503,0.2614,0.1211,0.0196,-0.0196,0.0313,0.1365,0.2879,0.4583,0.6503,0.859,1.1914,1.3622,1.5223,1.6219,1.6855,1.7201,1.7554,1.7314,1.7038,1.6839,1.6123,1.5488,1.482,1.4402,1.383,1.336,1.2989,1.269,1.2322,1.2269,1.2164,1.2345,1.2462,1.2884,1.3235,1.3521,1.3782,1.395,1.4055,1.4142,1.4289,1.4389,1.4281,1.4145,1.3812,1.3499,1.3302,1.3236,1.3455,1.3674,1.4046,1.4364,1.4613,1.4748,1.4792,1.4764,1.4709,1.4477,1.4173,1.3441,1.2592,1.215,1.1706,1.1669,4.1599,4.2341,4.3027,4.3032,4.267,4.2609,4.2609,4.2611,4.2629,4.2728,4.2939,4.3178,4.3375,4.3599,4.3923,4.4206,4.4393,4.409,4.3655,4.3115,4.2556,4.1732,4.1204,4.0984,4.0891,4.0898,4.0833,4.0742,4.061,4.0581,4.0485,4.0377,4.0187,3.9958,3.9628,3.8924,3.8107,3.7055,3.5091,3.3225,3.1039,2.8134,2.5394,2.2629,2.0062,1.7528,1.536,1.3356,1.1362,0.9182,0.684,0.4791,0.284,0.1796,0.1446,0.1757,0.3186,0.4843,0.6698,0.8845,1.0883,1.2528,1.3897,1.4832,1.5806,1.6307,1.6508,1.6864,1.6693,1.6413,1.599,1.5547,1.5069,1.4657,1.4246,1.3778,1.3296,1.2846,1.2538,1.2195,1.1976,1.1895,1.2075,1.2319,1.2729,1.3089,1.339,1.3579,1.3703,1.3754,1.3783,1.3891,1.3992,1.3848,1.3681,1.3565,1.3322,1.3082,1.3109,1.3333,1.3674,1.4111,1.4388,1.4656,1.4969,1.5239,1.4964,1.464,1.4402,1.4037,1.2788,1.1966,1.1558,1.1316,1.1297,4.1961,4.2696,4.3398,4.3563,4.332,4.3069,4.2957,4.2881,4.2918,4.2994,4.3142,4.3322,4.3582,4.3844,4.4087,4.4402,4.4675,4.4944,4.4555,4.3892,4.3197,4.2539,4.1883,4.1237,4.0987,4.0956,4.0921,4.0864,4.0726,4.0724,4.0654,4.0535,4.0271,3.9996,3.9556,3.8971,3.8223,3.729,3.5828,3.4249,3.2306,3.0107,2.7768,2.5138,2.2966,2.0839,1.8639,1.6704,1.4592,1.2206,0.9763,0.7292,0.5166,0.3876,0.3426,0.4003,0.531,0.7403,0.9504,1.1452,1.2181,1.3149,1.3796,1.4633,1.5382,1.5788,1.6,1.6201,1.6312,1.6112,1.5819,1.5654,1.5273,1.4888,1.4429,1.3811,1.3301,1.2864,1.2501,1.212,1.1833,1.1854,1.1944,1.2124,1.2471,1.2714,1.2975,1.3121,1.3233,1.3206,1.3207,1.3346,1.3411,1.3266,1.3126,1.3044,1.2893,1.2663,1.2887,1.3308,1.3698,1.4094,1.472,1.5154,1.5434,1.5669,1.5481,1.5202,1.4547,1.3832,1.2821,1.1809,1.1313,1.1131,1.1017,4.2464,4.3467,4.3904,4.4036,4.3873,4.3529,4.3285,4.3232,4.3286,4.334,4.3427,4.3599,4.3828,4.4121,4.4374,4.465,4.5011,4.5333,4.514,4.4523,4.3791,4.2984,4.2229,4.1525,4.1095,4.102,4.1011,4.0967,4.0872,4.0835,4.0719,4.0504,4.0186,3.9832,3.9408,3.8849,3.8172,3.7217,3.5994,3.485,3.3217,3.154,2.9876,2.7824,2.5925,2.4088,2.2232,2.023,1.8127,1.547,1.2855,1.0191,0.8025,0.6433,0.5803,0.635,0.7913,0.9884,1.1859,1.2922,1.3446,1.3874,1.4112,1.456,1.5088,1.5446,1.5749,1.5973,1.6099,1.5951,1.5734,1.555,1.5258,1.4846,1.4496,1.3903,1.356,1.3112,1.2694,1.229,1.1943,1.1919,1.1894,1.1988,1.2201,1.2388,1.2531,1.2726,1.2931,1.2965,1.2988,1.307,1.3047,1.2945,1.2759,1.257,1.2393,1.2226,1.2602,1.3147,1.3553,1.3944,1.4795,1.5651,1.5954,1.6178,1.6152,1.5841,1.5181,1.4287,1.3215,1.2241,1.1292,1.1012,1.0985,4.3152,4.4493,4.4524,4.4454,4.434,4.3952,4.3712,4.3629,4.3679,4.3712,4.3744,4.3921,4.4147,4.4355,4.4657,4.4966,4.5255,4.5557,4.5325,4.4705,4.3994,4.3234,4.2454,4.1599,4.1188,4.1087,4.1094,4.1042,4.0994,4.0891,4.0742,4.0458,4.0101,3.9675,3.9218,3.8623,3.7922,3.7046,3.6104,3.5057,3.3786,3.2653,3.1385,2.9813,2.8325,2.6917,2.5281,2.3596,2.1494,1.904,1.6452,1.3599,1.1203,0.9292,0.8581,0.8831,1.0504,1.194,1.3177,1.3903,1.432,1.4565,1.4581,1.4935,1.5227,1.5365,1.5569,1.5747,1.5885,1.5718,1.5521,1.5257,1.498,1.4761,1.4564,1.417,1.3872,1.3472,1.3077,1.2668,1.2272,1.2141,1.2039,1.2083,1.2241,1.2391,1.2618,1.2833,1.3008,1.318,1.3167,1.3076,1.3012,1.2681,1.2487,1.2289,1.2105,1.2009,1.2385,1.2875,1.332,1.3943,1.4897,1.5756,1.6404,1.6741,1.7034,1.6613,1.581,1.4846,1.4091,1.2844,1.1957,1.129,1.1122,4.3433,4.4833,4.4764,4.4693,4.4667,4.4541,4.4327,4.4042,4.4042,4.4084,4.4198,4.4318,4.4519,4.4812,4.5014,4.5275,4.5517,4.5745,4.5804,4.5196,4.4229,4.3669,4.2851,4.189,4.1323,4.1112,4.1093,4.108,4.1035,4.0945,4.0705,4.0403,4.0014,3.9552,3.8966,3.8282,3.7595,3.6853,3.5968,3.5128,3.4391,3.3406,3.2473,3.1424,3.0348,2.9053,2.7845,2.6301,2.425,2.2044,1.9453,1.6693,1.3858,1.2118,1.1046,1.1168,1.2204,1.3163,1.4009,1.4496,1.4847,1.5136,1.5196,1.5382,1.5551,1.5581,1.5589,1.5737,1.5795,1.5659,1.5571,1.5323,1.5109,1.5002,1.4762,1.4454,1.4096,1.3677,1.3222,1.2851,1.2506,1.2343,1.2242,1.2349,1.2517,1.2631,1.2756,1.2927,1.3099,1.3265,1.3287,1.3153,1.2993,1.2677,1.2363,1.2135,1.1946,1.1869,1.2194,1.2622,1.3191,1.3947,1.5005,1.6133,1.7201,1.7796,1.8167,1.755,1.6822,1.6156,1.5371,1.3972,1.2732,1.2135,1.1543,4.3645,4.5019,4.5003,4.4938,4.4883,4.4907,4.4758,4.4559,4.453,4.4557,4.461,4.4745,4.4919,4.515,4.5323,4.5544,4.5764,4.5954,4.602,4.564,4.4409,4.3886,4.3093,4.2064,4.1283,4.1099,4.111,4.1093,4.1065,4.0898,4.0661,4.0415,3.9994,3.9438,3.8826,3.8107,3.7361,3.6654,3.5899,3.5098,3.4464,3.3975,3.3364,3.2701,3.176,3.0876,2.9915,2.8348,2.6553,2.4374,2.1831,1.9158,1.6244,1.4095,1.2816,1.2842,1.3365,1.4014,1.4636,1.5085,1.534,1.552,1.5755,1.5937,1.5866,1.5856,1.5834,1.5889,1.583,1.5715,1.5588,1.5475,1.546,1.5401,1.5026,1.4678,1.4223,1.3808,1.3392,1.3009,1.2778,1.2644,1.2589,1.2662,1.2693,1.2723,1.2826,1.2988,1.3113,1.3256,1.3226,1.3124,1.2924,1.2682,1.235,1.1979,1.175,1.1609,1.1691,1.2172,1.2918,1.3986,1.5049,1.6668,1.8346,1.8691,1.8854,1.8612,1.8014,1.7286,1.6476,1.5256,1.4056,1.3222,1.2632,4.3866,4.5307,4.5235,4.5136,4.5038,4.5084,4.5102,4.5137,4.5068,4.5007,4.4988,4.5137,4.5284,4.5445,4.5603,4.5764,4.5933,4.6096,4.6153,4.608,4.4453,4.3738,4.3195,4.2041,4.1248,4.1099,4.1098,4.1113,4.1034,4.0905,4.0709,4.0477,3.9945,3.9401,3.8849,3.8094,3.7433,3.6867,3.6109,3.5345,3.4723,3.43,3.4009,3.3636,3.2942,3.2171,3.1255,2.9943,2.8366,2.6018,2.3628,2.0986,1.7794,1.5342,1.4252,1.3962,1.4343,1.4688,1.5092,1.5505,1.5661,1.5911,1.6184,1.6255,1.618,1.6039,1.603,1.5961,1.5854,1.565,1.5523,1.5474,1.5443,1.5298,1.4992,1.4692,1.4398,1.3808,1.3137,1.2839,1.2662,1.2577,1.2662,1.2705,1.2705,1.2741,1.2833,1.2966,1.2991,1.3104,1.3085,1.3024,1.2964,1.2692,1.2221,1.1849,1.1498,1.1359,1.1365,1.1709,1.2443,1.3704,1.5081,1.6935,1.8794,1.9192,1.9332,1.9073,1.8705,1.8055,1.7245,1.6435,1.5474,1.4455,1.3648,4.4528,4.5438,4.5388,4.5307,4.5246,4.531,4.5361,4.54,4.5512,4.5446,4.54,4.5445,4.5566,4.5699,4.5835,4.5966,4.6067,4.615,4.6225,4.5719,4.4509,4.3732,4.3361,4.1983,4.1241,4.1117,4.1117,4.1113,4.1065,4.0921,4.0713,4.0408,3.9936,3.945,3.8924,3.8212,3.7667,3.7133,3.6441,3.5657,3.4951,3.4666,3.4431,3.3965,3.3347,3.2572,3.159,3.034,2.8724,2.6789,2.47,2.1587,1.7824,1.6076,1.5215,1.5072,1.5103,1.5249,1.5428,1.5677,1.5791,1.5867,1.6062,1.6275,1.6324,1.6215,1.6093,1.6018,1.5839,1.5631,1.5465,1.5431,1.5389,1.5215,1.495,1.4734,1.4475,1.3675,1.2918,1.2705,1.2577,1.2577,1.2662,1.2705,1.2705,1.2705,1.2699,1.2747,1.2619,1.2638,1.2845,1.2838,1.3021,1.2772,1.2203,1.1731,1.1338,1.1122,1.1073,1.1499,1.2015,1.3613,1.533,1.735,1.8962,1.928,1.9469,1.9557,1.9152,1.8536,1.7853,1.6968,1.6353,1.5426,1.4664,4.482,4.5514,4.5505,4.5467,4.5457,4.5512,4.5573,4.5648,4.5754,4.573,4.5708,4.5723,4.578,4.5886,4.6005,4.6084,4.6137,4.6201,4.6233,4.576,4.4704,4.3929,4.2994,4.197,4.1386,4.1104,4.1109,4.111,4.1087,4.0922,4.069,4.04,3.9995,3.9505,3.8966,3.8455,3.7913,3.7432,3.6733,3.5925,3.5187,3.5087,3.4951,3.4484,3.3828,3.2912,3.1404,3.0096,2.8183,2.5774,2.3099,2.0679,1.7797,1.6384,1.5757,1.559,1.563,1.5732,1.5716,1.5768,1.5848,1.5858,1.5822,1.6015,1.6245,1.6144,1.6219,1.6121,1.5922,1.5714,1.5582,1.5506,1.5431,1.5305,1.4873,1.4524,1.3971,1.3258,1.2747,1.2534,1.2491,1.2534,1.2619,1.2705,1.2705,1.2668,1.2662,1.2576,1.2441,1.2241,1.2433,1.2484,1.2593,1.2527,1.1995,1.1559,1.1203,1.0987,1.0776,1.1251,1.1935,1.374,1.5621,1.7286,1.857,1.9073,1.9311,1.9534,1.9408,1.8825,1.8184,1.7465,1.6886,1.6294,1.56,4.4991,4.5582,4.562,4.5627,4.5629,4.5696,4.5757,4.5814,4.5874,4.5886,4.588,4.5854,4.5918,4.6003,4.6066,4.6142,4.6183,4.621,4.6256,4.5799,4.4489,4.3914,4.3067,4.2025,4.1408,4.1108,4.1113,4.1099,4.1079,4.0898,4.0686,4.0419,3.9995,3.95,3.9087,3.8566,3.7965,3.7345,3.6619,3.5838,3.5564,3.545,3.5121,3.4762,3.4202,3.301,3.1263,2.9319,2.7277,2.4415,2.1404,1.9176,1.7696,1.6505,1.617,1.5929,1.5968,1.5982,1.5947,1.5914,1.5823,1.5733,1.5692,1.5782,1.6004,1.617,1.6245,1.626,1.6102,1.5895,1.5763,1.5597,1.5521,1.5327,1.4853,1.4257,1.358,1.29,1.2601,1.2386,1.2423,1.2466,1.2679,1.2759,1.2783,1.2734,1.2623,1.25,1.2368,1.2129,1.2086,1.197,1.1881,1.1755,1.1635,1.1386,1.1025,1.0722,1.0598,1.1035,1.1828,1.3412,1.505,1.6742,1.7837,1.8632,1.9151,1.9441,1.9257,1.8976,1.8264,1.7587,1.7221,1.6686,1.6346,4.556,4.577,4.577,4.5773,4.5759,4.5841,4.588,4.5873,4.5943,4.5949,4.5893,4.5854,4.588,4.5991,4.6047,4.6127,4.618,4.621,4.6257,4.5995,4.4452,4.3901,4.3156,4.1886,4.1288,4.1092,4.1081,4.1055,4.099,4.0844,4.0617,4.0301,3.9906,3.9432,3.8924,3.8387,3.7806,3.7075,3.617,3.5351,3.4943,3.472,3.4453,3.3996,3.3402,3.2071,3.0478,2.8512,2.612,2.332,2.0389,1.8257,1.7171,1.6501,1.622,1.6068,1.6102,1.606,1.6021,1.5895,1.5748,1.5548,1.5582,1.579,1.6004,1.6245,1.6384,1.6596,1.6438,1.6197,1.6024,1.5801,1.5683,1.5351,1.4937,1.4133,1.3371,1.277,1.2339,1.2296,1.2333,1.2626,1.3012,1.3092,1.3183,1.3113,1.2963,1.2835,1.2399,1.2115,1.1811,1.1591,1.1368,1.1303,1.1332,1.1127,1.0809,1.0506,1.0347,1.0676,1.1429,1.2798,1.4432,1.6233,1.7469,1.8338,1.8849,1.9226,1.9138,1.8855,1.8204,1.7635,1.7335,1.7052,1.6695]}]]